<?xml version="1.0" encoding="UTF-8"?><gpx version="1.1" xmlns:xsd="http://www.w3.org/2001/XMLSchema" xmlns:xsi="http://www.w3.org/2001/XMLSchema-instance" creator="The Notarubicon  https://www.NotARubicon.com" xsi:schemaLocation="http://www.topografix.com/GPX/1/1 http://www.topografix.com/GPX/1/1/gpx.xsd http://www.magellangps.com/mgnext/0/2 http://www.magellangps.com/mgnext/0/2/mgn.xsd http://www.groundspeak.com/cache/1/0 http://www.groundspeak.com/cache/1/0/cache.xsd" xmlns="http://www.topografix.com/GPX/1/1">
<trk>
    <name>Red Canyon Jeep Trail</name>
    <desc>notarubicon.com
notarubicon.com</desc>
    <extensions>
      <mgn:extensions xmlns:mgn="http://www.magellangps.com/mgnext/0/2">
        <mgn:difficulty>1</mgn:difficulty>
        <mgn:rating>5</mgn:rating>
        <mgn:uuid>a2e35a2d-8b75-4ea0-b7b4-582d5cb8f1d5</mgn:uuid>
        <mgn:proplist>
          <mgn:prop key="Vehicle">9929</mgn:prop>
          <mgn:prop key="VehicleType">,OHV</mgn:prop>
          <mgn:prop key="WD">Some</mgn:prop>
          <mgn:prop key="LO">Some</mgn:prop>
          <mgn:prop key="DIRT">Solid;</mgn:prop>
          <mgn:prop key="T_MUD"></mgn:prop>
          <mgn:prop key="T_SAND">0-6N</mgn:prop>
          <mgn:prop key="T_SNOW"></mgn:prop>
          <mgn:prop key="T_ICE"></mgn:prop>
          <mgn:prop key="T_WATER"></mgn:prop>
          <mgn:prop key="T_ROCK"></mgn:prop>
          <mgn:prop key="PITCH">10-20</mgn:prop>
          <mgn:prop key="ROLL">0-10</mgn:prop>
          <mgn:prop key="MAGELLAN_OFFROAD_KEY">0</mgn:prop>
          <mgn:prop key="Author">NotARubicon</mgn:prop>
          <mgn:prop key="InstagramUpdate">True</mgn:prop>
          <mgn:prop key="MaxElevation">660</mgn:prop>
          <mgn:prop key="MinElevation">253</mgn:prop>
          <mgn:prop key="ElevationChange">-253.89844</mgn:prop>
          <mgn:prop key="RecordedTime">6211</mgn:prop>
          <mgn:prop key="Length">26399.537</mgn:prop>
          <mgn:prop key="Type">Trail</mgn:prop>
          <mgn:prop key="Type2">Trail</mgn:prop>
        </mgn:proplist>
      </mgn:extensions>
    </extensions>

    <trkseg>
      <trkpt lat="33.658196" lon="-115.743533">
        <ele>512.296875</ele>
        <time>2020-07-03T17:39:47.000Z</time>
      </trkpt>
      <trkpt lat="33.658022" lon="-115.74339">
        <ele>514.699219</ele>
        <time>2020-07-03T17:41:09.000Z</time>
      </trkpt>
      <trkpt lat="33.657568" lon="-115.743086">
        <ele>516.000000</ele>
        <time>2020-07-03T17:41:22.000Z</time>
      </trkpt>
      <trkpt lat="33.657246" lon="-115.742928">
        <ele>516.500000</ele>
        <time>2020-07-03T17:41:30.000Z</time>
      </trkpt>
      <trkpt lat="33.657211" lon="-115.742902">
        <ele>516.597656</ele>
        <time>2020-07-03T17:41:32.000Z</time>
      </trkpt>
      <trkpt lat="33.657071" lon="-115.742776">
        <ele>516.699219</ele>
        <time>2020-07-03T17:41:35.000Z</time>
      </trkpt>
      <trkpt lat="33.656134" lon="-115.741791">
        <ele>519.699219</ele>
        <time>2020-07-03T17:42:07.000Z</time>
      </trkpt>
      <trkpt lat="33.656104" lon="-115.74177">
        <ele>519.199219</ele>
        <time>2020-07-03T17:42:09.000Z</time>
      </trkpt>
      <trkpt lat="33.656045" lon="-115.741735">
        <ele>519.398438</ele>
        <time>2020-07-03T17:42:10.000Z</time>
      </trkpt>
      <trkpt lat="33.65592" lon="-115.741671">
        <ele>519.500000</ele>
        <time>2020-07-03T17:42:14.000Z</time>
      </trkpt>
      <trkpt lat="33.655758" lon="-115.741598">
        <ele>519.898438</ele>
        <time>2020-07-03T17:42:18.000Z</time>
      </trkpt>
      <trkpt lat="33.655718" lon="-115.74157">
        <ele>520.000000</ele>
        <time>2020-07-03T17:42:19.000Z</time>
      </trkpt>
      <trkpt lat="33.655681" lon="-115.741536">
        <ele>520.000000</ele>
        <time>2020-07-03T17:42:20.000Z</time>
      </trkpt>
      <trkpt lat="33.655647" lon="-115.741498">
        <ele>519.898438</ele>
        <time>2020-07-03T17:42:21.000Z</time>
      </trkpt>
      <trkpt lat="33.655549" lon="-115.74137">
        <ele>520.296875</ele>
        <time>2020-07-03T17:42:24.000Z</time>
      </trkpt>
      <trkpt lat="33.655444" lon="-115.74123">
        <ele>520.000000</ele>
        <time>2020-07-03T17:42:27.000Z</time>
      </trkpt>
      <trkpt lat="33.654332" lon="-115.740039">
        <ele>521.500000</ele>
        <time>2020-07-03T17:42:52.000Z</time>
      </trkpt>
      <trkpt lat="33.653143" lon="-115.738831">
        <ele>523.597656</ele>
        <time>2020-07-03T17:43:18.000Z</time>
      </trkpt>
      <trkpt lat="33.653096" lon="-115.738794">
        <ele>523.796875</ele>
        <time>2020-07-03T17:43:19.000Z</time>
      </trkpt>
      <trkpt lat="33.652999" lon="-115.738727">
        <ele>524.199219</ele>
        <time>2020-07-03T17:43:21.000Z</time>
      </trkpt>
      <trkpt lat="33.652635" lon="-115.738531">
        <ele>525.199219</ele>
        <time>2020-07-03T17:43:28.000Z</time>
      </trkpt>
      <trkpt lat="33.652158" lon="-115.738282">
        <ele>526.699219</ele>
        <time>2020-07-03T17:43:37.000Z</time>
      </trkpt>
      <trkpt lat="33.652" lon="-115.738167">
        <ele>527.000000</ele>
        <time>2020-07-03T17:43:40.000Z</time>
      </trkpt>
      <trkpt lat="33.650845" lon="-115.737195">
        <ele>528.796875</ele>
        <time>2020-07-03T17:44:03.000Z</time>
      </trkpt>
      <trkpt lat="33.650312" lon="-115.736898">
        <ele>529.500000</ele>
        <time>2020-07-03T17:44:12.000Z</time>
      </trkpt>
      <trkpt lat="33.650055" lon="-115.736808">
        <ele>530.500000</ele>
        <time>2020-07-03T17:44:16.000Z</time>
      </trkpt>
      <trkpt lat="33.64942" lon="-115.736586">
        <ele>532.199219</ele>
        <time>2020-07-03T17:44:26.000Z</time>
      </trkpt>
      <trkpt lat="33.649292" lon="-115.736562">
        <ele>532.500000</ele>
        <time>2020-07-03T17:44:28.000Z</time>
      </trkpt>
      <trkpt lat="33.648109" lon="-115.7363">
        <ele>535.398438</ele>
        <time>2020-07-03T17:44:46.000Z</time>
      </trkpt>
      <trkpt lat="33.646099" lon="-115.735674">
        <ele>539.898438</ele>
        <time>2020-07-03T17:45:17.000Z</time>
      </trkpt>
      <trkpt lat="33.646035" lon="-115.735648">
        <ele>540.097656</ele>
        <time>2020-07-03T17:45:18.000Z</time>
      </trkpt>
      <trkpt lat="33.645851" lon="-115.735553">
        <ele>539.500000</ele>
        <time>2020-07-03T17:45:21.000Z</time>
      </trkpt>
      <trkpt lat="33.643676" lon="-115.73445">
        <ele>541.500000</ele>
        <time>2020-07-03T17:45:56.000Z</time>
      </trkpt>
      <trkpt lat="33.642308" lon="-115.733829">
        <ele>544.699219</ele>
        <time>2020-07-03T17:46:15.000Z</time>
      </trkpt>
      <trkpt lat="33.642083" lon="-115.733759">
        <ele>544.500000</ele>
        <time>2020-07-03T17:46:18.000Z</time>
      </trkpt>
      <trkpt lat="33.642008" lon="-115.733744">
        <ele>544.500000</ele>
        <time>2020-07-03T17:46:19.000Z</time>
      </trkpt>
      <trkpt lat="33.641933" lon="-115.733737">
        <ele>544.500000</ele>
        <time>2020-07-03T17:46:20.000Z</time>
      </trkpt>
      <trkpt lat="33.641782" lon="-115.733737">
        <ele>544.500000</ele>
        <time>2020-07-03T17:46:22.000Z</time>
      </trkpt>
      <trkpt lat="33.6414" lon="-115.733746">
        <ele>545.398438</ele>
        <time>2020-07-03T17:46:27.000Z</time>
      </trkpt>
      <trkpt lat="33.63987" lon="-115.733626">
        <ele>548.796875</ele>
        <time>2020-07-03T17:46:48.000Z</time>
      </trkpt>
      <trkpt lat="33.639685" lon="-115.733657">
        <ele>549.097656</ele>
        <time>2020-07-03T17:46:54.000Z</time>
      </trkpt>
      <trkpt lat="33.639664" lon="-115.733663">
        <ele>548.500000</ele>
        <time>2020-07-03T17:46:57.000Z</time>
      </trkpt>
      <trkpt lat="33.639589" lon="-115.733672">
        <ele>548.898438</ele>
        <time>2020-07-03T17:46:58.000Z</time>
      </trkpt>
      <trkpt lat="33.639562" lon="-115.733674">
        <ele>548.699219</ele>
        <time>2020-07-03T17:47:01.000Z</time>
      </trkpt>
      <trkpt lat="33.639464" lon="-115.733696">
        <ele>548.597656</ele>
        <time>2020-07-03T17:47:03.000Z</time>
      </trkpt>
      <trkpt lat="33.639438" lon="-115.733704">
        <ele>548.796875</ele>
        <time>2020-07-03T17:47:06.000Z</time>
      </trkpt>
      <trkpt lat="33.639353" lon="-115.733737">
        <ele>548.796875</ele>
        <time>2020-07-03T17:47:07.000Z</time>
      </trkpt>
      <trkpt lat="33.639019" lon="-115.733863">
        <ele>549.500000</ele>
        <time>2020-07-03T17:47:17.000Z</time>
      </trkpt>
      <trkpt lat="33.637486" lon="-115.734312">
        <ele>550.199219</ele>
        <time>2020-07-03T17:47:54.000Z</time>
      </trkpt>
      <trkpt lat="33.63726" lon="-115.734403">
        <ele>549.199219</ele>
        <time>2020-07-03T17:48:03.000Z</time>
      </trkpt>
      <trkpt lat="33.636828" lon="-115.734566">
        <ele>551.199219</ele>
        <time>2020-07-03T17:48:13.000Z</time>
      </trkpt>
      <trkpt lat="33.634113" lon="-115.735405">
        <ele>556.000000</ele>
        <time>2020-07-03T17:49:02.000Z</time>
      </trkpt>
      <trkpt lat="33.63406" lon="-115.73541">
        <ele>556.097656</ele>
        <time>2020-07-03T17:49:03.000Z</time>
      </trkpt>
      <trkpt lat="33.634009" lon="-115.735411">
        <ele>556.097656</ele>
        <time>2020-07-03T17:49:04.000Z</time>
      </trkpt>
      <trkpt lat="33.633959" lon="-115.735405">
        <ele>556.097656</ele>
        <time>2020-07-03T17:49:05.000Z</time>
      </trkpt>
      <trkpt lat="33.633695" lon="-115.735369">
        <ele>557.398438</ele>
        <time>2020-07-03T17:49:10.000Z</time>
      </trkpt>
      <trkpt lat="33.633638" lon="-115.735355">
        <ele>557.597656</ele>
        <time>2020-07-03T17:49:11.000Z</time>
      </trkpt>
      <trkpt lat="33.633587" lon="-115.735336">
        <ele>557.796875</ele>
        <time>2020-07-03T17:49:12.000Z</time>
      </trkpt>
      <trkpt lat="33.633537" lon="-115.735314">
        <ele>557.796875</ele>
        <time>2020-07-03T17:49:13.000Z</time>
      </trkpt>
      <trkpt lat="33.633494" lon="-115.735288">
        <ele>557.597656</ele>
        <time>2020-07-03T17:49:15.000Z</time>
      </trkpt>
      <trkpt lat="33.633429" lon="-115.735229">
        <ele>557.597656</ele>
        <time>2020-07-03T17:49:16.000Z</time>
      </trkpt>
      <trkpt lat="33.633401" lon="-115.735196">
        <ele>557.699219</ele>
        <time>2020-07-03T17:49:18.000Z</time>
      </trkpt>
      <trkpt lat="33.633278" lon="-115.735045">
        <ele>557.097656</ele>
        <time>2020-07-03T17:49:24.000Z</time>
      </trkpt>
      <trkpt lat="33.633264" lon="-115.735024">
        <ele>556.398438</ele>
        <time>2020-07-03T17:49:27.000Z</time>
      </trkpt>
      <trkpt lat="33.633171" lon="-115.734901">
        <ele>556.199219</ele>
        <time>2020-07-03T17:49:30.000Z</time>
      </trkpt>
      <trkpt lat="33.63315" lon="-115.734875">
        <ele>555.796875</ele>
        <time>2020-07-03T17:49:33.000Z</time>
      </trkpt>
      <trkpt lat="33.63308" lon="-115.734768">
        <ele>556.597656</ele>
        <time>2020-07-03T17:49:35.000Z</time>
      </trkpt>
      <trkpt lat="33.63306" lon="-115.734741">
        <ele>556.597656</ele>
        <time>2020-07-03T17:49:37.000Z</time>
      </trkpt>
      <trkpt lat="33.633021" lon="-115.73467">
        <ele>556.398438</ele>
        <time>2020-07-03T17:49:38.000Z</time>
      </trkpt>
      <trkpt lat="33.631804" lon="-115.732466">
        <ele>560.296875</ele>
        <time>2020-07-03T17:50:21.000Z</time>
      </trkpt>
      <trkpt lat="33.631028" lon="-115.731223">
        <ele>563.199219</ele>
        <time>2020-07-03T17:50:46.000Z</time>
      </trkpt>
      <trkpt lat="33.631015" lon="-115.731194">
        <ele>562.699219</ele>
        <time>2020-07-03T17:50:50.000Z</time>
      </trkpt>
      <trkpt lat="33.630967" lon="-115.731074">
        <ele>563.000000</ele>
        <time>2020-07-03T17:50:53.000Z</time>
      </trkpt>
      <trkpt lat="33.630952" lon="-115.731047">
        <ele>563.097656</ele>
        <time>2020-07-03T17:50:55.000Z</time>
      </trkpt>
      <trkpt lat="33.630849" lon="-115.730873">
        <ele>563.597656</ele>
        <time>2020-07-03T17:50:59.000Z</time>
      </trkpt>
      <trkpt lat="33.630565" lon="-115.730461">
        <ele>564.796875</ele>
        <time>2020-07-03T17:51:09.000Z</time>
      </trkpt>
      <trkpt lat="33.630316" lon="-115.730165">
        <ele>565.597656</ele>
        <time>2020-07-03T17:51:16.000Z</time>
      </trkpt>
      <trkpt lat="33.62852" lon="-115.728213">
        <ele>570.296875</ele>
        <time>2020-07-03T17:51:57.000Z</time>
      </trkpt>
      <trkpt lat="33.628422" lon="-115.728126">
        <ele>570.597656</ele>
        <time>2020-07-03T17:51:59.000Z</time>
      </trkpt>
      <trkpt lat="33.62627" lon="-115.726343">
        <ele>578.796875</ele>
        <time>2020-07-03T17:52:44.000Z</time>
      </trkpt>
      <trkpt lat="33.625436" lon="-115.725696">
        <ele>581.097656</ele>
        <time>2020-07-03T17:53:03.000Z</time>
      </trkpt>
      <trkpt lat="33.625332" lon="-115.725581">
        <ele>581.699219</ele>
        <time>2020-07-03T17:53:06.000Z</time>
      </trkpt>
      <trkpt lat="33.625303" lon="-115.725543">
        <ele>582.097656</ele>
        <time>2020-07-03T17:53:08.000Z</time>
      </trkpt>
      <trkpt lat="33.625248" lon="-115.725463">
        <ele>582.097656</ele>
        <time>2020-07-03T17:53:09.000Z</time>
      </trkpt>
      <trkpt lat="33.625224" lon="-115.725419">
        <ele>582.097656</ele>
        <time>2020-07-03T17:53:11.000Z</time>
      </trkpt>
      <trkpt lat="33.625113" lon="-115.725213">
        <ele>582.000000</ele>
        <time>2020-07-03T17:53:16.000Z</time>
      </trkpt>
      <trkpt lat="33.62492" lon="-115.724858">
        <ele>581.597656</ele>
        <time>2020-07-03T17:53:25.000Z</time>
      </trkpt>
      <trkpt lat="33.624655" lon="-115.72434">
        <ele>583.199219</ele>
        <time>2020-07-03T17:53:38.000Z</time>
      </trkpt>
      <trkpt lat="33.624641" lon="-115.724305">
        <ele>583.296875</ele>
        <time>2020-07-03T17:53:40.000Z</time>
      </trkpt>
      <trkpt lat="33.624393" lon="-115.723734">
        <ele>584.097656</ele>
        <time>2020-07-03T17:54:00.000Z</time>
      </trkpt>
      <trkpt lat="33.624296" lon="-115.723545">
        <ele>584.500000</ele>
        <time>2020-07-03T17:54:06.000Z</time>
      </trkpt>
      <trkpt lat="33.624197" lon="-115.723337">
        <ele>584.898438</ele>
        <time>2020-07-03T17:54:12.000Z</time>
      </trkpt>
      <trkpt lat="33.624128" lon="-115.723204">
        <ele>585.597656</ele>
        <time>2020-07-03T17:54:16.000Z</time>
      </trkpt>
      <trkpt lat="33.624076" lon="-115.723109">
        <ele>585.597656</ele>
        <time>2020-07-03T17:54:19.000Z</time>
      </trkpt>
      <trkpt lat="33.624013" lon="-115.722997">
        <ele>585.898438</ele>
        <time>2020-07-03T17:54:23.000Z</time>
      </trkpt>
      <trkpt lat="33.623999" lon="-115.722963">
        <ele>586.000000</ele>
        <time>2020-07-03T17:54:25.000Z</time>
      </trkpt>
      <trkpt lat="33.623709" lon="-115.722243">
        <ele>587.796875</ele>
        <time>2020-07-03T17:54:43.000Z</time>
      </trkpt>
      <trkpt lat="33.623385" lon="-115.7214">
        <ele>588.398438</ele>
        <time>2020-07-03T17:55:06.000Z</time>
      </trkpt>
      <trkpt lat="33.623076" lon="-115.720617">
        <ele>590.500000</ele>
        <time>2020-07-03T17:55:27.000Z</time>
      </trkpt>
      <trkpt lat="33.623025" lon="-115.720466">
        <ele>590.296875</ele>
        <time>2020-07-03T17:55:31.000Z</time>
      </trkpt>
      <trkpt lat="33.622704" lon="-115.719664">
        <ele>590.296875</ele>
        <time>2020-07-03T17:55:54.000Z</time>
      </trkpt>
      <trkpt lat="33.622696" lon="-115.719635">
        <ele>589.898438</ele>
        <time>2020-07-03T17:55:57.000Z</time>
      </trkpt>
      <trkpt lat="33.62263" lon="-115.719432">
        <ele>589.597656</ele>
        <time>2020-07-03T17:56:01.000Z</time>
      </trkpt>
      <trkpt lat="33.622551" lon="-115.719176">
        <ele>589.296875</ele>
        <time>2020-07-03T17:56:07.000Z</time>
      </trkpt>
      <trkpt lat="33.622365" lon="-115.718382">
        <ele>588.699219</ele>
        <time>2020-07-03T17:56:25.000Z</time>
      </trkpt>
      <trkpt lat="33.622305" lon="-115.718126">
        <ele>588.898438</ele>
        <time>2020-07-03T17:56:32.000Z</time>
      </trkpt>
      <trkpt lat="33.622125" lon="-115.717522">
        <ele>588.699219</ele>
        <time>2020-07-03T17:56:47.000Z</time>
      </trkpt>
      <trkpt lat="33.621957" lon="-115.717098">
        <ele>589.000000</ele>
        <time>2020-07-03T17:57:00.000Z</time>
      </trkpt>
      <trkpt lat="33.621714" lon="-115.716331">
        <ele>588.796875</ele>
        <time>2020-07-03T17:57:21.000Z</time>
      </trkpt>
      <trkpt lat="33.621704" lon="-115.716293">
        <ele>588.699219</ele>
        <time>2020-07-03T17:57:23.000Z</time>
      </trkpt>
      <trkpt lat="33.621666" lon="-115.716116">
        <ele>588.398438</ele>
        <time>2020-07-03T17:57:27.000Z</time>
      </trkpt>
      <trkpt lat="33.621595" lon="-115.715746">
        <ele>589.500000</ele>
        <time>2020-07-03T17:57:36.000Z</time>
      </trkpt>
      <trkpt lat="33.621516" lon="-115.71543">
        <ele>588.796875</ele>
        <time>2020-07-03T17:57:43.000Z</time>
      </trkpt>
      <trkpt lat="33.621475" lon="-115.715187">
        <ele>588.699219</ele>
        <time>2020-07-03T17:57:48.000Z</time>
      </trkpt>
      <trkpt lat="33.621452" lon="-115.715042">
        <ele>588.796875</ele>
        <time>2020-07-03T17:57:51.000Z</time>
      </trkpt>
      <trkpt lat="33.621441" lon="-115.714998">
        <ele>588.796875</ele>
        <time>2020-07-03T17:57:53.000Z</time>
      </trkpt>
      <trkpt lat="33.62139" lon="-115.71483">
        <ele>589.296875</ele>
        <time>2020-07-03T17:57:56.000Z</time>
      </trkpt>
      <trkpt lat="33.621335" lon="-115.71469">
        <ele>589.898438</ele>
        <time>2020-07-03T17:57:59.000Z</time>
      </trkpt>
      <trkpt lat="33.621165" lon="-115.714257">
        <ele>588.898438</ele>
        <time>2020-07-03T17:58:12.000Z</time>
      </trkpt>
      <trkpt lat="33.621051" lon="-115.713934">
        <ele>591.199219</ele>
        <time>2020-07-03T17:58:19.000Z</time>
      </trkpt>
      <trkpt lat="33.621037" lon="-115.713882">
        <ele>591.597656</ele>
        <time>2020-07-03T17:58:21.000Z</time>
      </trkpt>
      <trkpt lat="33.621021" lon="-115.713772">
        <ele>591.699219</ele>
        <time>2020-07-03T17:58:22.000Z</time>
      </trkpt>
      <trkpt lat="33.621019" lon="-115.713712">
        <ele>591.597656</ele>
        <time>2020-07-03T17:58:23.000Z</time>
      </trkpt>
      <trkpt lat="33.621021" lon="-115.713649">
        <ele>591.296875</ele>
        <time>2020-07-03T17:58:24.000Z</time>
      </trkpt>
      <trkpt lat="33.621036" lon="-115.713468">
        <ele>590.699219</ele>
        <time>2020-07-03T17:58:27.000Z</time>
      </trkpt>
      <trkpt lat="33.621094" lon="-115.713058">
        <ele>589.699219</ele>
        <time>2020-07-03T17:58:37.000Z</time>
      </trkpt>
      <trkpt lat="33.621228" lon="-115.712176">
        <ele>588.500000</ele>
        <time>2020-07-03T17:58:53.000Z</time>
      </trkpt>
      <trkpt lat="33.621272" lon="-115.711859">
        <ele>587.597656</ele>
        <time>2020-07-03T17:59:03.000Z</time>
      </trkpt>
      <trkpt lat="33.621301" lon="-115.71172">
        <ele>586.597656</ele>
        <time>2020-07-03T17:59:07.000Z</time>
      </trkpt>
      <trkpt lat="33.621315" lon="-115.711686">
        <ele>586.199219</ele>
        <time>2020-07-03T17:59:10.000Z</time>
      </trkpt>
      <trkpt lat="33.621369" lon="-115.711562">
        <ele>586.199219</ele>
        <time>2020-07-03T17:59:12.000Z</time>
      </trkpt>
      <trkpt lat="33.621378" lon="-115.711522">
        <ele>586.097656</ele>
        <time>2020-07-03T17:59:14.000Z</time>
      </trkpt>
      <trkpt lat="33.621394" lon="-115.711433">
        <ele>586.199219</ele>
        <time>2020-07-03T17:59:15.000Z</time>
      </trkpt>
      <trkpt lat="33.621409" lon="-115.711296">
        <ele>586.097656</ele>
        <time>2020-07-03T17:59:18.000Z</time>
      </trkpt>
      <trkpt lat="33.62142" lon="-115.711258">
        <ele>586.000000</ele>
        <time>2020-07-03T17:59:20.000Z</time>
      </trkpt>
      <trkpt lat="33.621437" lon="-115.711181">
        <ele>586.000000</ele>
        <time>2020-07-03T17:59:21.000Z</time>
      </trkpt>
      <trkpt lat="33.621458" lon="-115.711039">
        <ele>586.699219</ele>
        <time>2020-07-03T17:59:24.000Z</time>
      </trkpt>
      <trkpt lat="33.62369" lon="-115.696909">
        <ele>628.097656</ele>
        <time>2020-07-03T18:02:34.000Z</time>
      </trkpt>
      <trkpt lat="33.624136" lon="-115.694977">
        <ele>632.296875</ele>
        <time>2020-07-03T18:03:07.000Z</time>
      </trkpt>
      <trkpt lat="33.624142" lon="-115.694931">
        <ele>632.199219</ele>
        <time>2020-07-03T18:03:09.000Z</time>
      </trkpt>
      <trkpt lat="33.624162" lon="-115.69484">
        <ele>632.097656</ele>
        <time>2020-07-03T18:03:10.000Z</time>
      </trkpt>
      <trkpt lat="33.624174" lon="-115.694798">
        <ele>632.000000</ele>
        <time>2020-07-03T18:03:12.000Z</time>
      </trkpt>
      <trkpt lat="33.624198" lon="-115.694681">
        <ele>632.000000</ele>
        <time>2020-07-03T18:03:14.000Z</time>
      </trkpt>
      <trkpt lat="33.624296" lon="-115.694193">
        <ele>632.199219</ele>
        <time>2020-07-03T18:03:29.000Z</time>
      </trkpt>
      <trkpt lat="33.624298" lon="-115.694152">
        <ele>631.597656</ele>
        <time>2020-07-03T18:03:31.000Z</time>
      </trkpt>
      <trkpt lat="33.624316" lon="-115.69408">
        <ele>631.296875</ele>
        <time>2020-07-03T18:03:32.000Z</time>
      </trkpt>
      <trkpt lat="33.624328" lon="-115.694049">
        <ele>631.500000</ele>
        <time>2020-07-03T18:03:35.000Z</time>
      </trkpt>
      <trkpt lat="33.624379" lon="-115.693927">
        <ele>630.898438</ele>
        <time>2020-07-03T18:03:38.000Z</time>
      </trkpt>
      <trkpt lat="33.624381" lon="-115.693903">
        <ele>631.000000</ele>
        <time>2020-07-03T18:03:42.000Z</time>
      </trkpt>
      <trkpt lat="33.624387" lon="-115.693807">
        <ele>630.796875</ele>
        <time>2020-07-03T18:03:43.000Z</time>
      </trkpt>
      <trkpt lat="33.624385" lon="-115.693779">
        <ele>629.898438</ele>
        <time>2020-07-03T18:03:46.000Z</time>
      </trkpt>
      <trkpt lat="33.624401" lon="-115.693697">
        <ele>629.296875</ele>
        <time>2020-07-03T18:03:47.000Z</time>
      </trkpt>
      <trkpt lat="33.624412" lon="-115.693665">
        <ele>628.597656</ele>
        <time>2020-07-03T18:03:49.000Z</time>
      </trkpt>
      <trkpt lat="33.624564" lon="-115.693227">
        <ele>629.097656</ele>
        <time>2020-07-03T18:04:00.000Z</time>
      </trkpt>
      <trkpt lat="33.624591" lon="-115.693121">
        <ele>629.199219</ele>
        <time>2020-07-03T18:04:03.000Z</time>
      </trkpt>
      <trkpt lat="33.624605" lon="-115.693088">
        <ele>629.398438</ele>
        <time>2020-07-03T18:04:05.000Z</time>
      </trkpt>
      <trkpt lat="33.624687" lon="-115.692872">
        <ele>629.296875</ele>
        <time>2020-07-03T18:04:10.000Z</time>
      </trkpt>
      <trkpt lat="33.624708" lon="-115.692839">
        <ele>629.398438</ele>
        <time>2020-07-03T18:04:12.000Z</time>
      </trkpt>
      <trkpt lat="33.624747" lon="-115.69276">
        <ele>629.699219</ele>
        <time>2020-07-03T18:04:13.000Z</time>
      </trkpt>
      <trkpt lat="33.624798" lon="-115.692645">
        <ele>630.296875</ele>
        <time>2020-07-03T18:04:16.000Z</time>
      </trkpt>
      <trkpt lat="33.62482" lon="-115.692608">
        <ele>630.296875</ele>
        <time>2020-07-03T18:04:18.000Z</time>
      </trkpt>
      <trkpt lat="33.624889" lon="-115.692509">
        <ele>630.796875</ele>
        <time>2020-07-03T18:04:20.000Z</time>
      </trkpt>
      <trkpt lat="33.624905" lon="-115.692478">
        <ele>630.796875</ele>
        <time>2020-07-03T18:04:23.000Z</time>
      </trkpt>
      <trkpt lat="33.624931" lon="-115.692378">
        <ele>630.699219</ele>
        <time>2020-07-03T18:04:24.000Z</time>
      </trkpt>
      <trkpt lat="33.624935" lon="-115.692344">
        <ele>630.000000</ele>
        <time>2020-07-03T18:04:27.000Z</time>
      </trkpt>
      <trkpt lat="33.624946" lon="-115.692236">
        <ele>630.000000</ele>
        <time>2020-07-03T18:04:28.000Z</time>
      </trkpt>
      <trkpt lat="33.624963" lon="-115.692204">
        <ele>630.597656</ele>
        <time>2020-07-03T18:04:30.000Z</time>
      </trkpt>
      <trkpt lat="33.625019" lon="-115.692146">
        <ele>630.500000</ele>
        <time>2020-07-03T18:04:31.000Z</time>
      </trkpt>
      <trkpt lat="33.625144" lon="-115.692027">
        <ele>630.500000</ele>
        <time>2020-07-03T18:04:35.000Z</time>
      </trkpt>
      <trkpt lat="33.625169" lon="-115.691991">
        <ele>630.699219</ele>
        <time>2020-07-03T18:04:37.000Z</time>
      </trkpt>
      <trkpt lat="33.625205" lon="-115.691911">
        <ele>630.699219</ele>
        <time>2020-07-03T18:04:38.000Z</time>
      </trkpt>
      <trkpt lat="33.625217" lon="-115.691868">
        <ele>630.796875</ele>
        <time>2020-07-03T18:04:40.000Z</time>
      </trkpt>
      <trkpt lat="33.625234" lon="-115.691782">
        <ele>630.796875</ele>
        <time>2020-07-03T18:04:41.000Z</time>
      </trkpt>
      <trkpt lat="33.625237" lon="-115.691739">
        <ele>631.097656</ele>
        <time>2020-07-03T18:04:43.000Z</time>
      </trkpt>
      <trkpt lat="33.625236" lon="-115.691649">
        <ele>631.097656</ele>
        <time>2020-07-03T18:04:44.000Z</time>
      </trkpt>
      <trkpt lat="33.625233" lon="-115.691603">
        <ele>631.597656</ele>
        <time>2020-07-03T18:04:46.000Z</time>
      </trkpt>
      <trkpt lat="33.625218" lon="-115.691509">
        <ele>631.699219</ele>
        <time>2020-07-03T18:04:47.000Z</time>
      </trkpt>
      <trkpt lat="33.625205" lon="-115.691462">
        <ele>631.796875</ele>
        <time>2020-07-03T18:04:49.000Z</time>
      </trkpt>
      <trkpt lat="33.625168" lon="-115.691374">
        <ele>631.699219</ele>
        <time>2020-07-03T18:04:50.000Z</time>
      </trkpt>
      <trkpt lat="33.625144" lon="-115.691335">
        <ele>631.796875</ele>
        <time>2020-07-03T18:04:52.000Z</time>
      </trkpt>
      <trkpt lat="33.62509" lon="-115.69127">
        <ele>632.000000</ele>
        <time>2020-07-03T18:04:53.000Z</time>
      </trkpt>
      <trkpt lat="33.625064" lon="-115.691246">
        <ele>632.296875</ele>
        <time>2020-07-03T18:04:55.000Z</time>
      </trkpt>
      <trkpt lat="33.625018" lon="-115.691204">
        <ele>632.699219</ele>
        <time>2020-07-03T18:04:57.000Z</time>
      </trkpt>
      <trkpt lat="33.624981" lon="-115.691162">
        <ele>632.699219</ele>
        <time>2020-07-03T18:04:59.000Z</time>
      </trkpt>
      <trkpt lat="33.624934" lon="-115.691129">
        <ele>632.500000</ele>
        <time>2020-07-03T18:05:01.000Z</time>
      </trkpt>
      <trkpt lat="33.624873" lon="-115.691113">
        <ele>633.000000</ele>
        <time>2020-07-03T18:05:02.000Z</time>
      </trkpt>
      <trkpt lat="33.624842" lon="-115.691102">
        <ele>633.199219</ele>
        <time>2020-07-03T18:05:04.000Z</time>
      </trkpt>
      <trkpt lat="33.624785" lon="-115.691057">
        <ele>633.296875</ele>
        <time>2020-07-03T18:05:05.000Z</time>
      </trkpt>
      <trkpt lat="33.624765" lon="-115.691023">
        <ele>633.597656</ele>
        <time>2020-07-03T18:05:07.000Z</time>
      </trkpt>
      <trkpt lat="33.624727" lon="-115.690941">
        <ele>633.597656</ele>
        <time>2020-07-03T18:05:08.000Z</time>
      </trkpt>
      <trkpt lat="33.624711" lon="-115.690897">
        <ele>633.898438</ele>
        <time>2020-07-03T18:05:10.000Z</time>
      </trkpt>
      <trkpt lat="33.624691" lon="-115.690801">
        <ele>634.398438</ele>
        <time>2020-07-03T18:05:11.000Z</time>
      </trkpt>
      <trkpt lat="33.62457" lon="-115.690169">
        <ele>635.500000</ele>
        <time>2020-07-03T18:05:24.000Z</time>
      </trkpt>
      <trkpt lat="33.624565" lon="-115.690119">
        <ele>636.199219</ele>
        <time>2020-07-03T18:05:26.000Z</time>
      </trkpt>
      <trkpt lat="33.624568" lon="-115.690021">
        <ele>636.000000</ele>
        <time>2020-07-03T18:05:27.000Z</time>
      </trkpt>
      <trkpt lat="33.624581" lon="-115.689829">
        <ele>636.296875</ele>
        <time>2020-07-03T18:05:31.000Z</time>
      </trkpt>
      <trkpt lat="33.624603" lon="-115.689617">
        <ele>637.199219</ele>
        <time>2020-07-03T18:05:35.000Z</time>
      </trkpt>
      <trkpt lat="33.624594" lon="-115.689404">
        <ele>638.296875</ele>
        <time>2020-07-03T18:05:39.000Z</time>
      </trkpt>
      <trkpt lat="33.624599" lon="-115.689352">
        <ele>638.398438</ele>
        <time>2020-07-03T18:05:41.000Z</time>
      </trkpt>
      <trkpt lat="33.624612" lon="-115.689247">
        <ele>638.398438</ele>
        <time>2020-07-03T18:05:42.000Z</time>
      </trkpt>
      <trkpt lat="33.624624" lon="-115.689194">
        <ele>638.296875</ele>
        <time>2020-07-03T18:05:43.000Z</time>
      </trkpt>
      <trkpt lat="33.624639" lon="-115.689141">
        <ele>638.097656</ele>
        <time>2020-07-03T18:05:44.000Z</time>
      </trkpt>
      <trkpt lat="33.624657" lon="-115.689088">
        <ele>638.296875</ele>
        <time>2020-07-03T18:05:45.000Z</time>
      </trkpt>
      <trkpt lat="33.624706" lon="-115.68894">
        <ele>638.000000</ele>
        <time>2020-07-03T18:05:48.000Z</time>
      </trkpt>
      <trkpt lat="33.624717" lon="-115.688887">
        <ele>638.097656</ele>
        <time>2020-07-03T18:05:49.000Z</time>
      </trkpt>
      <trkpt lat="33.624723" lon="-115.688831">
        <ele>637.898438</ele>
        <time>2020-07-03T18:05:50.000Z</time>
      </trkpt>
      <trkpt lat="33.624727" lon="-115.688777">
        <ele>638.097656</ele>
        <time>2020-07-03T18:05:51.000Z</time>
      </trkpt>
      <trkpt lat="33.624726" lon="-115.688718">
        <ele>638.199219</ele>
        <time>2020-07-03T18:05:52.000Z</time>
      </trkpt>
      <trkpt lat="33.624719" lon="-115.688657">
        <ele>638.296875</ele>
        <time>2020-07-03T18:05:53.000Z</time>
      </trkpt>
      <trkpt lat="33.624664" lon="-115.688233">
        <ele>639.097656</ele>
        <time>2020-07-03T18:05:59.000Z</time>
      </trkpt>
      <trkpt lat="33.624645" lon="-115.688158">
        <ele>639.199219</ele>
        <time>2020-07-03T18:06:00.000Z</time>
      </trkpt>
      <trkpt lat="33.624622" lon="-115.688082">
        <ele>639.500000</ele>
        <time>2020-07-03T18:06:01.000Z</time>
      </trkpt>
      <trkpt lat="33.624596" lon="-115.688007">
        <ele>639.699219</ele>
        <time>2020-07-03T18:06:02.000Z</time>
      </trkpt>
      <trkpt lat="33.624564" lon="-115.687931">
        <ele>639.898438</ele>
        <time>2020-07-03T18:06:03.000Z</time>
      </trkpt>
      <trkpt lat="33.624364" lon="-115.68747">
        <ele>640.898438</ele>
        <time>2020-07-03T18:06:09.000Z</time>
      </trkpt>
      <trkpt lat="33.624253" lon="-115.687149">
        <ele>641.398438</ele>
        <time>2020-07-03T18:06:13.000Z</time>
      </trkpt>
      <trkpt lat="33.624216" lon="-115.687072">
        <ele>641.296875</ele>
        <time>2020-07-03T18:06:14.000Z</time>
      </trkpt>
      <trkpt lat="33.624176" lon="-115.686995">
        <ele>641.199219</ele>
        <time>2020-07-03T18:06:15.000Z</time>
      </trkpt>
      <trkpt lat="33.624132" lon="-115.686922">
        <ele>640.796875</ele>
        <time>2020-07-03T18:06:16.000Z</time>
      </trkpt>
      <trkpt lat="33.624085" lon="-115.686852">
        <ele>640.898438</ele>
        <time>2020-07-03T18:06:17.000Z</time>
      </trkpt>
      <trkpt lat="33.624033" lon="-115.686785">
        <ele>641.000000</ele>
        <time>2020-07-03T18:06:18.000Z</time>
      </trkpt>
      <trkpt lat="33.623813" lon="-115.686533">
        <ele>641.597656</ele>
        <time>2020-07-03T18:06:22.000Z</time>
      </trkpt>
      <trkpt lat="33.623421" lon="-115.686117">
        <ele>642.597656</ele>
        <time>2020-07-03T18:06:30.000Z</time>
      </trkpt>
      <trkpt lat="33.623364" lon="-115.686031">
        <ele>642.796875</ele>
        <time>2020-07-03T18:06:32.000Z</time>
      </trkpt>
      <trkpt lat="33.623344" lon="-115.685987">
        <ele>643.199219</ele>
        <time>2020-07-03T18:06:34.000Z</time>
      </trkpt>
      <trkpt lat="33.623318" lon="-115.685885">
        <ele>643.500000</ele>
        <time>2020-07-03T18:06:35.000Z</time>
      </trkpt>
      <trkpt lat="33.623314" lon="-115.685829">
        <ele>643.796875</ele>
        <time>2020-07-03T18:06:36.000Z</time>
      </trkpt>
      <trkpt lat="33.62332" lon="-115.685772">
        <ele>643.898438</ele>
        <time>2020-07-03T18:06:37.000Z</time>
      </trkpt>
      <trkpt lat="33.623334" lon="-115.685713">
        <ele>643.699219</ele>
        <time>2020-07-03T18:06:38.000Z</time>
      </trkpt>
      <trkpt lat="33.623357" lon="-115.685652">
        <ele>643.500000</ele>
        <time>2020-07-03T18:06:39.000Z</time>
      </trkpt>
      <trkpt lat="33.623379" lon="-115.685585">
        <ele>643.398438</ele>
        <time>2020-07-03T18:06:40.000Z</time>
      </trkpt>
      <trkpt lat="33.623394" lon="-115.685513">
        <ele>643.398438</ele>
        <time>2020-07-03T18:06:41.000Z</time>
      </trkpt>
      <trkpt lat="33.623404" lon="-115.685436">
        <ele>643.699219</ele>
        <time>2020-07-03T18:06:42.000Z</time>
      </trkpt>
      <trkpt lat="33.623462" lon="-115.684963">
        <ele>644.898438</ele>
        <time>2020-07-03T18:06:48.000Z</time>
      </trkpt>
      <trkpt lat="33.6235" lon="-115.684825">
        <ele>644.898438</ele>
        <time>2020-07-03T18:06:50.000Z</time>
      </trkpt>
      <trkpt lat="33.623521" lon="-115.684768">
        <ele>644.398438</ele>
        <time>2020-07-03T18:06:51.000Z</time>
      </trkpt>
      <trkpt lat="33.623545" lon="-115.684721">
        <ele>644.296875</ele>
        <time>2020-07-03T18:06:53.000Z</time>
      </trkpt>
      <trkpt lat="33.623607" lon="-115.684595">
        <ele>644.597656</ele>
        <time>2020-07-03T18:06:56.000Z</time>
      </trkpt>
      <trkpt lat="33.623615" lon="-115.684559">
        <ele>644.597656</ele>
        <time>2020-07-03T18:06:58.000Z</time>
      </trkpt>
      <trkpt lat="33.62363" lon="-115.684483">
        <ele>644.699219</ele>
        <time>2020-07-03T18:06:59.000Z</time>
      </trkpt>
      <trkpt lat="33.623668" lon="-115.684241">
        <ele>647.097656</ele>
        <time>2020-07-03T18:07:06.000Z</time>
      </trkpt>
      <trkpt lat="33.623675" lon="-115.684208">
        <ele>647.796875</ele>
        <time>2020-07-03T18:07:09.000Z</time>
      </trkpt>
      <trkpt lat="33.623685" lon="-115.6841">
        <ele>648.000000</ele>
        <time>2020-07-03T18:07:10.000Z</time>
      </trkpt>
      <trkpt lat="33.623699" lon="-115.683942">
        <ele>649.296875</ele>
        <time>2020-07-03T18:07:14.000Z</time>
      </trkpt>
      <trkpt lat="33.62373" lon="-115.683769">
        <ele>649.699219</ele>
        <time>2020-07-03T18:07:18.000Z</time>
      </trkpt>
      <trkpt lat="33.62373" lon="-115.683733">
        <ele>649.398438</ele>
        <time>2020-07-03T18:07:21.000Z</time>
      </trkpt>
      <trkpt lat="33.62372" lon="-115.683639">
        <ele>648.597656</ele>
        <time>2020-07-03T18:07:22.000Z</time>
      </trkpt>
      <trkpt lat="33.62371" lon="-115.683606">
        <ele>648.097656</ele>
        <time>2020-07-03T18:07:24.000Z</time>
      </trkpt>
      <trkpt lat="33.623684" lon="-115.683536">
        <ele>648.199219</ele>
        <time>2020-07-03T18:07:25.000Z</time>
      </trkpt>
      <trkpt lat="33.623633" lon="-115.683415">
        <ele>649.796875</ele>
        <time>2020-07-03T18:07:29.000Z</time>
      </trkpt>
      <trkpt lat="33.623627" lon="-115.68339">
        <ele>648.699219</ele>
        <time>2020-07-03T18:07:33.000Z</time>
      </trkpt>
      <trkpt lat="33.623598" lon="-115.683287">
        <ele>648.597656</ele>
        <time>2020-07-03T18:07:34.000Z</time>
      </trkpt>
      <trkpt lat="33.623587" lon="-115.683254">
        <ele>649.296875</ele>
        <time>2020-07-03T18:07:36.000Z</time>
      </trkpt>
      <trkpt lat="33.623535" lon="-115.683068">
        <ele>650.000000</ele>
        <time>2020-07-03T18:07:41.000Z</time>
      </trkpt>
      <trkpt lat="33.623523" lon="-115.683047">
        <ele>649.199219</ele>
        <time>2020-07-03T18:07:45.000Z</time>
      </trkpt>
      <trkpt lat="33.623467" lon="-115.682969">
        <ele>648.796875</ele>
        <time>2020-07-03T18:07:46.000Z</time>
      </trkpt>
      <trkpt lat="33.623447" lon="-115.68295">
        <ele>648.898438</ele>
        <time>2020-07-03T18:07:50.000Z</time>
      </trkpt>
      <trkpt lat="33.623384" lon="-115.682886">
        <ele>649.199219</ele>
        <time>2020-07-03T18:07:51.000Z</time>
      </trkpt>
      <trkpt lat="33.623367" lon="-115.682866">
        <ele>651.000000</ele>
        <time>2020-07-03T18:07:55.000Z</time>
      </trkpt>
      <trkpt lat="33.623311" lon="-115.682782">
        <ele>650.898438</ele>
        <time>2020-07-03T18:07:56.000Z</time>
      </trkpt>
      <trkpt lat="33.623297" lon="-115.682758">
        <ele>651.398438</ele>
        <time>2020-07-03T18:07:59.000Z</time>
      </trkpt>
      <trkpt lat="33.623205" lon="-115.682562">
        <ele>651.000000</ele>
        <time>2020-07-03T18:08:03.000Z</time>
      </trkpt>
      <trkpt lat="33.623181" lon="-115.682528">
        <ele>651.199219</ele>
        <time>2020-07-03T18:08:05.000Z</time>
      </trkpt>
      <trkpt lat="33.623125" lon="-115.682454">
        <ele>651.097656</ele>
        <time>2020-07-03T18:08:06.000Z</time>
      </trkpt>
      <trkpt lat="33.623093" lon="-115.682418">
        <ele>651.199219</ele>
        <time>2020-07-03T18:08:08.000Z</time>
      </trkpt>
      <trkpt lat="33.62276" lon="-115.682106">
        <ele>651.898438</ele>
        <time>2020-07-03T18:08:16.000Z</time>
      </trkpt>
      <trkpt lat="33.622716" lon="-115.682071">
        <ele>651.597656</ele>
        <time>2020-07-03T18:08:17.000Z</time>
      </trkpt>
      <trkpt lat="33.622666" lon="-115.682039">
        <ele>651.398438</ele>
        <time>2020-07-03T18:08:18.000Z</time>
      </trkpt>
      <trkpt lat="33.622611" lon="-115.682012">
        <ele>651.097656</ele>
        <time>2020-07-03T18:08:19.000Z</time>
      </trkpt>
      <trkpt lat="33.622553" lon="-115.68199">
        <ele>650.898438</ele>
        <time>2020-07-03T18:08:20.000Z</time>
      </trkpt>
      <trkpt lat="33.622494" lon="-115.68198">
        <ele>651.296875</ele>
        <time>2020-07-03T18:08:21.000Z</time>
      </trkpt>
      <trkpt lat="33.622435" lon="-115.681985">
        <ele>651.398438</ele>
        <time>2020-07-03T18:08:22.000Z</time>
      </trkpt>
      <trkpt lat="33.622377" lon="-115.682003">
        <ele>651.796875</ele>
        <time>2020-07-03T18:08:23.000Z</time>
      </trkpt>
      <trkpt lat="33.62232" lon="-115.682028">
        <ele>652.296875</ele>
        <time>2020-07-03T18:08:24.000Z</time>
      </trkpt>
      <trkpt lat="33.622266" lon="-115.68206">
        <ele>652.796875</ele>
        <time>2020-07-03T18:08:25.000Z</time>
      </trkpt>
      <trkpt lat="33.622159" lon="-115.682123">
        <ele>653.597656</ele>
        <time>2020-07-03T18:08:27.000Z</time>
      </trkpt>
      <trkpt lat="33.622102" lon="-115.682146">
        <ele>653.898438</ele>
        <time>2020-07-03T18:08:28.000Z</time>
      </trkpt>
      <trkpt lat="33.622041" lon="-115.682162">
        <ele>654.199219</ele>
        <time>2020-07-03T18:08:29.000Z</time>
      </trkpt>
      <trkpt lat="33.62198" lon="-115.682173">
        <ele>654.699219</ele>
        <time>2020-07-03T18:08:30.000Z</time>
      </trkpt>
      <trkpt lat="33.62192" lon="-115.682175">
        <ele>655.199219</ele>
        <time>2020-07-03T18:08:31.000Z</time>
      </trkpt>
      <trkpt lat="33.621805" lon="-115.682185">
        <ele>656.000000</ele>
        <time>2020-07-03T18:08:33.000Z</time>
      </trkpt>
      <trkpt lat="33.621748" lon="-115.682198">
        <ele>656.398438</ele>
        <time>2020-07-03T18:08:34.000Z</time>
      </trkpt>
      <trkpt lat="33.62157" lon="-115.682245">
        <ele>656.597656</ele>
        <time>2020-07-03T18:08:38.000Z</time>
      </trkpt>
      <trkpt lat="33.621546" lon="-115.682245">
        <ele>658.699219</ele>
        <time>2020-07-03T18:08:42.000Z</time>
      </trkpt>
      <trkpt lat="33.621474" lon="-115.682204">
        <ele>659.097656</ele>
        <time>2020-07-03T18:08:43.000Z</time>
      </trkpt>
      <trkpt lat="33.621456" lon="-115.682188">
        <ele>659.699219</ele>
        <time>2020-07-03T18:08:47.000Z</time>
      </trkpt>
      <trkpt lat="33.621411" lon="-115.682107">
        <ele>660.296875</ele>
        <time>2020-07-03T18:08:48.000Z</time>
      </trkpt>
      <trkpt lat="33.621407" lon="-115.682081">
        <ele>659.597656</ele>
        <time>2020-07-03T18:08:51.000Z</time>
      </trkpt>
      <trkpt lat="33.621384" lon="-115.681969">
        <ele>658.796875</ele>
        <time>2020-07-03T18:08:53.000Z</time>
      </trkpt>
      <trkpt lat="33.621374" lon="-115.68194">
        <ele>658.500000</ele>
        <time>2020-07-03T18:08:56.000Z</time>
      </trkpt>
      <trkpt lat="33.621344" lon="-115.68187">
        <ele>659.097656</ele>
        <time>2020-07-03T18:08:58.000Z</time>
      </trkpt>
      <trkpt lat="33.621321" lon="-115.681833">
        <ele>659.097656</ele>
        <time>2020-07-03T18:09:00.000Z</time>
      </trkpt>
      <trkpt lat="33.621282" lon="-115.681792">
        <ele>658.796875</ele>
        <time>2020-07-03T18:09:02.000Z</time>
      </trkpt>
      <trkpt lat="33.621239" lon="-115.681761">
        <ele>657.796875</ele>
        <time>2020-07-03T18:09:04.000Z</time>
      </trkpt>
      <trkpt lat="33.621195" lon="-115.681745">
        <ele>657.000000</ele>
        <time>2020-07-03T18:09:06.000Z</time>
      </trkpt>
      <trkpt lat="33.621137" lon="-115.681722">
        <ele>656.699219</ele>
        <time>2020-07-03T18:09:07.000Z</time>
      </trkpt>
      <trkpt lat="33.621106" lon="-115.681703">
        <ele>656.097656</ele>
        <time>2020-07-03T18:09:09.000Z</time>
      </trkpt>
      <trkpt lat="33.621055" lon="-115.681649">
        <ele>655.796875</ele>
        <time>2020-07-03T18:09:10.000Z</time>
      </trkpt>
      <trkpt lat="33.621038" lon="-115.681616">
        <ele>655.898438</ele>
        <time>2020-07-03T18:09:12.000Z</time>
      </trkpt>
      <trkpt lat="33.621023" lon="-115.681535">
        <ele>656.097656</ele>
        <time>2020-07-03T18:09:13.000Z</time>
      </trkpt>
      <trkpt lat="33.621022" lon="-115.681489">
        <ele>656.296875</ele>
        <time>2020-07-03T18:09:15.000Z</time>
      </trkpt>
      <trkpt lat="33.621022" lon="-115.681357">
        <ele>656.097656</ele>
        <time>2020-07-03T18:09:17.000Z</time>
      </trkpt>
      <trkpt lat="33.621025" lon="-115.68131">
        <ele>656.097656</ele>
        <time>2020-07-03T18:09:19.000Z</time>
      </trkpt>
      <trkpt lat="33.621039" lon="-115.681216">
        <ele>656.000000</ele>
        <time>2020-07-03T18:09:20.000Z</time>
      </trkpt>
      <trkpt lat="33.621093" lon="-115.680968">
        <ele>655.398438</ele>
        <time>2020-07-03T18:09:25.000Z</time>
      </trkpt>
      <trkpt lat="33.621204" lon="-115.680517">
        <ele>654.097656</ele>
        <time>2020-07-03T18:09:33.000Z</time>
      </trkpt>
      <trkpt lat="33.621212" lon="-115.680452">
        <ele>653.699219</ele>
        <time>2020-07-03T18:09:34.000Z</time>
      </trkpt>
      <trkpt lat="33.621215" lon="-115.680383">
        <ele>653.796875</ele>
        <time>2020-07-03T18:09:35.000Z</time>
      </trkpt>
      <trkpt lat="33.621212" lon="-115.680315">
        <ele>653.398438</ele>
        <time>2020-07-03T18:09:36.000Z</time>
      </trkpt>
      <trkpt lat="33.621202" lon="-115.680244">
        <ele>653.199219</ele>
        <time>2020-07-03T18:09:37.000Z</time>
      </trkpt>
      <trkpt lat="33.621186" lon="-115.680174">
        <ele>652.796875</ele>
        <time>2020-07-03T18:09:38.000Z</time>
      </trkpt>
      <trkpt lat="33.621166" lon="-115.680103">
        <ele>652.699219</ele>
        <time>2020-07-03T18:09:39.000Z</time>
      </trkpt>
      <trkpt lat="33.62114" lon="-115.680034">
        <ele>652.796875</ele>
        <time>2020-07-03T18:09:40.000Z</time>
      </trkpt>
      <trkpt lat="33.620985" lon="-115.679683">
        <ele>651.296875</ele>
        <time>2020-07-03T18:09:46.000Z</time>
      </trkpt>
      <trkpt lat="33.620894" lon="-115.679464">
        <ele>650.500000</ele>
        <time>2020-07-03T18:09:53.000Z</time>
      </trkpt>
      <trkpt lat="33.620862" lon="-115.679348">
        <ele>649.500000</ele>
        <time>2020-07-03T18:09:56.000Z</time>
      </trkpt>
      <trkpt lat="33.620853" lon="-115.679305">
        <ele>649.000000</ele>
        <time>2020-07-03T18:09:58.000Z</time>
      </trkpt>
      <trkpt lat="33.620803" lon="-115.678998">
        <ele>647.500000</ele>
        <time>2020-07-03T18:10:05.000Z</time>
      </trkpt>
      <trkpt lat="33.620794" lon="-115.678976">
        <ele>647.597656</ele>
        <time>2020-07-03T18:10:08.000Z</time>
      </trkpt>
      <trkpt lat="33.620716" lon="-115.678812">
        <ele>647.898438</ele>
        <time>2020-07-03T18:10:11.000Z</time>
      </trkpt>
      <trkpt lat="33.620705" lon="-115.678772">
        <ele>648.296875</ele>
        <time>2020-07-03T18:10:13.000Z</time>
      </trkpt>
      <trkpt lat="33.620696" lon="-115.678685">
        <ele>648.199219</ele>
        <time>2020-07-03T18:10:14.000Z</time>
      </trkpt>
      <trkpt lat="33.620699" lon="-115.678642">
        <ele>648.000000</ele>
        <time>2020-07-03T18:10:16.000Z</time>
      </trkpt>
      <trkpt lat="33.620717" lon="-115.678489">
        <ele>648.097656</ele>
        <time>2020-07-03T18:10:19.000Z</time>
      </trkpt>
      <trkpt lat="33.620716" lon="-115.678461">
        <ele>648.199219</ele>
        <time>2020-07-03T18:10:22.000Z</time>
      </trkpt>
      <trkpt lat="33.62068" lon="-115.67835">
        <ele>648.699219</ele>
        <time>2020-07-03T18:10:23.000Z</time>
      </trkpt>
      <trkpt lat="33.620663" lon="-115.67831">
        <ele>648.199219</ele>
        <time>2020-07-03T18:10:25.000Z</time>
      </trkpt>
      <trkpt lat="33.620625" lon="-115.678236">
        <ele>647.796875</ele>
        <time>2020-07-03T18:10:26.000Z</time>
      </trkpt>
      <trkpt lat="33.6206" lon="-115.678207">
        <ele>647.699219</ele>
        <time>2020-07-03T18:10:28.000Z</time>
      </trkpt>
      <trkpt lat="33.620472" lon="-115.678043">
        <ele>647.500000</ele>
        <time>2020-07-03T18:10:33.000Z</time>
      </trkpt>
      <trkpt lat="33.620455" lon="-115.67801">
        <ele>648.097656</ele>
        <time>2020-07-03T18:10:35.000Z</time>
      </trkpt>
      <trkpt lat="33.620433" lon="-115.677933">
        <ele>648.097656</ele>
        <time>2020-07-03T18:10:36.000Z</time>
      </trkpt>
      <trkpt lat="33.620433" lon="-115.677886">
        <ele>648.097656</ele>
        <time>2020-07-03T18:10:38.000Z</time>
      </trkpt>
      <trkpt lat="33.620464" lon="-115.677798">
        <ele>648.199219</ele>
        <time>2020-07-03T18:10:39.000Z</time>
      </trkpt>
      <trkpt lat="33.620478" lon="-115.677767">
        <ele>648.000000</ele>
        <time>2020-07-03T18:10:42.000Z</time>
      </trkpt>
      <trkpt lat="33.620497" lon="-115.677677">
        <ele>647.699219</ele>
        <time>2020-07-03T18:10:43.000Z</time>
      </trkpt>
      <trkpt lat="33.620502" lon="-115.677638">
        <ele>647.699219</ele>
        <time>2020-07-03T18:10:45.000Z</time>
      </trkpt>
      <trkpt lat="33.620521" lon="-115.677465">
        <ele>649.097656</ele>
        <time>2020-07-03T18:10:49.000Z</time>
      </trkpt>
      <trkpt lat="33.620529" lon="-115.677433">
        <ele>649.199219</ele>
        <time>2020-07-03T18:10:52.000Z</time>
      </trkpt>
      <trkpt lat="33.620569" lon="-115.67733">
        <ele>649.398438</ele>
        <time>2020-07-03T18:10:53.000Z</time>
      </trkpt>
      <trkpt lat="33.620592" lon="-115.677294">
        <ele>649.796875</ele>
        <time>2020-07-03T18:10:55.000Z</time>
      </trkpt>
      <trkpt lat="33.620692" lon="-115.677126">
        <ele>650.699219</ele>
        <time>2020-07-03T18:10:58.000Z</time>
      </trkpt>
      <trkpt lat="33.620714" lon="-115.677079">
        <ele>650.000000</ele>
        <time>2020-07-03T18:11:00.000Z</time>
      </trkpt>
      <trkpt lat="33.620742" lon="-115.676984">
        <ele>650.097656</ele>
        <time>2020-07-03T18:11:01.000Z</time>
      </trkpt>
      <trkpt lat="33.620752" lon="-115.67694">
        <ele>650.000000</ele>
        <time>2020-07-03T18:11:03.000Z</time>
      </trkpt>
      <trkpt lat="33.620765" lon="-115.67685">
        <ele>650.296875</ele>
        <time>2020-07-03T18:11:04.000Z</time>
      </trkpt>
      <trkpt lat="33.620785" lon="-115.676705">
        <ele>651.097656</ele>
        <time>2020-07-03T18:11:07.000Z</time>
      </trkpt>
      <trkpt lat="33.620802" lon="-115.676655">
        <ele>651.398438</ele>
        <time>2020-07-03T18:11:09.000Z</time>
      </trkpt>
      <trkpt lat="33.620852" lon="-115.676568">
        <ele>651.199219</ele>
        <time>2020-07-03T18:11:10.000Z</time>
      </trkpt>
      <trkpt lat="33.620881" lon="-115.676534">
        <ele>651.296875</ele>
        <time>2020-07-03T18:11:12.000Z</time>
      </trkpt>
      <trkpt lat="33.62093" lon="-115.676455">
        <ele>651.296875</ele>
        <time>2020-07-03T18:11:13.000Z</time>
      </trkpt>
      <trkpt lat="33.62095" lon="-115.676411">
        <ele>651.597656</ele>
        <time>2020-07-03T18:11:15.000Z</time>
      </trkpt>
      <trkpt lat="33.620977" lon="-115.67633">
        <ele>651.500000</ele>
        <time>2020-07-03T18:11:16.000Z</time>
      </trkpt>
      <trkpt lat="33.621012" lon="-115.676214">
        <ele>651.398438</ele>
        <time>2020-07-03T18:11:19.000Z</time>
      </trkpt>
      <trkpt lat="33.621029" lon="-115.676173">
        <ele>651.296875</ele>
        <time>2020-07-03T18:11:21.000Z</time>
      </trkpt>
      <trkpt lat="33.621065" lon="-115.676094">
        <ele>651.296875</ele>
        <time>2020-07-03T18:11:22.000Z</time>
      </trkpt>
      <trkpt lat="33.621088" lon="-115.676056">
        <ele>652.000000</ele>
        <time>2020-07-03T18:11:24.000Z</time>
      </trkpt>
      <trkpt lat="33.621154" lon="-115.675995">
        <ele>652.699219</ele>
        <time>2020-07-03T18:11:25.000Z</time>
      </trkpt>
      <trkpt lat="33.621195" lon="-115.675976">
        <ele>652.500000</ele>
        <time>2020-07-03T18:11:27.000Z</time>
      </trkpt>
      <trkpt lat="33.62128" lon="-115.675953">
        <ele>652.699219</ele>
        <time>2020-07-03T18:11:28.000Z</time>
      </trkpt>
      <trkpt lat="33.621318" lon="-115.675941">
        <ele>652.296875</ele>
        <time>2020-07-03T18:11:30.000Z</time>
      </trkpt>
      <trkpt lat="33.621386" lon="-115.675904">
        <ele>652.000000</ele>
        <time>2020-07-03T18:11:31.000Z</time>
      </trkpt>
      <trkpt lat="33.621415" lon="-115.675883">
        <ele>651.898438</ele>
        <time>2020-07-03T18:11:34.000Z</time>
      </trkpt>
      <trkpt lat="33.621463" lon="-115.675836">
        <ele>651.796875</ele>
        <time>2020-07-03T18:11:37.000Z</time>
      </trkpt>
      <trkpt lat="33.621489" lon="-115.6758">
        <ele>652.097656</ele>
        <time>2020-07-03T18:11:40.000Z</time>
      </trkpt>
      <trkpt lat="33.621508" lon="-115.675741">
        <ele>652.500000</ele>
        <time>2020-07-03T18:11:42.000Z</time>
      </trkpt>
      <trkpt lat="33.621496" lon="-115.675692">
        <ele>651.699219</ele>
        <time>2020-07-03T18:11:45.000Z</time>
      </trkpt>
      <trkpt lat="33.62146" lon="-115.675637">
        <ele>651.000000</ele>
        <time>2020-07-03T18:11:47.000Z</time>
      </trkpt>
      <trkpt lat="33.621366" lon="-115.675499">
        <ele>649.597656</ele>
        <time>2020-07-03T18:11:51.000Z</time>
      </trkpt>
      <trkpt lat="33.62135" lon="-115.675487">
        <ele>649.500000</ele>
        <time>2020-07-03T18:11:55.000Z</time>
      </trkpt>
      <trkpt lat="33.62129" lon="-115.675401">
        <ele>649.500000</ele>
        <time>2020-07-03T18:11:56.000Z</time>
      </trkpt>
      <trkpt lat="33.621268" lon="-115.675379">
        <ele>650.500000</ele>
        <time>2020-07-03T18:11:59.000Z</time>
      </trkpt>
      <trkpt lat="33.621191" lon="-115.675301">
        <ele>651.199219</ele>
        <time>2020-07-03T18:12:01.000Z</time>
      </trkpt>
      <trkpt lat="33.621172" lon="-115.675277">
        <ele>651.296875</ele>
        <time>2020-07-03T18:12:04.000Z</time>
      </trkpt>
      <trkpt lat="33.621125" lon="-115.675192">
        <ele>651.296875</ele>
        <time>2020-07-03T18:12:05.000Z</time>
      </trkpt>
      <trkpt lat="33.621111" lon="-115.675156">
        <ele>651.500000</ele>
        <time>2020-07-03T18:12:07.000Z</time>
      </trkpt>
      <trkpt lat="33.621088" lon="-115.675072">
        <ele>652.000000</ele>
        <time>2020-07-03T18:12:08.000Z</time>
      </trkpt>
      <trkpt lat="33.621079" lon="-115.675031">
        <ele>652.699219</ele>
        <time>2020-07-03T18:12:10.000Z</time>
      </trkpt>
      <trkpt lat="33.621059" lon="-115.674913">
        <ele>652.699219</ele>
        <time>2020-07-03T18:12:12.000Z</time>
      </trkpt>
      <trkpt lat="33.621058" lon="-115.674865">
        <ele>651.796875</ele>
        <time>2020-07-03T18:12:14.000Z</time>
      </trkpt>
      <trkpt lat="33.621061" lon="-115.674767">
        <ele>651.296875</ele>
        <time>2020-07-03T18:12:15.000Z</time>
      </trkpt>
      <trkpt lat="33.621066" lon="-115.674714">
        <ele>651.796875</ele>
        <time>2020-07-03T18:12:17.000Z</time>
      </trkpt>
      <trkpt lat="33.621078" lon="-115.674614">
        <ele>652.199219</ele>
        <time>2020-07-03T18:12:18.000Z</time>
      </trkpt>
      <trkpt lat="33.621087" lon="-115.67457">
        <ele>652.500000</ele>
        <time>2020-07-03T18:12:20.000Z</time>
      </trkpt>
      <trkpt lat="33.621118" lon="-115.674501">
        <ele>652.597656</ele>
        <time>2020-07-03T18:12:21.000Z</time>
      </trkpt>
      <trkpt lat="33.621136" lon="-115.674472">
        <ele>652.898438</ele>
        <time>2020-07-03T18:12:24.000Z</time>
      </trkpt>
      <trkpt lat="33.62118" lon="-115.674399">
        <ele>652.898438</ele>
        <time>2020-07-03T18:12:25.000Z</time>
      </trkpt>
      <trkpt lat="33.621192" lon="-115.674372">
        <ele>653.699219</ele>
        <time>2020-07-03T18:12:28.000Z</time>
      </trkpt>
      <trkpt lat="33.621208" lon="-115.674283">
        <ele>653.398438</ele>
        <time>2020-07-03T18:12:29.000Z</time>
      </trkpt>
      <trkpt lat="33.621201" lon="-115.674246">
        <ele>652.398438</ele>
        <time>2020-07-03T18:12:31.000Z</time>
      </trkpt>
      <trkpt lat="33.621177" lon="-115.674166">
        <ele>652.597656</ele>
        <time>2020-07-03T18:12:32.000Z</time>
      </trkpt>
      <trkpt lat="33.621164" lon="-115.674128">
        <ele>652.796875</ele>
        <time>2020-07-03T18:12:34.000Z</time>
      </trkpt>
      <trkpt lat="33.621152" lon="-115.674056">
        <ele>652.898438</ele>
        <time>2020-07-03T18:12:35.000Z</time>
      </trkpt>
      <trkpt lat="33.621154" lon="-115.674019">
        <ele>652.898438</ele>
        <time>2020-07-03T18:12:37.000Z</time>
      </trkpt>
      <trkpt lat="33.621166" lon="-115.673947">
        <ele>652.898438</ele>
        <time>2020-07-03T18:12:38.000Z</time>
      </trkpt>
      <trkpt lat="33.621181" lon="-115.673818">
        <ele>652.796875</ele>
        <time>2020-07-03T18:12:41.000Z</time>
      </trkpt>
      <trkpt lat="33.62119" lon="-115.67366">
        <ele>652.199219</ele>
        <time>2020-07-03T18:12:45.000Z</time>
      </trkpt>
      <trkpt lat="33.621214" lon="-115.673521">
        <ele>651.898438</ele>
        <time>2020-07-03T18:12:49.000Z</time>
      </trkpt>
      <trkpt lat="33.621224" lon="-115.673483">
        <ele>653.000000</ele>
        <time>2020-07-03T18:12:52.000Z</time>
      </trkpt>
      <trkpt lat="33.621263" lon="-115.673358">
        <ele>652.796875</ele>
        <time>2020-07-03T18:12:54.000Z</time>
      </trkpt>
      <trkpt lat="33.621267" lon="-115.673322">
        <ele>653.097656</ele>
        <time>2020-07-03T18:12:56.000Z</time>
      </trkpt>
      <trkpt lat="33.621266" lon="-115.673247">
        <ele>653.296875</ele>
        <time>2020-07-03T18:12:57.000Z</time>
      </trkpt>
      <trkpt lat="33.621262" lon="-115.673122">
        <ele>653.199219</ele>
        <time>2020-07-03T18:13:00.000Z</time>
      </trkpt>
      <trkpt lat="33.621267" lon="-115.673075">
        <ele>652.597656</ele>
        <time>2020-07-03T18:13:02.000Z</time>
      </trkpt>
      <trkpt lat="33.621289" lon="-115.672857">
        <ele>652.097656</ele>
        <time>2020-07-03T18:13:07.000Z</time>
      </trkpt>
      <trkpt lat="33.621331" lon="-115.672549">
        <ele>652.699219</ele>
        <time>2020-07-03T18:13:16.000Z</time>
      </trkpt>
      <trkpt lat="33.621332" lon="-115.672513">
        <ele>652.796875</ele>
        <time>2020-07-03T18:13:19.000Z</time>
      </trkpt>
      <trkpt lat="33.621326" lon="-115.67238">
        <ele>652.398438</ele>
        <time>2020-07-03T18:13:21.000Z</time>
      </trkpt>
      <trkpt lat="33.621321" lon="-115.672349">
        <ele>651.898438</ele>
        <time>2020-07-03T18:13:24.000Z</time>
      </trkpt>
      <trkpt lat="33.621282" lon="-115.672126">
        <ele>651.597656</ele>
        <time>2020-07-03T18:13:29.000Z</time>
      </trkpt>
      <trkpt lat="33.62128" lon="-115.672093">
        <ele>652.000000</ele>
        <time>2020-07-03T18:13:32.000Z</time>
      </trkpt>
      <trkpt lat="33.621281" lon="-115.672015">
        <ele>651.597656</ele>
        <time>2020-07-03T18:13:34.000Z</time>
      </trkpt>
      <trkpt lat="33.621274" lon="-115.671955">
        <ele>652.500000</ele>
        <time>2020-07-03T18:13:36.000Z</time>
      </trkpt>
      <trkpt lat="33.621256" lon="-115.671902">
        <ele>652.699219</ele>
        <time>2020-07-03T18:13:38.000Z</time>
      </trkpt>
      <trkpt lat="33.621233" lon="-115.671847">
        <ele>652.796875</ele>
        <time>2020-07-03T18:13:40.000Z</time>
      </trkpt>
      <trkpt lat="33.621201" lon="-115.671793">
        <ele>652.796875</ele>
        <time>2020-07-03T18:13:42.000Z</time>
      </trkpt>
      <trkpt lat="33.621172" lon="-115.671724">
        <ele>652.898438</ele>
        <time>2020-07-03T18:13:43.000Z</time>
      </trkpt>
      <trkpt lat="33.621161" lon="-115.671686">
        <ele>652.699219</ele>
        <time>2020-07-03T18:13:45.000Z</time>
      </trkpt>
      <trkpt lat="33.62113" lon="-115.671609">
        <ele>652.097656</ele>
        <time>2020-07-03T18:13:46.000Z</time>
      </trkpt>
      <trkpt lat="33.621108" lon="-115.671568">
        <ele>650.796875</ele>
        <time>2020-07-03T18:13:48.000Z</time>
      </trkpt>
      <trkpt lat="33.62095" lon="-115.671311">
        <ele>649.597656</ele>
        <time>2020-07-03T18:13:53.000Z</time>
      </trkpt>
      <trkpt lat="33.62093" lon="-115.67126">
        <ele>649.296875</ele>
        <time>2020-07-03T18:13:54.000Z</time>
      </trkpt>
      <trkpt lat="33.620895" lon="-115.671151">
        <ele>648.796875</ele>
        <time>2020-07-03T18:13:56.000Z</time>
      </trkpt>
      <trkpt lat="33.620881" lon="-115.671091">
        <ele>648.597656</ele>
        <time>2020-07-03T18:13:57.000Z</time>
      </trkpt>
      <trkpt lat="33.62087" lon="-115.671029">
        <ele>648.699219</ele>
        <time>2020-07-03T18:13:58.000Z</time>
      </trkpt>
      <trkpt lat="33.620866" lon="-115.670968">
        <ele>648.296875</ele>
        <time>2020-07-03T18:13:59.000Z</time>
      </trkpt>
      <trkpt lat="33.620868" lon="-115.670855">
        <ele>647.796875</ele>
        <time>2020-07-03T18:14:01.000Z</time>
      </trkpt>
      <trkpt lat="33.62087" lon="-115.670804">
        <ele>647.500000</ele>
        <time>2020-07-03T18:14:03.000Z</time>
      </trkpt>
      <trkpt lat="33.620865" lon="-115.670719">
        <ele>647.097656</ele>
        <time>2020-07-03T18:14:04.000Z</time>
      </trkpt>
      <trkpt lat="33.620858" lon="-115.670686">
        <ele>647.296875</ele>
        <time>2020-07-03T18:14:07.000Z</time>
      </trkpt>
      <trkpt lat="33.620813" lon="-115.670589">
        <ele>647.199219</ele>
        <time>2020-07-03T18:14:08.000Z</time>
      </trkpt>
      <trkpt lat="33.620793" lon="-115.670559">
        <ele>647.097656</ele>
        <time>2020-07-03T18:14:10.000Z</time>
      </trkpt>
      <trkpt lat="33.620753" lon="-115.670477">
        <ele>647.199219</ele>
        <time>2020-07-03T18:14:11.000Z</time>
      </trkpt>
      <trkpt lat="33.620615" lon="-115.670166">
        <ele>646.898438</ele>
        <time>2020-07-03T18:14:17.000Z</time>
      </trkpt>
      <trkpt lat="33.620593" lon="-115.670125">
        <ele>646.398438</ele>
        <time>2020-07-03T18:14:19.000Z</time>
      </trkpt>
      <trkpt lat="33.620547" lon="-115.670054">
        <ele>646.398438</ele>
        <time>2020-07-03T18:14:20.000Z</time>
      </trkpt>
      <trkpt lat="33.62052" lon="-115.67002">
        <ele>646.097656</ele>
        <time>2020-07-03T18:14:22.000Z</time>
      </trkpt>
      <trkpt lat="33.620349" lon="-115.669821">
        <ele>645.097656</ele>
        <time>2020-07-03T18:14:27.000Z</time>
      </trkpt>
      <trkpt lat="33.620331" lon="-115.669788">
        <ele>644.898438</ele>
        <time>2020-07-03T18:14:29.000Z</time>
      </trkpt>
      <trkpt lat="33.620306" lon="-115.669707">
        <ele>644.699219</ele>
        <time>2020-07-03T18:14:30.000Z</time>
      </trkpt>
      <trkpt lat="33.620269" lon="-115.669561">
        <ele>644.398438</ele>
        <time>2020-07-03T18:14:43.000Z</time>
      </trkpt>
      <trkpt lat="33.620269" lon="-115.669561">
        <ele>644.796875</ele>
        <time>2020-07-03T18:15:07.000Z</time>
      </trkpt>
      <trkpt lat="33.620234" lon="-115.66944">
        <ele>644.597656</ele>
        <time>2020-07-03T18:15:08.000Z</time>
      </trkpt>
      <trkpt lat="33.620229" lon="-115.66942">
        <ele>644.296875</ele>
        <time>2020-07-03T18:15:13.000Z</time>
      </trkpt>
      <trkpt lat="33.620223" lon="-115.669306">
        <ele>644.597656</ele>
        <time>2020-07-03T18:15:14.000Z</time>
      </trkpt>
      <trkpt lat="33.620227" lon="-115.669273">
        <ele>644.500000</ele>
        <time>2020-07-03T18:15:17.000Z</time>
      </trkpt>
      <trkpt lat="33.620232" lon="-115.669176">
        <ele>644.296875</ele>
        <time>2020-07-03T18:15:18.000Z</time>
      </trkpt>
      <trkpt lat="33.620228" lon="-115.66914">
        <ele>643.500000</ele>
        <time>2020-07-03T18:15:21.000Z</time>
      </trkpt>
      <trkpt lat="33.620192" lon="-115.669042">
        <ele>643.199219</ele>
        <time>2020-07-03T18:15:22.000Z</time>
      </trkpt>
      <trkpt lat="33.620167" lon="-115.66901">
        <ele>641.898438</ele>
        <time>2020-07-03T18:15:24.000Z</time>
      </trkpt>
      <trkpt lat="33.620104" lon="-115.66896">
        <ele>641.796875</ele>
        <time>2020-07-03T18:15:25.000Z</time>
      </trkpt>
      <trkpt lat="33.62007" lon="-115.66894">
        <ele>641.699219</ele>
        <time>2020-07-03T18:15:27.000Z</time>
      </trkpt>
      <trkpt lat="33.619972" lon="-115.668894">
        <ele>641.296875</ele>
        <time>2020-07-03T18:15:29.000Z</time>
      </trkpt>
      <trkpt lat="33.61994" lon="-115.668872">
        <ele>641.199219</ele>
        <time>2020-07-03T18:15:31.000Z</time>
      </trkpt>
      <trkpt lat="33.619827" lon="-115.668795">
        <ele>640.898438</ele>
        <time>2020-07-03T18:15:33.000Z</time>
      </trkpt>
      <trkpt lat="33.61979" lon="-115.668774">
        <ele>640.699219</ele>
        <time>2020-07-03T18:15:35.000Z</time>
      </trkpt>
      <trkpt lat="33.619732" lon="-115.668729">
        <ele>640.597656</ele>
        <time>2020-07-03T18:15:36.000Z</time>
      </trkpt>
      <trkpt lat="33.619708" lon="-115.668703">
        <ele>639.699219</ele>
        <time>2020-07-03T18:15:38.000Z</time>
      </trkpt>
      <trkpt lat="33.619384" lon="-115.66833">
        <ele>638.796875</ele>
        <time>2020-07-03T18:15:48.000Z</time>
      </trkpt>
      <trkpt lat="33.619356" lon="-115.66831">
        <ele>637.597656</ele>
        <time>2020-07-03T18:15:50.000Z</time>
      </trkpt>
      <trkpt lat="33.619302" lon="-115.668259">
        <ele>637.500000</ele>
        <time>2020-07-03T18:15:51.000Z</time>
      </trkpt>
      <trkpt lat="33.619273" lon="-115.668225">
        <ele>637.296875</ele>
        <time>2020-07-03T18:15:53.000Z</time>
      </trkpt>
      <trkpt lat="33.619218" lon="-115.668133">
        <ele>637.199219</ele>
        <time>2020-07-03T18:15:54.000Z</time>
      </trkpt>
      <trkpt lat="33.619193" lon="-115.66808">
        <ele>637.199219</ele>
        <time>2020-07-03T18:15:55.000Z</time>
      </trkpt>
      <trkpt lat="33.619169" lon="-115.668024">
        <ele>637.199219</ele>
        <time>2020-07-03T18:15:56.000Z</time>
      </trkpt>
      <trkpt lat="33.619034" lon="-115.667702">
        <ele>636.699219</ele>
        <time>2020-07-03T18:16:02.000Z</time>
      </trkpt>
      <trkpt lat="33.619012" lon="-115.667662">
        <ele>636.097656</ele>
        <time>2020-07-03T18:16:04.000Z</time>
      </trkpt>
      <trkpt lat="33.618955" lon="-115.667582">
        <ele>635.796875</ele>
        <time>2020-07-03T18:16:05.000Z</time>
      </trkpt>
      <trkpt lat="33.618878" lon="-115.667462">
        <ele>635.296875</ele>
        <time>2020-07-03T18:16:08.000Z</time>
      </trkpt>
      <trkpt lat="33.61878" lon="-115.667273">
        <ele>634.296875</ele>
        <time>2020-07-03T18:16:12.000Z</time>
      </trkpt>
      <trkpt lat="33.618758" lon="-115.667211">
        <ele>634.296875</ele>
        <time>2020-07-03T18:16:13.000Z</time>
      </trkpt>
      <trkpt lat="33.61875" lon="-115.66714">
        <ele>634.097656</ele>
        <time>2020-07-03T18:16:14.000Z</time>
      </trkpt>
      <trkpt lat="33.618752" lon="-115.667065">
        <ele>634.000000</ele>
        <time>2020-07-03T18:16:15.000Z</time>
      </trkpt>
      <trkpt lat="33.618755" lon="-115.66693">
        <ele>634.398438</ele>
        <time>2020-07-03T18:16:17.000Z</time>
      </trkpt>
      <trkpt lat="33.618746" lon="-115.666872">
        <ele>634.199219</ele>
        <time>2020-07-03T18:16:18.000Z</time>
      </trkpt>
      <trkpt lat="33.618733" lon="-115.666822">
        <ele>633.898438</ele>
        <time>2020-07-03T18:16:20.000Z</time>
      </trkpt>
      <trkpt lat="33.618701" lon="-115.666733">
        <ele>633.699219</ele>
        <time>2020-07-03T18:16:21.000Z</time>
      </trkpt>
      <trkpt lat="33.618682" lon="-115.666687">
        <ele>633.199219</ele>
        <time>2020-07-03T18:16:23.000Z</time>
      </trkpt>
      <trkpt lat="33.618583" lon="-115.666494">
        <ele>631.296875</ele>
        <time>2020-07-03T18:16:26.000Z</time>
      </trkpt>
      <trkpt lat="33.618508" lon="-115.666366">
        <ele>631.199219</ele>
        <time>2020-07-03T18:16:29.000Z</time>
      </trkpt>
      <trkpt lat="33.61843" lon="-115.666254">
        <ele>630.597656</ele>
        <time>2020-07-03T18:16:33.000Z</time>
      </trkpt>
      <trkpt lat="33.618406" lon="-115.666226">
        <ele>630.199219</ele>
        <time>2020-07-03T18:16:35.000Z</time>
      </trkpt>
      <trkpt lat="33.618115" lon="-115.665831">
        <ele>628.699219</ele>
        <time>2020-07-03T18:16:42.000Z</time>
      </trkpt>
      <trkpt lat="33.618087" lon="-115.665781">
        <ele>628.597656</ele>
        <time>2020-07-03T18:16:43.000Z</time>
      </trkpt>
      <trkpt lat="33.618066" lon="-115.665738">
        <ele>628.199219</ele>
        <time>2020-07-03T18:16:45.000Z</time>
      </trkpt>
      <trkpt lat="33.618039" lon="-115.665675">
        <ele>628.296875</ele>
        <time>2020-07-03T18:16:47.000Z</time>
      </trkpt>
      <trkpt lat="33.618026" lon="-115.66563">
        <ele>629.398438</ele>
        <time>2020-07-03T18:16:50.000Z</time>
      </trkpt>
      <trkpt lat="33.617991" lon="-115.665483">
        <ele>629.398438</ele>
        <time>2020-07-03T18:16:54.000Z</time>
      </trkpt>
      <trkpt lat="33.617986" lon="-115.665453">
        <ele>628.796875</ele>
        <time>2020-07-03T18:16:57.000Z</time>
      </trkpt>
      <trkpt lat="33.617984" lon="-115.66535">
        <ele>627.898438</ele>
        <time>2020-07-03T18:16:58.000Z</time>
      </trkpt>
      <trkpt lat="33.61799" lon="-115.665304">
        <ele>626.898438</ele>
        <time>2020-07-03T18:17:00.000Z</time>
      </trkpt>
      <trkpt lat="33.618006" lon="-115.665209">
        <ele>626.898438</ele>
        <time>2020-07-03T18:17:01.000Z</time>
      </trkpt>
      <trkpt lat="33.618008" lon="-115.665169">
        <ele>626.597656</ele>
        <time>2020-07-03T18:17:04.000Z</time>
      </trkpt>
      <trkpt lat="33.617996" lon="-115.665086">
        <ele>626.699219</ele>
        <time>2020-07-03T18:17:05.000Z</time>
      </trkpt>
      <trkpt lat="33.617984" lon="-115.66506">
        <ele>624.699219</ele>
        <time>2020-07-03T18:17:08.000Z</time>
      </trkpt>
      <trkpt lat="33.617926" lon="-115.664976">
        <ele>624.597656</ele>
        <time>2020-07-03T18:17:09.000Z</time>
      </trkpt>
      <trkpt lat="33.617908" lon="-115.664943">
        <ele>624.097656</ele>
        <time>2020-07-03T18:17:11.000Z</time>
      </trkpt>
      <trkpt lat="33.617884" lon="-115.664863">
        <ele>624.097656</ele>
        <time>2020-07-03T18:17:12.000Z</time>
      </trkpt>
      <trkpt lat="33.617852" lon="-115.664734">
        <ele>623.699219</ele>
        <time>2020-07-03T18:17:15.000Z</time>
      </trkpt>
      <trkpt lat="33.617834" lon="-115.664698">
        <ele>623.699219</ele>
        <time>2020-07-03T18:17:17.000Z</time>
      </trkpt>
      <trkpt lat="33.6178" lon="-115.664643">
        <ele>623.699219</ele>
        <time>2020-07-03T18:17:19.000Z</time>
      </trkpt>
      <trkpt lat="33.617769" lon="-115.664605">
        <ele>623.898438</ele>
        <time>2020-07-03T18:17:21.000Z</time>
      </trkpt>
      <trkpt lat="33.617742" lon="-115.664554">
        <ele>623.898438</ele>
        <time>2020-07-03T18:17:23.000Z</time>
      </trkpt>
      <trkpt lat="33.617687" lon="-115.664421">
        <ele>623.097656</ele>
        <time>2020-07-03T18:17:27.000Z</time>
      </trkpt>
      <trkpt lat="33.617681" lon="-115.664402">
        <ele>622.000000</ele>
        <time>2020-07-03T18:17:33.000Z</time>
      </trkpt>
      <trkpt lat="33.617633" lon="-115.664309">
        <ele>621.597656</ele>
        <time>2020-07-03T18:17:34.000Z</time>
      </trkpt>
      <trkpt lat="33.617615" lon="-115.664291">
        <ele>620.398438</ele>
        <time>2020-07-03T18:17:36.000Z</time>
      </trkpt>
      <trkpt lat="33.617385" lon="-115.664086">
        <ele>619.398438</ele>
        <time>2020-07-03T18:17:43.000Z</time>
      </trkpt>
      <trkpt lat="33.617367" lon="-115.664063">
        <ele>619.296875</ele>
        <time>2020-07-03T18:17:46.000Z</time>
      </trkpt>
      <trkpt lat="33.61733" lon="-115.663985">
        <ele>619.097656</ele>
        <time>2020-07-03T18:17:47.000Z</time>
      </trkpt>
      <trkpt lat="33.617282" lon="-115.663893">
        <ele>618.597656</ele>
        <time>2020-07-03T18:17:50.000Z</time>
      </trkpt>
      <trkpt lat="33.616952" lon="-115.663334">
        <ele>615.398438</ele>
        <time>2020-07-03T18:18:04.000Z</time>
      </trkpt>
      <trkpt lat="33.616933" lon="-115.663292">
        <ele>615.097656</ele>
        <time>2020-07-03T18:18:06.000Z</time>
      </trkpt>
      <trkpt lat="33.616761" lon="-115.662817">
        <ele>615.398438</ele>
        <time>2020-07-03T18:18:16.000Z</time>
      </trkpt>
      <trkpt lat="33.616635" lon="-115.662465">
        <ele>615.097656</ele>
        <time>2020-07-03T18:18:24.000Z</time>
      </trkpt>
      <trkpt lat="33.616586" lon="-115.662347">
        <ele>614.597656</ele>
        <time>2020-07-03T18:18:28.000Z</time>
      </trkpt>
      <trkpt lat="33.616584" lon="-115.662318">
        <ele>614.500000</ele>
        <time>2020-07-03T18:18:32.000Z</time>
      </trkpt>
      <trkpt lat="33.616609" lon="-115.662237">
        <ele>615.097656</ele>
        <time>2020-07-03T18:18:34.000Z</time>
      </trkpt>
      <trkpt lat="33.616667" lon="-115.662057">
        <ele>618.699219</ele>
        <time>2020-07-03T18:18:39.000Z</time>
      </trkpt>
      <trkpt lat="33.616673" lon="-115.662017">
        <ele>619.296875</ele>
        <time>2020-07-03T18:18:41.000Z</time>
      </trkpt>
      <trkpt lat="33.616665" lon="-115.661939">
        <ele>619.199219</ele>
        <time>2020-07-03T18:18:42.000Z</time>
      </trkpt>
      <trkpt lat="33.616653" lon="-115.661908">
        <ele>619.199219</ele>
        <time>2020-07-03T18:18:45.000Z</time>
      </trkpt>
      <trkpt lat="33.616605" lon="-115.661834">
        <ele>619.199219</ele>
        <time>2020-07-03T18:18:46.000Z</time>
      </trkpt>
      <trkpt lat="33.61658" lon="-115.661808">
        <ele>619.199219</ele>
        <time>2020-07-03T18:18:48.000Z</time>
      </trkpt>
      <trkpt lat="33.616504" lon="-115.661727">
        <ele>619.000000</ele>
        <time>2020-07-03T18:18:50.000Z</time>
      </trkpt>
      <trkpt lat="33.616485" lon="-115.661701">
        <ele>618.398438</ele>
        <time>2020-07-03T18:18:53.000Z</time>
      </trkpt>
      <trkpt lat="33.616438" lon="-115.66162">
        <ele>618.398438</ele>
        <time>2020-07-03T18:18:54.000Z</time>
      </trkpt>
      <trkpt lat="33.616427" lon="-115.661585">
        <ele>618.699219</ele>
        <time>2020-07-03T18:18:57.000Z</time>
      </trkpt>
      <trkpt lat="33.616419" lon="-115.66149">
        <ele>618.796875</ele>
        <time>2020-07-03T18:18:58.000Z</time>
      </trkpt>
      <trkpt lat="33.61642" lon="-115.661463">
        <ele>618.898438</ele>
        <time>2020-07-03T18:19:01.000Z</time>
      </trkpt>
      <trkpt lat="33.616426" lon="-115.66138">
        <ele>619.199219</ele>
        <time>2020-07-03T18:19:02.000Z</time>
      </trkpt>
      <trkpt lat="33.616432" lon="-115.661349">
        <ele>619.699219</ele>
        <time>2020-07-03T18:19:04.000Z</time>
      </trkpt>
      <trkpt lat="33.616446" lon="-115.661271">
        <ele>619.796875</ele>
        <time>2020-07-03T18:19:05.000Z</time>
      </trkpt>
      <trkpt lat="33.61645" lon="-115.661228">
        <ele>619.796875</ele>
        <time>2020-07-03T18:19:07.000Z</time>
      </trkpt>
      <trkpt lat="33.616446" lon="-115.661146">
        <ele>620.296875</ele>
        <time>2020-07-03T18:19:08.000Z</time>
      </trkpt>
      <trkpt lat="33.616439" lon="-115.661114">
        <ele>620.500000</ele>
        <time>2020-07-03T18:19:11.000Z</time>
      </trkpt>
      <trkpt lat="33.616416" lon="-115.661023">
        <ele>620.398438</ele>
        <time>2020-07-03T18:19:12.000Z</time>
      </trkpt>
      <trkpt lat="33.616404" lon="-115.660993">
        <ele>620.500000</ele>
        <time>2020-07-03T18:19:14.000Z</time>
      </trkpt>
      <trkpt lat="33.61637" lon="-115.660926">
        <ele>620.597656</ele>
        <time>2020-07-03T18:19:15.000Z</time>
      </trkpt>
      <trkpt lat="33.616345" lon="-115.660894">
        <ele>620.398438</ele>
        <time>2020-07-03T18:19:17.000Z</time>
      </trkpt>
      <trkpt lat="33.616293" lon="-115.66083">
        <ele>620.199219</ele>
        <time>2020-07-03T18:19:18.000Z</time>
      </trkpt>
      <trkpt lat="33.616271" lon="-115.660797">
        <ele>619.597656</ele>
        <time>2020-07-03T18:19:20.000Z</time>
      </trkpt>
      <trkpt lat="33.616245" lon="-115.660732">
        <ele>618.097656</ele>
        <time>2020-07-03T18:19:22.000Z</time>
      </trkpt>
      <trkpt lat="33.616238" lon="-115.660671">
        <ele>617.097656</ele>
        <time>2020-07-03T18:19:24.000Z</time>
      </trkpt>
      <trkpt lat="33.616245" lon="-115.66061">
        <ele>617.296875</ele>
        <time>2020-07-03T18:19:26.000Z</time>
      </trkpt>
      <trkpt lat="33.616261" lon="-115.660544">
        <ele>618.398438</ele>
        <time>2020-07-03T18:19:28.000Z</time>
      </trkpt>
      <trkpt lat="33.61627" lon="-115.660471">
        <ele>617.898438</ele>
        <time>2020-07-03T18:19:30.000Z</time>
      </trkpt>
      <trkpt lat="33.616275" lon="-115.660411">
        <ele>617.500000</ele>
        <time>2020-07-03T18:19:32.000Z</time>
      </trkpt>
      <trkpt lat="33.61627" lon="-115.660349">
        <ele>618.000000</ele>
        <time>2020-07-03T18:19:34.000Z</time>
      </trkpt>
      <trkpt lat="33.616251" lon="-115.660272">
        <ele>617.796875</ele>
        <time>2020-07-03T18:19:35.000Z</time>
      </trkpt>
      <trkpt lat="33.616239" lon="-115.660236">
        <ele>618.699219</ele>
        <time>2020-07-03T18:19:37.000Z</time>
      </trkpt>
      <trkpt lat="33.616216" lon="-115.660172">
        <ele>620.699219</ele>
        <time>2020-07-03T18:19:39.000Z</time>
      </trkpt>
      <trkpt lat="33.616178" lon="-115.660109">
        <ele>621.000000</ele>
        <time>2020-07-03T18:19:40.000Z</time>
      </trkpt>
      <trkpt lat="33.616158" lon="-115.660074">
        <ele>621.500000</ele>
        <time>2020-07-03T18:19:42.000Z</time>
      </trkpt>
      <trkpt lat="33.616127" lon="-115.659988">
        <ele>621.796875</ele>
        <time>2020-07-03T18:19:43.000Z</time>
      </trkpt>
      <trkpt lat="33.616117" lon="-115.659942">
        <ele>622.398438</ele>
        <time>2020-07-03T18:19:45.000Z</time>
      </trkpt>
      <trkpt lat="33.616088" lon="-115.65986">
        <ele>622.597656</ele>
        <time>2020-07-03T18:19:46.000Z</time>
      </trkpt>
      <trkpt lat="33.61607" lon="-115.659824">
        <ele>623.199219</ele>
        <time>2020-07-03T18:19:48.000Z</time>
      </trkpt>
      <trkpt lat="33.616036" lon="-115.659752">
        <ele>623.097656</ele>
        <time>2020-07-03T18:19:49.000Z</time>
      </trkpt>
      <trkpt lat="33.616024" lon="-115.65971">
        <ele>622.699219</ele>
        <time>2020-07-03T18:19:51.000Z</time>
      </trkpt>
      <trkpt lat="33.616025" lon="-115.659612">
        <ele>622.296875</ele>
        <time>2020-07-03T18:19:52.000Z</time>
      </trkpt>
      <trkpt lat="33.616037" lon="-115.659562">
        <ele>621.296875</ele>
        <time>2020-07-03T18:19:54.000Z</time>
      </trkpt>
      <trkpt lat="33.616079" lon="-115.659392">
        <ele>620.398438</ele>
        <time>2020-07-03T18:19:57.000Z</time>
      </trkpt>
      <trkpt lat="33.616085" lon="-115.659346">
        <ele>619.699219</ele>
        <time>2020-07-03T18:19:59.000Z</time>
      </trkpt>
      <trkpt lat="33.616088" lon="-115.659256">
        <ele>619.500000</ele>
        <time>2020-07-03T18:20:00.000Z</time>
      </trkpt>
      <trkpt lat="33.616088" lon="-115.659217">
        <ele>618.097656</ele>
        <time>2020-07-03T18:20:02.000Z</time>
      </trkpt>
      <trkpt lat="33.616082" lon="-115.659142">
        <ele>617.398438</ele>
        <time>2020-07-03T18:20:03.000Z</time>
      </trkpt>
      <trkpt lat="33.616076" lon="-115.659102">
        <ele>617.500000</ele>
        <time>2020-07-03T18:20:05.000Z</time>
      </trkpt>
      <trkpt lat="33.616059" lon="-115.659021">
        <ele>617.898438</ele>
        <time>2020-07-03T18:20:06.000Z</time>
      </trkpt>
      <trkpt lat="33.616046" lon="-115.658981">
        <ele>618.199219</ele>
        <time>2020-07-03T18:20:08.000Z</time>
      </trkpt>
      <trkpt lat="33.61601" lon="-115.658901">
        <ele>618.097656</ele>
        <time>2020-07-03T18:20:09.000Z</time>
      </trkpt>
      <trkpt lat="33.615987" lon="-115.658861">
        <ele>617.898438</ele>
        <time>2020-07-03T18:20:11.000Z</time>
      </trkpt>
      <trkpt lat="33.615935" lon="-115.658784">
        <ele>617.796875</ele>
        <time>2020-07-03T18:20:12.000Z</time>
      </trkpt>
      <trkpt lat="33.615905" lon="-115.658746">
        <ele>617.398438</ele>
        <time>2020-07-03T18:20:14.000Z</time>
      </trkpt>
      <trkpt lat="33.615742" lon="-115.65855">
        <ele>616.500000</ele>
        <time>2020-07-03T18:20:19.000Z</time>
      </trkpt>
      <trkpt lat="33.615724" lon="-115.658521">
        <ele>616.796875</ele>
        <time>2020-07-03T18:20:22.000Z</time>
      </trkpt>
      <trkpt lat="33.61569" lon="-115.658436">
        <ele>616.597656</ele>
        <time>2020-07-03T18:20:23.000Z</time>
      </trkpt>
      <trkpt lat="33.615683" lon="-115.658405">
        <ele>615.796875</ele>
        <time>2020-07-03T18:20:26.000Z</time>
      </trkpt>
      <trkpt lat="33.615685" lon="-115.658293">
        <ele>615.699219</ele>
        <time>2020-07-03T18:20:27.000Z</time>
      </trkpt>
      <trkpt lat="33.61569" lon="-115.658252">
        <ele>615.296875</ele>
        <time>2020-07-03T18:20:29.000Z</time>
      </trkpt>
      <trkpt lat="33.615687" lon="-115.658169">
        <ele>615.296875</ele>
        <time>2020-07-03T18:20:30.000Z</time>
      </trkpt>
      <trkpt lat="33.615683" lon="-115.658125">
        <ele>615.898438</ele>
        <time>2020-07-03T18:20:32.000Z</time>
      </trkpt>
      <trkpt lat="33.615671" lon="-115.658045">
        <ele>615.597656</ele>
        <time>2020-07-03T18:20:33.000Z</time>
      </trkpt>
      <trkpt lat="33.615649" lon="-115.657903">
        <ele>614.699219</ele>
        <time>2020-07-03T18:20:36.000Z</time>
      </trkpt>
      <trkpt lat="33.615648" lon="-115.657848">
        <ele>616.000000</ele>
        <time>2020-07-03T18:20:38.000Z</time>
      </trkpt>
      <trkpt lat="33.615657" lon="-115.657574">
        <ele>615.796875</ele>
        <time>2020-07-03T18:20:43.000Z</time>
      </trkpt>
      <trkpt lat="33.615665" lon="-115.657517">
        <ele>615.597656</ele>
        <time>2020-07-03T18:20:44.000Z</time>
      </trkpt>
      <trkpt lat="33.615682" lon="-115.657456">
        <ele>615.199219</ele>
        <time>2020-07-03T18:20:45.000Z</time>
      </trkpt>
      <trkpt lat="33.615705" lon="-115.657397">
        <ele>615.296875</ele>
        <time>2020-07-03T18:20:46.000Z</time>
      </trkpt>
      <trkpt lat="33.615729" lon="-115.657342">
        <ele>615.398438</ele>
        <time>2020-07-03T18:20:47.000Z</time>
      </trkpt>
      <trkpt lat="33.615746" lon="-115.657284">
        <ele>615.500000</ele>
        <time>2020-07-03T18:20:48.000Z</time>
      </trkpt>
      <trkpt lat="33.615752" lon="-115.657225">
        <ele>615.500000</ele>
        <time>2020-07-03T18:20:49.000Z</time>
      </trkpt>
      <trkpt lat="33.615746" lon="-115.657163">
        <ele>615.597656</ele>
        <time>2020-07-03T18:20:50.000Z</time>
      </trkpt>
      <trkpt lat="33.615733" lon="-115.6571">
        <ele>615.898438</ele>
        <time>2020-07-03T18:20:51.000Z</time>
      </trkpt>
      <trkpt lat="33.615602" lon="-115.656597">
        <ele>613.000000</ele>
        <time>2020-07-03T18:20:59.000Z</time>
      </trkpt>
      <trkpt lat="33.615601" lon="-115.656543">
        <ele>612.398438</ele>
        <time>2020-07-03T18:21:01.000Z</time>
      </trkpt>
      <trkpt lat="33.615613" lon="-115.656451">
        <ele>612.000000</ele>
        <time>2020-07-03T18:21:02.000Z</time>
      </trkpt>
      <trkpt lat="33.615623" lon="-115.656409">
        <ele>611.597656</ele>
        <time>2020-07-03T18:21:04.000Z</time>
      </trkpt>
      <trkpt lat="33.615646" lon="-115.656343">
        <ele>611.296875</ele>
        <time>2020-07-03T18:21:06.000Z</time>
      </trkpt>
      <trkpt lat="33.615684" lon="-115.656244">
        <ele>612.500000</ele>
        <time>2020-07-03T18:21:09.000Z</time>
      </trkpt>
      <trkpt lat="33.615761" lon="-115.65608">
        <ele>613.796875</ele>
        <time>2020-07-03T18:21:14.000Z</time>
      </trkpt>
      <trkpt lat="33.615837" lon="-115.655911">
        <ele>613.199219</ele>
        <time>2020-07-03T18:21:19.000Z</time>
      </trkpt>
      <trkpt lat="33.615847" lon="-115.655882">
        <ele>613.898438</ele>
        <time>2020-07-03T18:21:22.000Z</time>
      </trkpt>
      <trkpt lat="33.615868" lon="-115.655793">
        <ele>614.000000</ele>
        <time>2020-07-03T18:21:23.000Z</time>
      </trkpt>
      <trkpt lat="33.615869" lon="-115.655768">
        <ele>613.796875</ele>
        <time>2020-07-03T18:21:26.000Z</time>
      </trkpt>
      <trkpt lat="33.615864" lon="-115.655674">
        <ele>613.898438</ele>
        <time>2020-07-03T18:21:27.000Z</time>
      </trkpt>
      <trkpt lat="33.615855" lon="-115.655641">
        <ele>613.597656</ele>
        <time>2020-07-03T18:21:30.000Z</time>
      </trkpt>
      <trkpt lat="33.615812" lon="-115.655522">
        <ele>614.699219</ele>
        <time>2020-07-03T18:21:32.000Z</time>
      </trkpt>
      <trkpt lat="33.615776" lon="-115.655423">
        <ele>616.000000</ele>
        <time>2020-07-03T18:21:35.000Z</time>
      </trkpt>
      <trkpt lat="33.615769" lon="-115.655387">
        <ele>615.699219</ele>
        <time>2020-07-03T18:21:37.000Z</time>
      </trkpt>
      <trkpt lat="33.615764" lon="-115.655304">
        <ele>615.796875</ele>
        <time>2020-07-03T18:21:38.000Z</time>
      </trkpt>
      <trkpt lat="33.615761" lon="-115.655261">
        <ele>616.699219</ele>
        <time>2020-07-03T18:21:40.000Z</time>
      </trkpt>
      <trkpt lat="33.615737" lon="-115.655181">
        <ele>616.699219</ele>
        <time>2020-07-03T18:21:41.000Z</time>
      </trkpt>
      <trkpt lat="33.615715" lon="-115.655147">
        <ele>616.199219</ele>
        <time>2020-07-03T18:21:43.000Z</time>
      </trkpt>
      <trkpt lat="33.615657" lon="-115.65509">
        <ele>615.796875</ele>
        <time>2020-07-03T18:21:44.000Z</time>
      </trkpt>
      <trkpt lat="33.615622" lon="-115.655069">
        <ele>615.097656</ele>
        <time>2020-07-03T18:21:46.000Z</time>
      </trkpt>
      <trkpt lat="33.615548" lon="-115.655046">
        <ele>615.296875</ele>
        <time>2020-07-03T18:21:47.000Z</time>
      </trkpt>
      <trkpt lat="33.615512" lon="-115.655044">
        <ele>615.097656</ele>
        <time>2020-07-03T18:21:49.000Z</time>
      </trkpt>
      <trkpt lat="33.615437" lon="-115.65505">
        <ele>615.398438</ele>
        <time>2020-07-03T18:21:50.000Z</time>
      </trkpt>
      <trkpt lat="33.615401" lon="-115.65506">
        <ele>615.199219</ele>
        <time>2020-07-03T18:21:52.000Z</time>
      </trkpt>
      <trkpt lat="33.615265" lon="-115.655105">
        <ele>615.199219</ele>
        <time>2020-07-03T18:21:55.000Z</time>
      </trkpt>
      <trkpt lat="33.615133" lon="-115.655139">
        <ele>615.199219</ele>
        <time>2020-07-03T18:21:58.000Z</time>
      </trkpt>
      <trkpt lat="33.615089" lon="-115.655142">
        <ele>615.000000</ele>
        <time>2020-07-03T18:22:00.000Z</time>
      </trkpt>
      <trkpt lat="33.615003" lon="-115.655136">
        <ele>614.796875</ele>
        <time>2020-07-03T18:22:01.000Z</time>
      </trkpt>
      <trkpt lat="33.614913" lon="-115.655118">
        <ele>614.597656</ele>
        <time>2020-07-03T18:22:03.000Z</time>
      </trkpt>
      <trkpt lat="33.614868" lon="-115.655102">
        <ele>614.500000</ele>
        <time>2020-07-03T18:22:04.000Z</time>
      </trkpt>
      <trkpt lat="33.61465" lon="-115.655011">
        <ele>614.296875</ele>
        <time>2020-07-03T18:22:09.000Z</time>
      </trkpt>
      <trkpt lat="33.614538" lon="-115.654963">
        <ele>613.699219</ele>
        <time>2020-07-03T18:22:12.000Z</time>
      </trkpt>
      <trkpt lat="33.614374" lon="-115.654897">
        <ele>614.000000</ele>
        <time>2020-07-03T18:22:16.000Z</time>
      </trkpt>
      <trkpt lat="33.614336" lon="-115.654876">
        <ele>614.000000</ele>
        <time>2020-07-03T18:22:18.000Z</time>
      </trkpt>
      <trkpt lat="33.614218" lon="-115.654805">
        <ele>613.296875</ele>
        <time>2020-07-03T18:22:20.000Z</time>
      </trkpt>
      <trkpt lat="33.613694" lon="-115.654483">
        <ele>614.000000</ele>
        <time>2020-07-03T18:22:33.000Z</time>
      </trkpt>
      <trkpt lat="33.613552" lon="-115.654419">
        <ele>614.398438</ele>
        <time>2020-07-03T18:22:37.000Z</time>
      </trkpt>
      <trkpt lat="33.613515" lon="-115.654405">
        <ele>614.699219</ele>
        <time>2020-07-03T18:22:39.000Z</time>
      </trkpt>
      <trkpt lat="33.613309" lon="-115.654325">
        <ele>614.296875</ele>
        <time>2020-07-03T18:22:43.000Z</time>
      </trkpt>
      <trkpt lat="33.613227" lon="-115.654276">
        <ele>613.898438</ele>
        <time>2020-07-03T18:22:45.000Z</time>
      </trkpt>
      <trkpt lat="33.613188" lon="-115.654247">
        <ele>614.199219</ele>
        <time>2020-07-03T18:22:46.000Z</time>
      </trkpt>
      <trkpt lat="33.613079" lon="-115.65415">
        <ele>614.398438</ele>
        <time>2020-07-03T18:22:49.000Z</time>
      </trkpt>
      <trkpt lat="33.612844" lon="-115.653969">
        <ele>615.296875</ele>
        <time>2020-07-03T18:22:56.000Z</time>
      </trkpt>
      <trkpt lat="33.612655" lon="-115.653829">
        <ele>616.898438</ele>
        <time>2020-07-03T18:23:02.000Z</time>
      </trkpt>
      <trkpt lat="33.61263" lon="-115.653803">
        <ele>617.199219</ele>
        <time>2020-07-03T18:23:04.000Z</time>
      </trkpt>
      <trkpt lat="33.612572" lon="-115.653759">
        <ele>617.296875</ele>
        <time>2020-07-03T18:23:05.000Z</time>
      </trkpt>
      <trkpt lat="33.612475" lon="-115.653694">
        <ele>617.000000</ele>
        <time>2020-07-03T18:23:08.000Z</time>
      </trkpt>
      <trkpt lat="33.612252" lon="-115.653564">
        <ele>615.796875</ele>
        <time>2020-07-03T18:23:15.000Z</time>
      </trkpt>
      <trkpt lat="33.61223" lon="-115.653546">
        <ele>615.296875</ele>
        <time>2020-07-03T18:23:18.000Z</time>
      </trkpt>
      <trkpt lat="33.612148" lon="-115.653476">
        <ele>614.500000</ele>
        <time>2020-07-03T18:23:20.000Z</time>
      </trkpt>
      <trkpt lat="33.612127" lon="-115.653452">
        <ele>613.296875</ele>
        <time>2020-07-03T18:23:22.000Z</time>
      </trkpt>
      <trkpt lat="33.612084" lon="-115.653392">
        <ele>612.597656</ele>
        <time>2020-07-03T18:23:23.000Z</time>
      </trkpt>
      <trkpt lat="33.612063" lon="-115.653356">
        <ele>612.000000</ele>
        <time>2020-07-03T18:23:25.000Z</time>
      </trkpt>
      <trkpt lat="33.61193" lon="-115.653127">
        <ele>611.500000</ele>
        <time>2020-07-03T18:23:30.000Z</time>
      </trkpt>
      <trkpt lat="33.611829" lon="-115.652969">
        <ele>611.398438</ele>
        <time>2020-07-03T18:23:36.000Z</time>
      </trkpt>
      <trkpt lat="33.611816" lon="-115.652939">
        <ele>610.898438</ele>
        <time>2020-07-03T18:23:38.000Z</time>
      </trkpt>
      <trkpt lat="33.611793" lon="-115.652865">
        <ele>610.500000</ele>
        <time>2020-07-03T18:23:39.000Z</time>
      </trkpt>
      <trkpt lat="33.611715" lon="-115.652619">
        <ele>607.398438</ele>
        <time>2020-07-03T18:23:45.000Z</time>
      </trkpt>
      <trkpt lat="33.611576" lon="-115.652248">
        <ele>603.097656</ele>
        <time>2020-07-03T18:23:55.000Z</time>
      </trkpt>
      <trkpt lat="33.611527" lon="-115.652057">
        <ele>601.597656</ele>
        <time>2020-07-03T18:24:03.000Z</time>
      </trkpt>
      <trkpt lat="33.611532" lon="-115.652049">
        <ele>601.796875</ele>
        <time>2020-07-03T18:24:08.000Z</time>
      </trkpt>
      <trkpt lat="33.611532" lon="-115.652049">
        <ele>601.796875</ele>
        <time>2020-07-03T18:24:08.000Z</time>
      </trkpt>
    </trkseg>
    <trkseg>
      <trkpt lat="33.611528" lon="-115.652047">
        <ele>601.296875</ele>
        <time>2020-07-03T18:24:15.000Z</time>
      </trkpt>
      <trkpt lat="33.611454" lon="-115.651757">
        <ele>600.000000</ele>
        <time>2020-07-03T18:26:35.000Z</time>
      </trkpt>
      <trkpt lat="33.611451" lon="-115.651733">
        <ele>599.699219</ele>
        <time>2020-07-03T18:26:39.000Z</time>
      </trkpt>
      <trkpt lat="33.611427" lon="-115.651608">
        <ele>599.296875</ele>
        <time>2020-07-03T18:26:41.000Z</time>
      </trkpt>
      <trkpt lat="33.611362" lon="-115.651278">
        <ele>598.500000</ele>
        <time>2020-07-03T18:26:54.000Z</time>
      </trkpt>
      <trkpt lat="33.611352" lon="-115.651247">
        <ele>596.699219</ele>
        <time>2020-07-03T18:26:57.000Z</time>
      </trkpt>
      <trkpt lat="33.611318" lon="-115.651165">
        <ele>596.597656</ele>
        <time>2020-07-03T18:26:58.000Z</time>
      </trkpt>
      <trkpt lat="33.611255" lon="-115.651041">
        <ele>595.398438</ele>
        <time>2020-07-03T18:27:03.000Z</time>
      </trkpt>
      <trkpt lat="33.611244" lon="-115.651021">
        <ele>594.296875</ele>
        <time>2020-07-03T18:27:07.000Z</time>
      </trkpt>
      <trkpt lat="33.611205" lon="-115.650935">
        <ele>594.000000</ele>
        <time>2020-07-03T18:27:08.000Z</time>
      </trkpt>
      <trkpt lat="33.611196" lon="-115.65091">
        <ele>593.097656</ele>
        <time>2020-07-03T18:27:11.000Z</time>
      </trkpt>
      <trkpt lat="33.611166" lon="-115.650804">
        <ele>592.500000</ele>
        <time>2020-07-03T18:27:13.000Z</time>
      </trkpt>
      <trkpt lat="33.611159" lon="-115.650779">
        <ele>593.199219</ele>
        <time>2020-07-03T18:27:23.000Z</time>
      </trkpt>
      <trkpt lat="33.61113" lon="-115.650704">
        <ele>592.097656</ele>
        <time>2020-07-03T18:27:25.000Z</time>
      </trkpt>
      <trkpt lat="33.611107" lon="-115.650671">
        <ele>591.000000</ele>
        <time>2020-07-03T18:27:28.000Z</time>
      </trkpt>
      <trkpt lat="33.611029" lon="-115.650571">
        <ele>589.898438</ele>
        <time>2020-07-03T18:27:32.000Z</time>
      </trkpt>
      <trkpt lat="33.611026" lon="-115.650556">
        <ele>588.097656</ele>
        <time>2020-07-03T18:27:40.000Z</time>
      </trkpt>
      <trkpt lat="33.61103" lon="-115.650459">
        <ele>587.597656</ele>
        <time>2020-07-03T18:27:42.000Z</time>
      </trkpt>
      <trkpt lat="33.611046" lon="-115.650442">
        <ele>587.097656</ele>
        <time>2020-07-03T18:27:48.000Z</time>
      </trkpt>
      <trkpt lat="33.61112" lon="-115.65044">
        <ele>587.097656</ele>
        <time>2020-07-03T18:27:49.000Z</time>
      </trkpt>
      <trkpt lat="33.611138" lon="-115.650457">
        <ele>587.296875</ele>
        <time>2020-07-03T18:27:52.000Z</time>
      </trkpt>
      <trkpt lat="33.611187" lon="-115.650518">
        <ele>587.199219</ele>
        <time>2020-07-03T18:27:53.000Z</time>
      </trkpt>
      <trkpt lat="33.611399" lon="-115.650819">
        <ele>586.699219</ele>
        <time>2020-07-03T18:28:05.000Z</time>
      </trkpt>
      <trkpt lat="33.611417" lon="-115.650834">
        <ele>586.699219</ele>
        <time>2020-07-03T18:28:08.000Z</time>
      </trkpt>
      <trkpt lat="33.611486" lon="-115.650861">
        <ele>586.898438</ele>
        <time>2020-07-03T18:28:09.000Z</time>
      </trkpt>
      <trkpt lat="33.61151" lon="-115.650865">
        <ele>589.398438</ele>
        <time>2020-07-03T18:28:13.000Z</time>
      </trkpt>
      <trkpt lat="33.611595" lon="-115.65087">
        <ele>590.097656</ele>
        <time>2020-07-03T18:28:14.000Z</time>
      </trkpt>
      <trkpt lat="33.611615" lon="-115.650865">
        <ele>592.699219</ele>
        <time>2020-07-03T18:28:19.000Z</time>
      </trkpt>
      <trkpt lat="33.611685" lon="-115.650804">
        <ele>592.500000</ele>
        <time>2020-07-03T18:28:20.000Z</time>
      </trkpt>
      <trkpt lat="33.611695" lon="-115.650783">
        <ele>592.398438</ele>
        <time>2020-07-03T18:28:24.000Z</time>
      </trkpt>
      <trkpt lat="33.611725" lon="-115.650692">
        <ele>591.796875</ele>
        <time>2020-07-03T18:28:25.000Z</time>
      </trkpt>
      <trkpt lat="33.611731" lon="-115.650665">
        <ele>592.796875</ele>
        <time>2020-07-03T18:28:28.000Z</time>
      </trkpt>
      <trkpt lat="33.61176" lon="-115.650577">
        <ele>593.699219</ele>
        <time>2020-07-03T18:28:29.000Z</time>
      </trkpt>
      <trkpt lat="33.61177" lon="-115.650548">
        <ele>596.000000</ele>
        <time>2020-07-03T18:28:32.000Z</time>
      </trkpt>
      <trkpt lat="33.611818" lon="-115.650465">
        <ele>597.000000</ele>
        <time>2020-07-03T18:28:33.000Z</time>
      </trkpt>
      <trkpt lat="33.611838" lon="-115.650441">
        <ele>599.500000</ele>
        <time>2020-07-03T18:28:36.000Z</time>
      </trkpt>
      <trkpt lat="33.611926" lon="-115.650348">
        <ele>601.699219</ele>
        <time>2020-07-03T18:28:39.000Z</time>
      </trkpt>
      <trkpt lat="33.611939" lon="-115.650328">
        <ele>603.097656</ele>
        <time>2020-07-03T18:28:42.000Z</time>
      </trkpt>
      <trkpt lat="33.61197" lon="-115.650251">
        <ele>603.296875</ele>
        <time>2020-07-03T18:28:43.000Z</time>
      </trkpt>
      <trkpt lat="33.611976" lon="-115.650218">
        <ele>602.699219</ele>
        <time>2020-07-03T18:28:46.000Z</time>
      </trkpt>
      <trkpt lat="33.611964" lon="-115.650122">
        <ele>602.500000</ele>
        <time>2020-07-03T18:28:47.000Z</time>
      </trkpt>
      <trkpt lat="33.611955" lon="-115.650094">
        <ele>603.097656</ele>
        <time>2020-07-03T18:28:50.000Z</time>
      </trkpt>
      <trkpt lat="33.611921" lon="-115.650018">
        <ele>603.097656</ele>
        <time>2020-07-03T18:28:51.000Z</time>
      </trkpt>
      <trkpt lat="33.611896" lon="-115.649981">
        <ele>603.699219</ele>
        <time>2020-07-03T18:28:58.000Z</time>
      </trkpt>
      <trkpt lat="33.611896" lon="-115.649981">
        <ele>603.699219</ele>
        <time>2020-07-03T18:28:58.000Z</time>
      </trkpt>
    </trkseg>
    <trkseg>
      <trkpt lat="33.608765" lon="-115.647317">
        <ele>599.097656</ele>
        <time>2020-07-03T18:34:53.000Z</time>
      </trkpt>
      <trkpt lat="33.608687" lon="-115.647229">
        <ele>598.296875</ele>
        <time>2020-07-03T18:35:00.000Z</time>
      </trkpt>
      <trkpt lat="33.608685" lon="-115.647228">
        <ele>598.500000</ele>
        <time>2020-07-03T18:35:27.000Z</time>
      </trkpt>
      <trkpt lat="33.60861" lon="-115.647169">
        <ele>597.898438</ele>
        <time>2020-07-03T18:35:28.000Z</time>
      </trkpt>
      <trkpt lat="33.608585" lon="-115.647158">
        <ele>597.597656</ele>
        <time>2020-07-03T18:35:31.000Z</time>
      </trkpt>
      <trkpt lat="33.608437" lon="-115.647105">
        <ele>597.796875</ele>
        <time>2020-07-03T18:35:34.000Z</time>
      </trkpt>
      <trkpt lat="33.608217" lon="-115.647038">
        <ele>601.296875</ele>
        <time>2020-07-03T18:35:41.000Z</time>
      </trkpt>
      <trkpt lat="33.608132" lon="-115.646991">
        <ele>603.500000</ele>
        <time>2020-07-03T18:35:44.000Z</time>
      </trkpt>
      <trkpt lat="33.608101" lon="-115.646971">
        <ele>602.796875</ele>
        <time>2020-07-03T18:35:46.000Z</time>
      </trkpt>
      <trkpt lat="33.608044" lon="-115.646916">
        <ele>602.296875</ele>
        <time>2020-07-03T18:35:47.000Z</time>
      </trkpt>
      <trkpt lat="33.608016" lon="-115.646887">
        <ele>601.796875</ele>
        <time>2020-07-03T18:35:49.000Z</time>
      </trkpt>
      <trkpt lat="33.607959" lon="-115.646846">
        <ele>602.097656</ele>
        <time>2020-07-03T18:35:50.000Z</time>
      </trkpt>
      <trkpt lat="33.607928" lon="-115.646832">
        <ele>603.296875</ele>
        <time>2020-07-03T18:35:52.000Z</time>
      </trkpt>
      <trkpt lat="33.607807" lon="-115.646778">
        <ele>604.199219</ele>
        <time>2020-07-03T18:35:55.000Z</time>
      </trkpt>
      <trkpt lat="33.607775" lon="-115.646766">
        <ele>605.097656</ele>
        <time>2020-07-03T18:35:57.000Z</time>
      </trkpt>
      <trkpt lat="33.607722" lon="-115.646738">
        <ele>605.097656</ele>
        <time>2020-07-03T18:35:59.000Z</time>
      </trkpt>
      <trkpt lat="33.607688" lon="-115.646699">
        <ele>604.097656</ele>
        <time>2020-07-03T18:36:02.000Z</time>
      </trkpt>
      <trkpt lat="33.607663" lon="-115.646633">
        <ele>603.699219</ele>
        <time>2020-07-03T18:36:04.000Z</time>
      </trkpt>
      <trkpt lat="33.607617" lon="-115.64654">
        <ele>603.097656</ele>
        <time>2020-07-03T18:36:07.000Z</time>
      </trkpt>
      <trkpt lat="33.607442" lon="-115.646249">
        <ele>603.296875</ele>
        <time>2020-07-03T18:36:17.000Z</time>
      </trkpt>
      <trkpt lat="33.607427" lon="-115.646215">
        <ele>602.796875</ele>
        <time>2020-07-03T18:36:20.000Z</time>
      </trkpt>
      <trkpt lat="33.607399" lon="-115.646127">
        <ele>602.796875</ele>
        <time>2020-07-03T18:36:21.000Z</time>
      </trkpt>
      <trkpt lat="33.607391" lon="-115.646098">
        <ele>602.500000</ele>
        <time>2020-07-03T18:36:24.000Z</time>
      </trkpt>
      <trkpt lat="33.60737" lon="-115.645966">
        <ele>603.000000</ele>
        <time>2020-07-03T18:36:27.000Z</time>
      </trkpt>
      <trkpt lat="33.607366" lon="-115.645941">
        <ele>603.796875</ele>
        <time>2020-07-03T18:36:31.000Z</time>
      </trkpt>
      <trkpt lat="33.607313" lon="-115.645859">
        <ele>604.097656</ele>
        <time>2020-07-03T18:36:32.000Z</time>
      </trkpt>
      <trkpt lat="33.607292" lon="-115.645853">
        <ele>604.398438</ele>
        <time>2020-07-03T18:36:36.000Z</time>
      </trkpt>
      <trkpt lat="33.607203" lon="-115.645857">
        <ele>604.500000</ele>
        <time>2020-07-03T18:36:37.000Z</time>
      </trkpt>
      <trkpt lat="33.607191" lon="-115.645854">
        <ele>602.398438</ele>
        <time>2020-07-03T18:36:45.000Z</time>
      </trkpt>
      <trkpt lat="33.607149" lon="-115.645765">
        <ele>602.000000</ele>
        <time>2020-07-03T18:36:46.000Z</time>
      </trkpt>
      <trkpt lat="33.607146" lon="-115.645748">
        <ele>600.699219</ele>
        <time>2020-07-03T18:36:51.000Z</time>
      </trkpt>
      <trkpt lat="33.607112" lon="-115.645565">
        <ele>599.097656</ele>
        <time>2020-07-03T18:36:55.000Z</time>
      </trkpt>
      <trkpt lat="33.607105" lon="-115.645541">
        <ele>598.597656</ele>
        <time>2020-07-03T18:36:58.000Z</time>
      </trkpt>
      <trkpt lat="33.607058" lon="-115.645421">
        <ele>598.199219</ele>
        <time>2020-07-03T18:37:00.000Z</time>
      </trkpt>
      <trkpt lat="33.607048" lon="-115.645395">
        <ele>597.097656</ele>
        <time>2020-07-03T18:37:04.000Z</time>
      </trkpt>
      <trkpt lat="33.606999" lon="-115.645312">
        <ele>596.796875</ele>
        <time>2020-07-03T18:37:05.000Z</time>
      </trkpt>
      <trkpt lat="33.606985" lon="-115.645297">
        <ele>596.199219</ele>
        <time>2020-07-03T18:37:10.000Z</time>
      </trkpt>
      <trkpt lat="33.606908" lon="-115.645247">
        <ele>596.296875</ele>
        <time>2020-07-03T18:37:11.000Z</time>
      </trkpt>
      <trkpt lat="33.606893" lon="-115.645238">
        <ele>595.796875</ele>
        <time>2020-07-03T18:37:17.000Z</time>
      </trkpt>
      <trkpt lat="33.606818" lon="-115.645202">
        <ele>595.597656</ele>
        <time>2020-07-03T18:37:18.000Z</time>
      </trkpt>
      <trkpt lat="33.606805" lon="-115.6452">
        <ele>596.296875</ele>
        <time>2020-07-03T18:37:24.000Z</time>
      </trkpt>
      <trkpt lat="33.606717" lon="-115.645162">
        <ele>596.000000</ele>
        <time>2020-07-03T18:37:25.000Z</time>
      </trkpt>
      <trkpt lat="33.606552" lon="-115.645091">
        <ele>595.097656</ele>
        <time>2020-07-03T18:37:33.000Z</time>
      </trkpt>
      <trkpt lat="33.606536" lon="-115.64508">
        <ele>593.699219</ele>
        <time>2020-07-03T18:37:38.000Z</time>
      </trkpt>
      <trkpt lat="33.606484" lon="-115.645012">
        <ele>593.199219</ele>
        <time>2020-07-03T18:37:40.000Z</time>
      </trkpt>
      <trkpt lat="33.606468" lon="-115.644987">
        <ele>590.597656</ele>
        <time>2020-07-03T18:37:46.000Z</time>
      </trkpt>
      <trkpt lat="33.606394" lon="-115.644953">
        <ele>590.097656</ele>
        <time>2020-07-03T18:37:47.000Z</time>
      </trkpt>
      <trkpt lat="33.606378" lon="-115.644957">
        <ele>589.000000</ele>
        <time>2020-07-03T18:37:58.000Z</time>
      </trkpt>
      <trkpt lat="33.606304" lon="-115.644986">
        <ele>588.500000</ele>
        <time>2020-07-03T18:38:00.000Z</time>
      </trkpt>
      <trkpt lat="33.60628" lon="-115.645002">
        <ele>588.000000</ele>
        <time>2020-07-03T18:38:04.000Z</time>
      </trkpt>
      <trkpt lat="33.606131" lon="-115.645113">
        <ele>590.500000</ele>
        <time>2020-07-03T18:38:11.000Z</time>
      </trkpt>
      <trkpt lat="33.606114" lon="-115.64512">
        <ele>592.796875</ele>
        <time>2020-07-03T18:38:15.000Z</time>
      </trkpt>
      <trkpt lat="33.60604" lon="-115.645142">
        <ele>592.796875</ele>
        <time>2020-07-03T18:38:16.000Z</time>
      </trkpt>
      <trkpt lat="33.606021" lon="-115.64514">
        <ele>593.199219</ele>
        <time>2020-07-03T18:38:20.000Z</time>
      </trkpt>
      <trkpt lat="33.605943" lon="-115.645133">
        <ele>592.796875</ele>
        <time>2020-07-03T18:38:21.000Z</time>
      </trkpt>
      <trkpt lat="33.60592" lon="-115.645137">
        <ele>590.898438</ele>
        <time>2020-07-03T18:38:25.000Z</time>
      </trkpt>
      <trkpt lat="33.605843" lon="-115.64517">
        <ele>590.699219</ele>
        <time>2020-07-03T18:38:26.000Z</time>
      </trkpt>
      <trkpt lat="33.605757" lon="-115.645211">
        <ele>589.097656</ele>
        <time>2020-07-03T18:38:30.000Z</time>
      </trkpt>
      <trkpt lat="33.605734" lon="-115.645225">
        <ele>587.199219</ele>
        <time>2020-07-03T18:38:33.000Z</time>
      </trkpt>
      <trkpt lat="33.60568" lon="-115.645276">
        <ele>587.597656</ele>
        <time>2020-07-03T18:38:35.000Z</time>
      </trkpt>
      <trkpt lat="33.605593" lon="-115.64535">
        <ele>587.796875</ele>
        <time>2020-07-03T18:38:39.000Z</time>
      </trkpt>
      <trkpt lat="33.605579" lon="-115.645367">
        <ele>588.097656</ele>
        <time>2020-07-03T18:38:43.000Z</time>
      </trkpt>
      <trkpt lat="33.605527" lon="-115.645449">
        <ele>588.199219</ele>
        <time>2020-07-03T18:38:44.000Z</time>
      </trkpt>
      <trkpt lat="33.605515" lon="-115.645471">
        <ele>589.398438</ele>
        <time>2020-07-03T18:38:48.000Z</time>
      </trkpt>
      <trkpt lat="33.605456" lon="-115.645529">
        <ele>589.699219</ele>
        <time>2020-07-03T18:38:49.000Z</time>
      </trkpt>
      <trkpt lat="33.605435" lon="-115.645533">
        <ele>590.199219</ele>
        <time>2020-07-03T18:38:52.000Z</time>
      </trkpt>
      <trkpt lat="33.605224" lon="-115.645578">
        <ele>591.097656</ele>
        <time>2020-07-03T18:38:58.000Z</time>
      </trkpt>
      <trkpt lat="33.605018" lon="-115.64566">
        <ele>587.597656</ele>
        <time>2020-07-03T18:39:11.000Z</time>
      </trkpt>
      <trkpt lat="33.605003" lon="-115.64567">
        <ele>586.500000</ele>
        <time>2020-07-03T18:39:16.000Z</time>
      </trkpt>
      <trkpt lat="33.604916" lon="-115.645746">
        <ele>586.796875</ele>
        <time>2020-07-03T18:39:18.000Z</time>
      </trkpt>
      <trkpt lat="33.604895" lon="-115.645755">
        <ele>587.199219</ele>
        <time>2020-07-03T18:39:21.000Z</time>
      </trkpt>
      <trkpt lat="33.604826" lon="-115.645755">
        <ele>587.000000</ele>
        <time>2020-07-03T18:39:22.000Z</time>
      </trkpt>
      <trkpt lat="33.6048" lon="-115.645751">
        <ele>587.699219</ele>
        <time>2020-07-03T18:39:25.000Z</time>
      </trkpt>
      <trkpt lat="33.604721" lon="-115.645714">
        <ele>587.796875</ele>
        <time>2020-07-03T18:39:26.000Z</time>
      </trkpt>
      <trkpt lat="33.604701" lon="-115.645701">
        <ele>588.097656</ele>
        <time>2020-07-03T18:39:29.000Z</time>
      </trkpt>
      <trkpt lat="33.604629" lon="-115.645634">
        <ele>588.000000</ele>
        <time>2020-07-03T18:39:30.000Z</time>
      </trkpt>
      <trkpt lat="33.604536" lon="-115.645532">
        <ele>588.500000</ele>
        <time>2020-07-03T18:39:34.000Z</time>
      </trkpt>
      <trkpt lat="33.604443" lon="-115.645431">
        <ele>588.398438</ele>
        <time>2020-07-03T18:39:38.000Z</time>
      </trkpt>
      <trkpt lat="33.604422" lon="-115.645403">
        <ele>588.898438</ele>
        <time>2020-07-03T18:39:40.000Z</time>
      </trkpt>
      <trkpt lat="33.604355" lon="-115.6453">
        <ele>589.500000</ele>
        <time>2020-07-03T18:39:43.000Z</time>
      </trkpt>
      <trkpt lat="33.604301" lon="-115.645203">
        <ele>589.398438</ele>
        <time>2020-07-03T18:39:47.000Z</time>
      </trkpt>
      <trkpt lat="33.604239" lon="-115.645083">
        <ele>588.296875</ele>
        <time>2020-07-03T18:39:54.000Z</time>
      </trkpt>
      <trkpt lat="33.604238" lon="-115.645082">
        <ele>587.199219</ele>
        <time>2020-07-03T18:40:10.000Z</time>
      </trkpt>
      <trkpt lat="33.604185" lon="-115.644993">
        <ele>587.199219</ele>
        <time>2020-07-03T18:40:11.000Z</time>
      </trkpt>
      <trkpt lat="33.604111" lon="-115.644876">
        <ele>586.199219</ele>
        <time>2020-07-03T18:40:21.000Z</time>
      </trkpt>
      <trkpt lat="33.604044" lon="-115.644797">
        <ele>585.796875</ele>
        <time>2020-07-03T18:40:26.000Z</time>
      </trkpt>
      <trkpt lat="33.604029" lon="-115.644783">
        <ele>585.000000</ele>
        <time>2020-07-03T18:40:29.000Z</time>
      </trkpt>
      <trkpt lat="33.603957" lon="-115.64474">
        <ele>585.398438</ele>
        <time>2020-07-03T18:40:30.000Z</time>
      </trkpt>
      <trkpt lat="33.603795" lon="-115.644659">
        <ele>585.398438</ele>
        <time>2020-07-03T18:40:36.000Z</time>
      </trkpt>
      <trkpt lat="33.603768" lon="-115.64464">
        <ele>585.296875</ele>
        <time>2020-07-03T18:40:38.000Z</time>
      </trkpt>
      <trkpt lat="33.603713" lon="-115.644592">
        <ele>585.199219</ele>
        <time>2020-07-03T18:40:39.000Z</time>
      </trkpt>
      <trkpt lat="33.603685" lon="-115.644563">
        <ele>585.097656</ele>
        <time>2020-07-03T18:40:41.000Z</time>
      </trkpt>
      <trkpt lat="33.603632" lon="-115.644503">
        <ele>585.097656</ele>
        <time>2020-07-03T18:40:42.000Z</time>
      </trkpt>
      <trkpt lat="33.60361" lon="-115.644473">
        <ele>584.699219</ele>
        <time>2020-07-03T18:40:44.000Z</time>
      </trkpt>
      <trkpt lat="33.603569" lon="-115.64441">
        <ele>584.500000</ele>
        <time>2020-07-03T18:40:45.000Z</time>
      </trkpt>
      <trkpt lat="33.603517" lon="-115.644308">
        <ele>584.000000</ele>
        <time>2020-07-03T18:40:48.000Z</time>
      </trkpt>
      <trkpt lat="33.603372" lon="-115.644045">
        <ele>582.296875</ele>
        <time>2020-07-03T18:40:56.000Z</time>
      </trkpt>
      <trkpt lat="33.603126" lon="-115.643637">
        <ele>580.296875</ele>
        <time>2020-07-03T18:41:08.000Z</time>
      </trkpt>
      <trkpt lat="33.602968" lon="-115.643317">
        <ele>580.500000</ele>
        <time>2020-07-03T18:41:17.000Z</time>
      </trkpt>
      <trkpt lat="33.60295" lon="-115.643287">
        <ele>580.500000</ele>
        <time>2020-07-03T18:41:19.000Z</time>
      </trkpt>
      <trkpt lat="33.602916" lon="-115.643216">
        <ele>580.097656</ele>
        <time>2020-07-03T18:41:20.000Z</time>
      </trkpt>
      <trkpt lat="33.602901" lon="-115.643176">
        <ele>579.796875</ele>
        <time>2020-07-03T18:41:22.000Z</time>
      </trkpt>
      <trkpt lat="33.602869" lon="-115.643088">
        <ele>579.699219</ele>
        <time>2020-07-03T18:41:23.000Z</time>
      </trkpt>
      <trkpt lat="33.60285" lon="-115.643046">
        <ele>580.000000</ele>
        <time>2020-07-03T18:41:25.000Z</time>
      </trkpt>
      <trkpt lat="33.602812" lon="-115.64297">
        <ele>580.097656</ele>
        <time>2020-07-03T18:41:26.000Z</time>
      </trkpt>
      <trkpt lat="33.602739" lon="-115.642837">
        <ele>580.199219</ele>
        <time>2020-07-03T18:41:30.000Z</time>
      </trkpt>
      <trkpt lat="33.602717" lon="-115.642805">
        <ele>579.898438</ele>
        <time>2020-07-03T18:41:32.000Z</time>
      </trkpt>
      <trkpt lat="33.602664" lon="-115.642745">
        <ele>579.699219</ele>
        <time>2020-07-03T18:41:33.000Z</time>
      </trkpt>
      <trkpt lat="33.602577" lon="-115.642665">
        <ele>579.000000</ele>
        <time>2020-07-03T18:41:36.000Z</time>
      </trkpt>
      <trkpt lat="33.602548" lon="-115.642641">
        <ele>578.898438</ele>
        <time>2020-07-03T18:41:38.000Z</time>
      </trkpt>
      <trkpt lat="33.602424" lon="-115.642551">
        <ele>579.597656</ele>
        <time>2020-07-03T18:41:41.000Z</time>
      </trkpt>
      <trkpt lat="33.602393" lon="-115.642521">
        <ele>579.796875</ele>
        <time>2020-07-03T18:41:43.000Z</time>
      </trkpt>
      <trkpt lat="33.602332" lon="-115.642457">
        <ele>579.796875</ele>
        <time>2020-07-03T18:41:44.000Z</time>
      </trkpt>
      <trkpt lat="33.60217" lon="-115.642287">
        <ele>579.699219</ele>
        <time>2020-07-03T18:41:50.000Z</time>
      </trkpt>
      <trkpt lat="33.602139" lon="-115.642265">
        <ele>579.199219</ele>
        <time>2020-07-03T18:41:52.000Z</time>
      </trkpt>
      <trkpt lat="33.602068" lon="-115.642224">
        <ele>578.898438</ele>
        <time>2020-07-03T18:41:53.000Z</time>
      </trkpt>
      <trkpt lat="33.602027" lon="-115.642208">
        <ele>578.296875</ele>
        <time>2020-07-03T18:41:55.000Z</time>
      </trkpt>
      <trkpt lat="33.601783" lon="-115.642096">
        <ele>577.000000</ele>
        <time>2020-07-03T18:42:00.000Z</time>
      </trkpt>
      <trkpt lat="33.601748" lon="-115.642075">
        <ele>576.199219</ele>
        <time>2020-07-03T18:42:02.000Z</time>
      </trkpt>
      <trkpt lat="33.601671" lon="-115.64202">
        <ele>575.898438</ele>
        <time>2020-07-03T18:42:03.000Z</time>
      </trkpt>
      <trkpt lat="33.601636" lon="-115.64199">
        <ele>575.398438</ele>
        <time>2020-07-03T18:42:05.000Z</time>
      </trkpt>
      <trkpt lat="33.601578" lon="-115.64193">
        <ele>575.500000</ele>
        <time>2020-07-03T18:42:06.000Z</time>
      </trkpt>
      <trkpt lat="33.601468" lon="-115.641816">
        <ele>575.000000</ele>
        <time>2020-07-03T18:42:10.000Z</time>
      </trkpt>
      <trkpt lat="33.601447" lon="-115.6418">
        <ele>573.699219</ele>
        <time>2020-07-03T18:42:13.000Z</time>
      </trkpt>
      <trkpt lat="33.601373" lon="-115.641764">
        <ele>573.398438</ele>
        <time>2020-07-03T18:42:14.000Z</time>
      </trkpt>
      <trkpt lat="33.601342" lon="-115.641754">
        <ele>572.898438</ele>
        <time>2020-07-03T18:42:16.000Z</time>
      </trkpt>
      <trkpt lat="33.601208" lon="-115.641705">
        <ele>572.898438</ele>
        <time>2020-07-03T18:42:19.000Z</time>
      </trkpt>
      <trkpt lat="33.601177" lon="-115.641687">
        <ele>572.597656</ele>
        <time>2020-07-03T18:42:21.000Z</time>
      </trkpt>
      <trkpt lat="33.600945" lon="-115.641536">
        <ele>573.898438</ele>
        <time>2020-07-03T18:42:28.000Z</time>
      </trkpt>
      <trkpt lat="33.600923" lon="-115.641517">
        <ele>574.199219</ele>
        <time>2020-07-03T18:42:31.000Z</time>
      </trkpt>
      <trkpt lat="33.600856" lon="-115.641456">
        <ele>574.000000</ele>
        <time>2020-07-03T18:42:32.000Z</time>
      </trkpt>
      <trkpt lat="33.600835" lon="-115.641434">
        <ele>574.898438</ele>
        <time>2020-07-03T18:42:35.000Z</time>
      </trkpt>
      <trkpt lat="33.600787" lon="-115.641359">
        <ele>574.796875</ele>
        <time>2020-07-03T18:42:36.000Z</time>
      </trkpt>
      <trkpt lat="33.600721" lon="-115.641242">
        <ele>575.398438</ele>
        <time>2020-07-03T18:42:40.000Z</time>
      </trkpt>
      <trkpt lat="33.600699" lon="-115.641219">
        <ele>575.699219</ele>
        <time>2020-07-03T18:42:43.000Z</time>
      </trkpt>
      <trkpt lat="33.600631" lon="-115.641165">
        <ele>575.699219</ele>
        <time>2020-07-03T18:42:44.000Z</time>
      </trkpt>
      <trkpt lat="33.600607" lon="-115.641149">
        <ele>575.000000</ele>
        <time>2020-07-03T18:42:47.000Z</time>
      </trkpt>
      <trkpt lat="33.600521" lon="-115.641106">
        <ele>574.500000</ele>
        <time>2020-07-03T18:42:48.000Z</time>
      </trkpt>
      <trkpt lat="33.600165" lon="-115.640923">
        <ele>573.000000</ele>
        <time>2020-07-03T18:43:02.000Z</time>
      </trkpt>
      <trkpt lat="33.600073" lon="-115.640888">
        <ele>572.699219</ele>
        <time>2020-07-03T18:43:06.000Z</time>
      </trkpt>
      <trkpt lat="33.600055" lon="-115.640878">
        <ele>571.898438</ele>
        <time>2020-07-03T18:43:10.000Z</time>
      </trkpt>
      <trkpt lat="33.599979" lon="-115.640821">
        <ele>572.097656</ele>
        <time>2020-07-03T18:43:11.000Z</time>
      </trkpt>
      <trkpt lat="33.59996" lon="-115.640803">
        <ele>571.398438</ele>
        <time>2020-07-03T18:43:14.000Z</time>
      </trkpt>
      <trkpt lat="33.599896" lon="-115.640726">
        <ele>571.097656</ele>
        <time>2020-07-03T18:43:15.000Z</time>
      </trkpt>
      <trkpt lat="33.599838" lon="-115.640642">
        <ele>570.500000</ele>
        <time>2020-07-03T18:43:18.000Z</time>
      </trkpt>
      <trkpt lat="33.599814" lon="-115.640617">
        <ele>570.296875</ele>
        <time>2020-07-03T18:43:20.000Z</time>
      </trkpt>
      <trkpt lat="33.599754" lon="-115.640571">
        <ele>570.500000</ele>
        <time>2020-07-03T18:43:21.000Z</time>
      </trkpt>
      <trkpt lat="33.599722" lon="-115.640553">
        <ele>570.500000</ele>
        <time>2020-07-03T18:43:23.000Z</time>
      </trkpt>
      <trkpt lat="33.599657" lon="-115.640531">
        <ele>570.398438</ele>
        <time>2020-07-03T18:43:24.000Z</time>
      </trkpt>
      <trkpt lat="33.599624" lon="-115.640525">
        <ele>570.199219</ele>
        <time>2020-07-03T18:43:26.000Z</time>
      </trkpt>
      <trkpt lat="33.59949" lon="-115.6405">
        <ele>571.000000</ele>
        <time>2020-07-03T18:43:29.000Z</time>
      </trkpt>
      <trkpt lat="33.599461" lon="-115.640485">
        <ele>570.898438</ele>
        <time>2020-07-03T18:43:32.000Z</time>
      </trkpt>
      <trkpt lat="33.599382" lon="-115.640436">
        <ele>571.296875</ele>
        <time>2020-07-03T18:43:33.000Z</time>
      </trkpt>
      <trkpt lat="33.599356" lon="-115.640418">
        <ele>572.199219</ele>
        <time>2020-07-03T18:43:36.000Z</time>
      </trkpt>
      <trkpt lat="33.599287" lon="-115.640351">
        <ele>571.898438</ele>
        <time>2020-07-03T18:43:37.000Z</time>
      </trkpt>
      <trkpt lat="33.599267" lon="-115.640322">
        <ele>571.500000</ele>
        <time>2020-07-03T18:43:39.000Z</time>
      </trkpt>
      <trkpt lat="33.599221" lon="-115.640262">
        <ele>571.296875</ele>
        <time>2020-07-03T18:43:40.000Z</time>
      </trkpt>
      <trkpt lat="33.599194" lon="-115.640236">
        <ele>570.796875</ele>
        <time>2020-07-03T18:43:42.000Z</time>
      </trkpt>
      <trkpt lat="33.599108" lon="-115.640153">
        <ele>570.500000</ele>
        <time>2020-07-03T18:43:44.000Z</time>
      </trkpt>
      <trkpt lat="33.599078" lon="-115.640132">
        <ele>569.796875</ele>
        <time>2020-07-03T18:43:46.000Z</time>
      </trkpt>
      <trkpt lat="33.598952" lon="-115.640046">
        <ele>569.597656</ele>
        <time>2020-07-03T18:43:49.000Z</time>
      </trkpt>
      <trkpt lat="33.598927" lon="-115.640021">
        <ele>570.000000</ele>
        <time>2020-07-03T18:43:51.000Z</time>
      </trkpt>
      <trkpt lat="33.598882" lon="-115.639964">
        <ele>570.097656</ele>
        <time>2020-07-03T18:43:52.000Z</time>
      </trkpt>
      <trkpt lat="33.59886" lon="-115.639934">
        <ele>569.898438</ele>
        <time>2020-07-03T18:43:54.000Z</time>
      </trkpt>
      <trkpt lat="33.598645" lon="-115.639628">
        <ele>568.699219</ele>
        <time>2020-07-03T18:44:02.000Z</time>
      </trkpt>
      <trkpt lat="33.59853" lon="-115.6395">
        <ele>569.699219</ele>
        <time>2020-07-03T18:44:07.000Z</time>
      </trkpt>
      <trkpt lat="33.598513" lon="-115.639474">
        <ele>569.296875</ele>
        <time>2020-07-03T18:44:10.000Z</time>
      </trkpt>
      <trkpt lat="33.598464" lon="-115.639377">
        <ele>569.199219</ele>
        <time>2020-07-03T18:44:11.000Z</time>
      </trkpt>
      <trkpt lat="33.598418" lon="-115.639278">
        <ele>568.597656</ele>
        <time>2020-07-03T18:44:14.000Z</time>
      </trkpt>
      <trkpt lat="33.598398" lon="-115.639246">
        <ele>568.097656</ele>
        <time>2020-07-03T18:44:16.000Z</time>
      </trkpt>
      <trkpt lat="33.598351" lon="-115.639183">
        <ele>568.097656</ele>
        <time>2020-07-03T18:44:17.000Z</time>
      </trkpt>
      <trkpt lat="33.598324" lon="-115.639154">
        <ele>568.500000</ele>
        <time>2020-07-03T18:44:19.000Z</time>
      </trkpt>
      <trkpt lat="33.5982" lon="-115.639015">
        <ele>569.699219</ele>
        <time>2020-07-03T18:44:23.000Z</time>
      </trkpt>
      <trkpt lat="33.598124" lon="-115.638903">
        <ele>570.097656</ele>
        <time>2020-07-03T18:44:27.000Z</time>
      </trkpt>
      <trkpt lat="33.598103" lon="-115.638861">
        <ele>569.699219</ele>
        <time>2020-07-03T18:44:29.000Z</time>
      </trkpt>
      <trkpt lat="33.598035" lon="-115.638696">
        <ele>569.796875</ele>
        <time>2020-07-03T18:44:32.000Z</time>
      </trkpt>
      <trkpt lat="33.598013" lon="-115.638661">
        <ele>570.296875</ele>
        <time>2020-07-03T18:44:34.000Z</time>
      </trkpt>
      <trkpt lat="33.597962" lon="-115.638606">
        <ele>570.597656</ele>
        <time>2020-07-03T18:44:35.000Z</time>
      </trkpt>
      <trkpt lat="33.597942" lon="-115.638589">
        <ele>570.097656</ele>
        <time>2020-07-03T18:44:38.000Z</time>
      </trkpt>
      <trkpt lat="33.59786" lon="-115.638556">
        <ele>569.898438</ele>
        <time>2020-07-03T18:44:39.000Z</time>
      </trkpt>
      <trkpt lat="33.597819" lon="-115.638555">
        <ele>569.398438</ele>
        <time>2020-07-03T18:44:41.000Z</time>
      </trkpt>
      <trkpt lat="33.597734" lon="-115.638589">
        <ele>568.699219</ele>
        <time>2020-07-03T18:44:42.000Z</time>
      </trkpt>
      <trkpt lat="33.597694" lon="-115.638617">
        <ele>568.199219</ele>
        <time>2020-07-03T18:44:43.000Z</time>
      </trkpt>
      <trkpt lat="33.597532" lon="-115.638727">
        <ele>565.898438</ele>
        <time>2020-07-03T18:44:47.000Z</time>
      </trkpt>
      <trkpt lat="33.597491" lon="-115.638748">
        <ele>565.296875</ele>
        <time>2020-07-03T18:44:49.000Z</time>
      </trkpt>
      <trkpt lat="33.597406" lon="-115.638782">
        <ele>565.097656</ele>
        <time>2020-07-03T18:44:50.000Z</time>
      </trkpt>
      <trkpt lat="33.597362" lon="-115.638794">
        <ele>565.097656</ele>
        <time>2020-07-03T18:44:51.000Z</time>
      </trkpt>
      <trkpt lat="33.597272" lon="-115.638811">
        <ele>565.199219</ele>
        <time>2020-07-03T18:44:53.000Z</time>
      </trkpt>
      <trkpt lat="33.597226" lon="-115.638811">
        <ele>565.699219</ele>
        <time>2020-07-03T18:44:55.000Z</time>
      </trkpt>
      <trkpt lat="33.597147" lon="-115.638789">
        <ele>565.699219</ele>
        <time>2020-07-03T18:44:56.000Z</time>
      </trkpt>
      <trkpt lat="33.597112" lon="-115.638775">
        <ele>565.500000</ele>
        <time>2020-07-03T18:44:58.000Z</time>
      </trkpt>
      <trkpt lat="33.597045" lon="-115.638734">
        <ele>565.199219</ele>
        <time>2020-07-03T18:44:59.000Z</time>
      </trkpt>
      <trkpt lat="33.59684" lon="-115.638617">
        <ele>566.199219</ele>
        <time>2020-07-03T18:45:04.000Z</time>
      </trkpt>
      <trkpt lat="33.596798" lon="-115.638602">
        <ele>565.500000</ele>
        <time>2020-07-03T18:45:06.000Z</time>
      </trkpt>
      <trkpt lat="33.596709" lon="-115.638591">
        <ele>565.199219</ele>
        <time>2020-07-03T18:45:07.000Z</time>
      </trkpt>
      <trkpt lat="33.596665" lon="-115.638598">
        <ele>565.000000</ele>
        <time>2020-07-03T18:45:09.000Z</time>
      </trkpt>
      <trkpt lat="33.596587" lon="-115.638624">
        <ele>565.000000</ele>
        <time>2020-07-03T18:45:10.000Z</time>
      </trkpt>
      <trkpt lat="33.596362" lon="-115.638711">
        <ele>563.597656</ele>
        <time>2020-07-03T18:45:15.000Z</time>
      </trkpt>
      <trkpt lat="33.596315" lon="-115.638717">
        <ele>563.699219</ele>
        <time>2020-07-03T18:45:16.000Z</time>
      </trkpt>
      <trkpt lat="33.596169" lon="-115.638723">
        <ele>564.699219</ele>
        <time>2020-07-03T18:45:19.000Z</time>
      </trkpt>
      <trkpt lat="33.596114" lon="-115.638719">
        <ele>564.597656</ele>
        <time>2020-07-03T18:45:20.000Z</time>
      </trkpt>
      <trkpt lat="33.595828" lon="-115.638681">
        <ele>565.000000</ele>
        <time>2020-07-03T18:45:26.000Z</time>
      </trkpt>
      <trkpt lat="33.595788" lon="-115.638673">
        <ele>564.699219</ele>
        <time>2020-07-03T18:45:28.000Z</time>
      </trkpt>
      <trkpt lat="33.595715" lon="-115.63864">
        <ele>564.597656</ele>
        <time>2020-07-03T18:45:29.000Z</time>
      </trkpt>
      <trkpt lat="33.595497" lon="-115.638529">
        <ele>562.699219</ele>
        <time>2020-07-03T18:45:35.000Z</time>
      </trkpt>
      <trkpt lat="33.595403" lon="-115.638498">
        <ele>563.097656</ele>
        <time>2020-07-03T18:45:38.000Z</time>
      </trkpt>
      <trkpt lat="33.59536" lon="-115.638489">
        <ele>562.796875</ele>
        <time>2020-07-03T18:45:39.000Z</time>
      </trkpt>
      <trkpt lat="33.59531" lon="-115.638487">
        <ele>561.199219</ele>
        <time>2020-07-03T18:45:40.000Z</time>
      </trkpt>
      <trkpt lat="33.595255" lon="-115.638497">
        <ele>560.699219</ele>
        <time>2020-07-03T18:45:41.000Z</time>
      </trkpt>
      <trkpt lat="33.595198" lon="-115.638514">
        <ele>560.296875</ele>
        <time>2020-07-03T18:45:42.000Z</time>
      </trkpt>
      <trkpt lat="33.594658" lon="-115.638683">
        <ele>559.796875</ele>
        <time>2020-07-03T18:45:51.000Z</time>
      </trkpt>
      <trkpt lat="33.594604" lon="-115.638689">
        <ele>560.296875</ele>
        <time>2020-07-03T18:45:52.000Z</time>
      </trkpt>
      <trkpt lat="33.594495" lon="-115.638691">
        <ele>561.000000</ele>
        <time>2020-07-03T18:45:54.000Z</time>
      </trkpt>
      <trkpt lat="33.594451" lon="-115.638687">
        <ele>561.597656</ele>
        <time>2020-07-03T18:45:56.000Z</time>
      </trkpt>
      <trkpt lat="33.594251" lon="-115.638666">
        <ele>562.296875</ele>
        <time>2020-07-03T18:46:01.000Z</time>
      </trkpt>
      <trkpt lat="33.594213" lon="-115.638654">
        <ele>561.398438</ele>
        <time>2020-07-03T18:46:03.000Z</time>
      </trkpt>
      <trkpt lat="33.594127" lon="-115.638612">
        <ele>561.296875</ele>
        <time>2020-07-03T18:46:04.000Z</time>
      </trkpt>
      <trkpt lat="33.594087" lon="-115.638582">
        <ele>561.296875</ele>
        <time>2020-07-03T18:46:05.000Z</time>
      </trkpt>
      <trkpt lat="33.594051" lon="-115.638551">
        <ele>561.097656</ele>
        <time>2020-07-03T18:46:07.000Z</time>
      </trkpt>
      <trkpt lat="33.59398" lon="-115.638482">
        <ele>560.898438</ele>
        <time>2020-07-03T18:46:08.000Z</time>
      </trkpt>
      <trkpt lat="33.593946" lon="-115.63844">
        <ele>561.000000</ele>
        <time>2020-07-03T18:46:09.000Z</time>
      </trkpt>
      <trkpt lat="33.593643" lon="-115.638066">
        <ele>559.500000</ele>
        <time>2020-07-03T18:46:21.000Z</time>
      </trkpt>
      <trkpt lat="33.593568" lon="-115.637998">
        <ele>559.898438</ele>
        <time>2020-07-03T18:46:24.000Z</time>
      </trkpt>
      <trkpt lat="33.593538" lon="-115.637976">
        <ele>559.597656</ele>
        <time>2020-07-03T18:46:26.000Z</time>
      </trkpt>
      <trkpt lat="33.593459" lon="-115.637925">
        <ele>559.398438</ele>
        <time>2020-07-03T18:46:27.000Z</time>
      </trkpt>
      <trkpt lat="33.593293" lon="-115.637824">
        <ele>560.199219</ele>
        <time>2020-07-03T18:46:31.000Z</time>
      </trkpt>
      <trkpt lat="33.593193" lon="-115.637731">
        <ele>559.398438</ele>
        <time>2020-07-03T18:46:35.000Z</time>
      </trkpt>
      <trkpt lat="33.592802" lon="-115.637353">
        <ele>559.796875</ele>
        <time>2020-07-03T18:46:47.000Z</time>
      </trkpt>
      <trkpt lat="33.592775" lon="-115.637336">
        <ele>560.000000</ele>
        <time>2020-07-03T18:46:49.000Z</time>
      </trkpt>
      <trkpt lat="33.592705" lon="-115.637303">
        <ele>560.398438</ele>
        <time>2020-07-03T18:46:50.000Z</time>
      </trkpt>
      <trkpt lat="33.592659" lon="-115.637286">
        <ele>560.000000</ele>
        <time>2020-07-03T18:46:51.000Z</time>
      </trkpt>
      <trkpt lat="33.592562" lon="-115.637258">
        <ele>558.898438</ele>
        <time>2020-07-03T18:46:53.000Z</time>
      </trkpt>
      <trkpt lat="33.592516" lon="-115.637252">
        <ele>558.597656</ele>
        <time>2020-07-03T18:46:54.000Z</time>
      </trkpt>
      <trkpt lat="33.592472" lon="-115.637251">
        <ele>557.898438</ele>
        <time>2020-07-03T18:46:56.000Z</time>
      </trkpt>
      <trkpt lat="33.592386" lon="-115.637262">
        <ele>557.398438</ele>
        <time>2020-07-03T18:46:57.000Z</time>
      </trkpt>
      <trkpt lat="33.592346" lon="-115.637276">
        <ele>556.199219</ele>
        <time>2020-07-03T18:46:59.000Z</time>
      </trkpt>
      <trkpt lat="33.592266" lon="-115.637318">
        <ele>555.699219</ele>
        <time>2020-07-03T18:47:00.000Z</time>
      </trkpt>
      <trkpt lat="33.592232" lon="-115.637344">
        <ele>554.398438</ele>
        <time>2020-07-03T18:47:02.000Z</time>
      </trkpt>
      <trkpt lat="33.592076" lon="-115.637467">
        <ele>553.398438</ele>
        <time>2020-07-03T18:47:07.000Z</time>
      </trkpt>
      <trkpt lat="33.591723" lon="-115.637784">
        <ele>558.199219</ele>
        <time>2020-07-03T18:47:18.000Z</time>
      </trkpt>
      <trkpt lat="33.591693" lon="-115.6378">
        <ele>558.398438</ele>
        <time>2020-07-03T18:47:20.000Z</time>
      </trkpt>
      <trkpt lat="33.591631" lon="-115.63782">
        <ele>558.796875</ele>
        <time>2020-07-03T18:47:21.000Z</time>
      </trkpt>
      <trkpt lat="33.5916" lon="-115.637822">
        <ele>558.796875</ele>
        <time>2020-07-03T18:47:23.000Z</time>
      </trkpt>
      <trkpt lat="33.59154" lon="-115.637815">
        <ele>558.898438</ele>
        <time>2020-07-03T18:47:25.000Z</time>
      </trkpt>
      <trkpt lat="33.591492" lon="-115.63779">
        <ele>558.000000</ele>
        <time>2020-07-03T18:47:27.000Z</time>
      </trkpt>
      <trkpt lat="33.591451" lon="-115.637755">
        <ele>557.296875</ele>
        <time>2020-07-03T18:47:29.000Z</time>
      </trkpt>
      <trkpt lat="33.591281" lon="-115.637599">
        <ele>558.398438</ele>
        <time>2020-07-03T18:47:35.000Z</time>
      </trkpt>
      <trkpt lat="33.591263" lon="-115.637573">
        <ele>558.296875</ele>
        <time>2020-07-03T18:47:38.000Z</time>
      </trkpt>
      <trkpt lat="33.591206" lon="-115.637511">
        <ele>558.398438</ele>
        <time>2020-07-03T18:47:39.000Z</time>
      </trkpt>
      <trkpt lat="33.591068" lon="-115.637374">
        <ele>558.898438</ele>
        <time>2020-07-03T18:47:46.000Z</time>
      </trkpt>
      <trkpt lat="33.590983" lon="-115.637305">
        <ele>556.898438</ele>
        <time>2020-07-03T18:47:50.000Z</time>
      </trkpt>
      <trkpt lat="33.590949" lon="-115.637283">
        <ele>556.597656</ele>
        <time>2020-07-03T18:47:52.000Z</time>
      </trkpt>
      <trkpt lat="33.590746" lon="-115.637144">
        <ele>556.500000</ele>
        <time>2020-07-03T18:47:56.000Z</time>
      </trkpt>
      <trkpt lat="33.590714" lon="-115.637115">
        <ele>556.898438</ele>
        <time>2020-07-03T18:47:58.000Z</time>
      </trkpt>
      <trkpt lat="33.590644" lon="-115.637038">
        <ele>557.000000</ele>
        <time>2020-07-03T18:48:00.000Z</time>
      </trkpt>
      <trkpt lat="33.590571" lon="-115.63696">
        <ele>557.398438</ele>
        <time>2020-07-03T18:48:03.000Z</time>
      </trkpt>
      <trkpt lat="33.590502" lon="-115.636877">
        <ele>556.500000</ele>
        <time>2020-07-03T18:48:06.000Z</time>
      </trkpt>
      <trkpt lat="33.590241" lon="-115.63655">
        <ele>555.000000</ele>
        <time>2020-07-03T18:48:17.000Z</time>
      </trkpt>
      <trkpt lat="33.590215" lon="-115.636529">
        <ele>554.296875</ele>
        <time>2020-07-03T18:48:19.000Z</time>
      </trkpt>
      <trkpt lat="33.590156" lon="-115.636498">
        <ele>554.000000</ele>
        <time>2020-07-03T18:48:20.000Z</time>
      </trkpt>
      <trkpt lat="33.590121" lon="-115.63649">
        <ele>552.296875</ele>
        <time>2020-07-03T18:48:22.000Z</time>
      </trkpt>
      <trkpt lat="33.590045" lon="-115.636488">
        <ele>551.398438</ele>
        <time>2020-07-03T18:48:23.000Z</time>
      </trkpt>
      <trkpt lat="33.589827" lon="-115.636489">
        <ele>550.398438</ele>
        <time>2020-07-03T18:48:28.000Z</time>
      </trkpt>
      <trkpt lat="33.589776" lon="-115.636476">
        <ele>550.097656</ele>
        <time>2020-07-03T18:48:29.000Z</time>
      </trkpt>
      <trkpt lat="33.589727" lon="-115.636457">
        <ele>550.296875</ele>
        <time>2020-07-03T18:48:30.000Z</time>
      </trkpt>
      <trkpt lat="33.589682" lon="-115.636434">
        <ele>550.597656</ele>
        <time>2020-07-03T18:48:31.000Z</time>
      </trkpt>
      <trkpt lat="33.589642" lon="-115.636411">
        <ele>551.199219</ele>
        <time>2020-07-03T18:48:33.000Z</time>
      </trkpt>
      <trkpt lat="33.589583" lon="-115.636372">
        <ele>551.199219</ele>
        <time>2020-07-03T18:48:34.000Z</time>
      </trkpt>
      <trkpt lat="33.589555" lon="-115.636352">
        <ele>551.500000</ele>
        <time>2020-07-03T18:48:36.000Z</time>
      </trkpt>
      <trkpt lat="33.589492" lon="-115.636295">
        <ele>551.597656</ele>
        <time>2020-07-03T18:48:37.000Z</time>
      </trkpt>
      <trkpt lat="33.589312" lon="-115.636136">
        <ele>552.597656</ele>
        <time>2020-07-03T18:48:42.000Z</time>
      </trkpt>
      <trkpt lat="33.589087" lon="-115.635977">
        <ele>553.898438</ele>
        <time>2020-07-03T18:48:50.000Z</time>
      </trkpt>
      <trkpt lat="33.588787" lon="-115.635801">
        <ele>550.199219</ele>
        <time>2020-07-03T18:48:59.000Z</time>
      </trkpt>
      <trkpt lat="33.588655" lon="-115.635753">
        <ele>550.398438</ele>
        <time>2020-07-03T18:49:02.000Z</time>
      </trkpt>
      <trkpt lat="33.588185" lon="-115.635604">
        <ele>551.500000</ele>
        <time>2020-07-03T18:49:16.000Z</time>
      </trkpt>
      <trkpt lat="33.588156" lon="-115.635599">
        <ele>549.000000</ele>
        <time>2020-07-03T18:49:18.000Z</time>
      </trkpt>
      <trkpt lat="33.588089" lon="-115.635596">
        <ele>549.296875</ele>
        <time>2020-07-03T18:49:19.000Z</time>
      </trkpt>
      <trkpt lat="33.588052" lon="-115.635602">
        <ele>548.597656</ele>
        <time>2020-07-03T18:49:21.000Z</time>
      </trkpt>
      <trkpt lat="33.587983" lon="-115.635618">
        <ele>548.097656</ele>
        <time>2020-07-03T18:49:22.000Z</time>
      </trkpt>
      <trkpt lat="33.587947" lon="-115.635629">
        <ele>547.000000</ele>
        <time>2020-07-03T18:49:24.000Z</time>
      </trkpt>
      <trkpt lat="33.58775" lon="-115.635687">
        <ele>545.898438</ele>
        <time>2020-07-03T18:49:28.000Z</time>
      </trkpt>
      <trkpt lat="33.587645" lon="-115.635703">
        <ele>545.500000</ele>
        <time>2020-07-03T18:49:31.000Z</time>
      </trkpt>
      <trkpt lat="33.587608" lon="-115.635705">
        <ele>545.500000</ele>
        <time>2020-07-03T18:49:33.000Z</time>
      </trkpt>
      <trkpt lat="33.58754" lon="-115.635699">
        <ele>545.500000</ele>
        <time>2020-07-03T18:49:34.000Z</time>
      </trkpt>
      <trkpt lat="33.587511" lon="-115.635692">
        <ele>545.398438</ele>
        <time>2020-07-03T18:49:37.000Z</time>
      </trkpt>
      <trkpt lat="33.587423" lon="-115.635654">
        <ele>545.097656</ele>
        <time>2020-07-03T18:49:38.000Z</time>
      </trkpt>
      <trkpt lat="33.587306" lon="-115.635605">
        <ele>543.597656</ele>
        <time>2020-07-03T18:49:41.000Z</time>
      </trkpt>
      <trkpt lat="33.587264" lon="-115.635593">
        <ele>542.796875</ele>
        <time>2020-07-03T18:49:43.000Z</time>
      </trkpt>
      <trkpt lat="33.587111" lon="-115.635561">
        <ele>541.500000</ele>
        <time>2020-07-03T18:49:46.000Z</time>
      </trkpt>
      <trkpt lat="33.587006" lon="-115.635547">
        <ele>541.796875</ele>
        <time>2020-07-03T18:49:49.000Z</time>
      </trkpt>
      <trkpt lat="33.586969" lon="-115.635545">
        <ele>542.296875</ele>
        <time>2020-07-03T18:49:51.000Z</time>
      </trkpt>
      <trkpt lat="33.586891" lon="-115.635551">
        <ele>542.597656</ele>
        <time>2020-07-03T18:49:52.000Z</time>
      </trkpt>
      <trkpt lat="33.586851" lon="-115.635559">
        <ele>543.500000</ele>
        <time>2020-07-03T18:49:54.000Z</time>
      </trkpt>
      <trkpt lat="33.586778" lon="-115.63558">
        <ele>543.898438</ele>
        <time>2020-07-03T18:49:55.000Z</time>
      </trkpt>
      <trkpt lat="33.586741" lon="-115.635594">
        <ele>545.097656</ele>
        <time>2020-07-03T18:49:57.000Z</time>
      </trkpt>
      <trkpt lat="33.586664" lon="-115.635614">
        <ele>544.796875</ele>
        <time>2020-07-03T18:49:58.000Z</time>
      </trkpt>
      <trkpt lat="33.586622" lon="-115.635622">
        <ele>545.500000</ele>
        <time>2020-07-03T18:50:00.000Z</time>
      </trkpt>
      <trkpt lat="33.58654" lon="-115.635618">
        <ele>546.097656</ele>
        <time>2020-07-03T18:50:01.000Z</time>
      </trkpt>
      <trkpt lat="33.586501" lon="-115.635606">
        <ele>547.597656</ele>
        <time>2020-07-03T18:50:03.000Z</time>
      </trkpt>
      <trkpt lat="33.58644" lon="-115.635574">
        <ele>548.097656</ele>
        <time>2020-07-03T18:50:04.000Z</time>
      </trkpt>
      <trkpt lat="33.586413" lon="-115.635555">
        <ele>548.296875</ele>
        <time>2020-07-03T18:50:07.000Z</time>
      </trkpt>
      <trkpt lat="33.586306" lon="-115.635483">
        <ele>547.296875</ele>
        <time>2020-07-03T18:50:09.000Z</time>
      </trkpt>
      <trkpt lat="33.586272" lon="-115.635469">
        <ele>547.500000</ele>
        <time>2020-07-03T18:50:11.000Z</time>
      </trkpt>
      <trkpt lat="33.586196" lon="-115.635453">
        <ele>547.699219</ele>
        <time>2020-07-03T18:50:12.000Z</time>
      </trkpt>
      <trkpt lat="33.586163" lon="-115.635451">
        <ele>547.597656</ele>
        <time>2020-07-03T18:50:14.000Z</time>
      </trkpt>
      <trkpt lat="33.58609" lon="-115.635457">
        <ele>547.500000</ele>
        <time>2020-07-03T18:50:15.000Z</time>
      </trkpt>
      <trkpt lat="33.586052" lon="-115.635465">
        <ele>547.199219</ele>
        <time>2020-07-03T18:50:17.000Z</time>
      </trkpt>
      <trkpt lat="33.585717" lon="-115.635531">
        <ele>544.097656</ele>
        <time>2020-07-03T18:50:24.000Z</time>
      </trkpt>
      <trkpt lat="33.585675" lon="-115.635534">
        <ele>544.699219</ele>
        <time>2020-07-03T18:50:26.000Z</time>
      </trkpt>
      <trkpt lat="33.585593" lon="-115.635531">
        <ele>545.000000</ele>
        <time>2020-07-03T18:50:27.000Z</time>
      </trkpt>
      <trkpt lat="33.585491" lon="-115.635516">
        <ele>545.199219</ele>
        <time>2020-07-03T18:50:30.000Z</time>
      </trkpt>
      <trkpt lat="33.585015" lon="-115.635429">
        <ele>545.699219</ele>
        <time>2020-07-03T18:50:42.000Z</time>
      </trkpt>
      <trkpt lat="33.584978" lon="-115.635429">
        <ele>545.796875</ele>
        <time>2020-07-03T18:50:44.000Z</time>
      </trkpt>
      <trkpt lat="33.584915" lon="-115.635436">
        <ele>545.898438</ele>
        <time>2020-07-03T18:50:45.000Z</time>
      </trkpt>
      <trkpt lat="33.584887" lon="-115.635445">
        <ele>545.796875</ele>
        <time>2020-07-03T18:50:48.000Z</time>
      </trkpt>
      <trkpt lat="33.584819" lon="-115.635486">
        <ele>545.500000</ele>
        <time>2020-07-03T18:50:49.000Z</time>
      </trkpt>
      <trkpt lat="33.584793" lon="-115.635506">
        <ele>544.898438</ele>
        <time>2020-07-03T18:50:51.000Z</time>
      </trkpt>
      <trkpt lat="33.584711" lon="-115.635576">
        <ele>545.296875</ele>
        <time>2020-07-03T18:50:53.000Z</time>
      </trkpt>
      <trkpt lat="33.584681" lon="-115.635588">
        <ele>545.199219</ele>
        <time>2020-07-03T18:50:56.000Z</time>
      </trkpt>
      <trkpt lat="33.584601" lon="-115.63559">
        <ele>545.097656</ele>
        <time>2020-07-03T18:50:57.000Z</time>
      </trkpt>
      <trkpt lat="33.584584" lon="-115.635586">
        <ele>545.296875</ele>
        <time>2020-07-03T18:51:01.000Z</time>
      </trkpt>
      <trkpt lat="33.584496" lon="-115.635556">
        <ele>545.097656</ele>
        <time>2020-07-03T18:51:02.000Z</time>
      </trkpt>
      <trkpt lat="33.584251" lon="-115.635464">
        <ele>544.500000</ele>
        <time>2020-07-03T18:51:10.000Z</time>
      </trkpt>
      <trkpt lat="33.584234" lon="-115.635455">
        <ele>544.000000</ele>
        <time>2020-07-03T18:51:13.000Z</time>
      </trkpt>
      <trkpt lat="33.584137" lon="-115.635391">
        <ele>544.500000</ele>
        <time>2020-07-03T18:51:15.000Z</time>
      </trkpt>
      <trkpt lat="33.584115" lon="-115.635375">
        <ele>544.398438</ele>
        <time>2020-07-03T18:51:19.000Z</time>
      </trkpt>
      <trkpt lat="33.584115" lon="-115.635375">
        <ele>544.398438</ele>
        <time>2020-07-03T18:51:19.000Z</time>
      </trkpt>
    </trkseg>
    <trkseg>
      <trkpt lat="33.584115" lon="-115.635367">
        <ele>545.699219</ele>
        <time>2020-07-03T18:53:46.000Z</time>
      </trkpt>
      <trkpt lat="33.583997" lon="-115.635279">
        <ele>544.199219</ele>
        <time>2020-07-03T18:54:57.000Z</time>
      </trkpt>
      <trkpt lat="33.583979" lon="-115.635259">
        <ele>544.199219</ele>
        <time>2020-07-03T18:55:00.000Z</time>
      </trkpt>
      <trkpt lat="33.583907" lon="-115.635165">
        <ele>543.597656</ele>
        <time>2020-07-03T18:55:02.000Z</time>
      </trkpt>
      <trkpt lat="33.583889" lon="-115.635136">
        <ele>543.199219</ele>
        <time>2020-07-03T18:55:04.000Z</time>
      </trkpt>
      <trkpt lat="33.583501" lon="-115.63454">
        <ele>544.500000</ele>
        <time>2020-07-03T18:55:22.000Z</time>
      </trkpt>
      <trkpt lat="33.583484" lon="-115.634521">
        <ele>544.597656</ele>
        <time>2020-07-03T18:55:25.000Z</time>
      </trkpt>
      <trkpt lat="33.58343" lon="-115.63445">
        <ele>544.500000</ele>
        <time>2020-07-03T18:55:26.000Z</time>
      </trkpt>
      <trkpt lat="33.583341" lon="-115.634329">
        <ele>544.398438</ele>
        <time>2020-07-03T18:55:30.000Z</time>
      </trkpt>
      <trkpt lat="33.583073" lon="-115.634009">
        <ele>542.199219</ele>
        <time>2020-07-03T18:55:40.000Z</time>
      </trkpt>
      <trkpt lat="33.582684" lon="-115.633414">
        <ele>540.699219</ele>
        <time>2020-07-03T18:55:59.000Z</time>
      </trkpt>
      <trkpt lat="33.582668" lon="-115.63338">
        <ele>540.597656</ele>
        <time>2020-07-03T18:56:01.000Z</time>
      </trkpt>
      <trkpt lat="33.582625" lon="-115.633282">
        <ele>540.500000</ele>
        <time>2020-07-03T18:56:03.000Z</time>
      </trkpt>
      <trkpt lat="33.582616" lon="-115.633251">
        <ele>540.699219</ele>
        <time>2020-07-03T18:56:07.000Z</time>
      </trkpt>
      <trkpt lat="33.582595" lon="-115.633155">
        <ele>540.699219</ele>
        <time>2020-07-03T18:56:13.000Z</time>
      </trkpt>
      <trkpt lat="33.582595" lon="-115.633155">
        <ele>540.699219</ele>
        <time>2020-07-03T18:56:13.000Z</time>
      </trkpt>
    </trkseg>
    <trkseg>
      <trkpt lat="33.578207" lon="-115.629324">
        <ele>523.699219</ele>
        <time>2020-07-03T19:03:55.000Z</time>
      </trkpt>
      <trkpt lat="33.578099" lon="-115.629327">
        <ele>521.597656</ele>
        <time>2020-07-03T19:04:01.000Z</time>
      </trkpt>
      <trkpt lat="33.578069" lon="-115.629324">
        <ele>521.000000</ele>
        <time>2020-07-03T19:04:03.000Z</time>
      </trkpt>
      <trkpt lat="33.578007" lon="-115.629311">
        <ele>520.898438</ele>
        <time>2020-07-03T19:04:04.000Z</time>
      </trkpt>
      <trkpt lat="33.577978" lon="-115.629304">
        <ele>520.296875</ele>
        <time>2020-07-03T19:04:06.000Z</time>
      </trkpt>
      <trkpt lat="33.577625" lon="-115.629195">
        <ele>523.500000</ele>
        <time>2020-07-03T19:04:15.000Z</time>
      </trkpt>
      <trkpt lat="33.577592" lon="-115.629179">
        <ele>524.699219</ele>
        <time>2020-07-03T19:04:17.000Z</time>
      </trkpt>
      <trkpt lat="33.577538" lon="-115.629148">
        <ele>525.000000</ele>
        <time>2020-07-03T19:04:19.000Z</time>
      </trkpt>
      <trkpt lat="33.57749" lon="-115.629105">
        <ele>525.796875</ele>
        <time>2020-07-03T19:04:21.000Z</time>
      </trkpt>
      <trkpt lat="33.577449" lon="-115.629055">
        <ele>526.097656</ele>
        <time>2020-07-03T19:04:23.000Z</time>
      </trkpt>
      <trkpt lat="33.577367" lon="-115.628946">
        <ele>526.398438</ele>
        <time>2020-07-03T19:04:26.000Z</time>
      </trkpt>
      <trkpt lat="33.577347" lon="-115.628924">
        <ele>526.796875</ele>
        <time>2020-07-03T19:04:29.000Z</time>
      </trkpt>
      <trkpt lat="33.577278" lon="-115.628865">
        <ele>526.796875</ele>
        <time>2020-07-03T19:04:30.000Z</time>
      </trkpt>
      <trkpt lat="33.57725" lon="-115.628853">
        <ele>525.398438</ele>
        <time>2020-07-03T19:04:32.000Z</time>
      </trkpt>
      <trkpt lat="33.577182" lon="-115.62884">
        <ele>524.398438</ele>
        <time>2020-07-03T19:04:33.000Z</time>
      </trkpt>
      <trkpt lat="33.577144" lon="-115.628843">
        <ele>523.296875</ele>
        <time>2020-07-03T19:04:35.000Z</time>
      </trkpt>
      <trkpt lat="33.576994" lon="-115.628865">
        <ele>522.199219</ele>
        <time>2020-07-03T19:04:38.000Z</time>
      </trkpt>
      <trkpt lat="33.576959" lon="-115.628865">
        <ele>523.097656</ele>
        <time>2020-07-03T19:04:40.000Z</time>
      </trkpt>
      <trkpt lat="33.576891" lon="-115.628855">
        <ele>523.398438</ele>
        <time>2020-07-03T19:04:41.000Z</time>
      </trkpt>
      <trkpt lat="33.576856" lon="-115.628845">
        <ele>523.000000</ele>
        <time>2020-07-03T19:04:43.000Z</time>
      </trkpt>
      <trkpt lat="33.57679" lon="-115.628813">
        <ele>523.296875</ele>
        <time>2020-07-03T19:04:44.000Z</time>
      </trkpt>
      <trkpt lat="33.576759" lon="-115.628789">
        <ele>523.796875</ele>
        <time>2020-07-03T19:04:46.000Z</time>
      </trkpt>
      <trkpt lat="33.576619" lon="-115.628674">
        <ele>523.796875</ele>
        <time>2020-07-03T19:04:51.000Z</time>
      </trkpt>
      <trkpt lat="33.576596" lon="-115.628657">
        <ele>520.898438</ele>
        <time>2020-07-03T19:04:54.000Z</time>
      </trkpt>
      <trkpt lat="33.576504" lon="-115.628626">
        <ele>520.500000</ele>
        <time>2020-07-03T19:04:55.000Z</time>
      </trkpt>
      <trkpt lat="33.576283" lon="-115.628541">
        <ele>521.597656</ele>
        <time>2020-07-03T19:05:02.000Z</time>
      </trkpt>
      <trkpt lat="33.576247" lon="-115.628522">
        <ele>522.398438</ele>
        <time>2020-07-03T19:05:04.000Z</time>
      </trkpt>
      <trkpt lat="33.576184" lon="-115.628479">
        <ele>522.699219</ele>
        <time>2020-07-03T19:05:05.000Z</time>
      </trkpt>
      <trkpt lat="33.57616" lon="-115.628458">
        <ele>523.898438</ele>
        <time>2020-07-03T19:05:08.000Z</time>
      </trkpt>
      <trkpt lat="33.576096" lon="-115.6284">
        <ele>523.597656</ele>
        <time>2020-07-03T19:05:09.000Z</time>
      </trkpt>
      <trkpt lat="33.576072" lon="-115.628387">
        <ele>521.597656</ele>
        <time>2020-07-03T19:05:12.000Z</time>
      </trkpt>
      <trkpt lat="33.575985" lon="-115.628358">
        <ele>521.199219</ele>
        <time>2020-07-03T19:05:13.000Z</time>
      </trkpt>
      <trkpt lat="33.575687" lon="-115.628265">
        <ele>518.898438</ele>
        <time>2020-07-03T19:05:22.000Z</time>
      </trkpt>
      <trkpt lat="33.575655" lon="-115.628249">
        <ele>519.296875</ele>
        <time>2020-07-03T19:05:24.000Z</time>
      </trkpt>
      <trkpt lat="33.57559" lon="-115.628205">
        <ele>519.597656</ele>
        <time>2020-07-03T19:05:25.000Z</time>
      </trkpt>
      <trkpt lat="33.575558" lon="-115.62818">
        <ele>520.097656</ele>
        <time>2020-07-03T19:05:27.000Z</time>
      </trkpt>
      <trkpt lat="33.575502" lon="-115.62813">
        <ele>520.500000</ele>
        <time>2020-07-03T19:05:28.000Z</time>
      </trkpt>
      <trkpt lat="33.575396" lon="-115.628035">
        <ele>522.500000</ele>
        <time>2020-07-03T19:05:32.000Z</time>
      </trkpt>
      <trkpt lat="33.575372" lon="-115.628022">
        <ele>520.500000</ele>
        <time>2020-07-03T19:05:35.000Z</time>
      </trkpt>
      <trkpt lat="33.575283" lon="-115.628018">
        <ele>519.898438</ele>
        <time>2020-07-03T19:05:36.000Z</time>
      </trkpt>
      <trkpt lat="33.575254" lon="-115.628025">
        <ele>519.296875</ele>
        <time>2020-07-03T19:05:39.000Z</time>
      </trkpt>
      <trkpt lat="33.575167" lon="-115.628054">
        <ele>518.898438</ele>
        <time>2020-07-03T19:05:40.000Z</time>
      </trkpt>
      <trkpt lat="33.575134" lon="-115.628067">
        <ele>519.699219</ele>
        <time>2020-07-03T19:05:42.000Z</time>
      </trkpt>
      <trkpt lat="33.575068" lon="-115.628083">
        <ele>520.296875</ele>
        <time>2020-07-03T19:05:43.000Z</time>
      </trkpt>
      <trkpt lat="33.575038" lon="-115.628087">
        <ele>520.796875</ele>
        <time>2020-07-03T19:05:45.000Z</time>
      </trkpt>
      <trkpt lat="33.574977" lon="-115.628088">
        <ele>520.796875</ele>
        <time>2020-07-03T19:05:47.000Z</time>
      </trkpt>
      <trkpt lat="33.574922" lon="-115.628076">
        <ele>521.097656</ele>
        <time>2020-07-03T19:05:49.000Z</time>
      </trkpt>
      <trkpt lat="33.574872" lon="-115.628054">
        <ele>520.898438</ele>
        <time>2020-07-03T19:05:51.000Z</time>
      </trkpt>
      <trkpt lat="33.574695" lon="-115.627957">
        <ele>521.199219</ele>
        <time>2020-07-03T19:05:57.000Z</time>
      </trkpt>
      <trkpt lat="33.574561" lon="-115.627879">
        <ele>522.398438</ele>
        <time>2020-07-03T19:06:02.000Z</time>
      </trkpt>
      <trkpt lat="33.574536" lon="-115.627868">
        <ele>522.199219</ele>
        <time>2020-07-03T19:06:05.000Z</time>
      </trkpt>
      <trkpt lat="33.574463" lon="-115.62786">
        <ele>521.796875</ele>
        <time>2020-07-03T19:06:06.000Z</time>
      </trkpt>
      <trkpt lat="33.57444" lon="-115.627864">
        <ele>519.398438</ele>
        <time>2020-07-03T19:06:09.000Z</time>
      </trkpt>
      <trkpt lat="33.57438" lon="-115.627902">
        <ele>518.398438</ele>
        <time>2020-07-03T19:06:10.000Z</time>
      </trkpt>
      <trkpt lat="33.574362" lon="-115.627921">
        <ele>516.097656</ele>
        <time>2020-07-03T19:06:12.000Z</time>
      </trkpt>
      <trkpt lat="33.574325" lon="-115.627989">
        <ele>515.500000</ele>
        <time>2020-07-03T19:06:13.000Z</time>
      </trkpt>
      <trkpt lat="33.574275" lon="-115.628101">
        <ele>515.097656</ele>
        <time>2020-07-03T19:06:16.000Z</time>
      </trkpt>
      <trkpt lat="33.574263" lon="-115.628133">
        <ele>515.597656</ele>
        <time>2020-07-03T19:06:18.000Z</time>
      </trkpt>
      <trkpt lat="33.574228" lon="-115.628197">
        <ele>516.097656</ele>
        <time>2020-07-03T19:06:19.000Z</time>
      </trkpt>
      <trkpt lat="33.574205" lon="-115.628228">
        <ele>517.296875</ele>
        <time>2020-07-03T19:06:21.000Z</time>
      </trkpt>
      <trkpt lat="33.57415" lon="-115.628275">
        <ele>518.000000</ele>
        <time>2020-07-03T19:06:22.000Z</time>
      </trkpt>
      <trkpt lat="33.574125" lon="-115.628291">
        <ele>519.500000</ele>
        <time>2020-07-03T19:06:25.000Z</time>
      </trkpt>
      <trkpt lat="33.574041" lon="-115.628321">
        <ele>519.796875</ele>
        <time>2020-07-03T19:06:26.000Z</time>
      </trkpt>
      <trkpt lat="33.574013" lon="-115.628326">
        <ele>520.500000</ele>
        <time>2020-07-03T19:06:29.000Z</time>
      </trkpt>
      <trkpt lat="33.573922" lon="-115.628328">
        <ele>520.597656</ele>
        <time>2020-07-03T19:06:30.000Z</time>
      </trkpt>
      <trkpt lat="33.573893" lon="-115.628323">
        <ele>521.296875</ele>
        <time>2020-07-03T19:06:33.000Z</time>
      </trkpt>
      <trkpt lat="33.573813" lon="-115.628277">
        <ele>521.796875</ele>
        <time>2020-07-03T19:06:34.000Z</time>
      </trkpt>
      <trkpt lat="33.57366" lon="-115.628184">
        <ele>521.398438</ele>
        <time>2020-07-03T19:06:39.000Z</time>
      </trkpt>
      <trkpt lat="33.573629" lon="-115.62817">
        <ele>520.398438</ele>
        <time>2020-07-03T19:06:42.000Z</time>
      </trkpt>
      <trkpt lat="33.573449" lon="-115.628086">
        <ele>520.699219</ele>
        <time>2020-07-03T19:06:47.000Z</time>
      </trkpt>
      <trkpt lat="33.573425" lon="-115.628071">
        <ele>519.398438</ele>
        <time>2020-07-03T19:06:50.000Z</time>
      </trkpt>
      <trkpt lat="33.573336" lon="-115.628035">
        <ele>519.097656</ele>
        <time>2020-07-03T19:06:51.000Z</time>
      </trkpt>
      <trkpt lat="33.573302" lon="-115.628025">
        <ele>518.597656</ele>
        <time>2020-07-03T19:06:53.000Z</time>
      </trkpt>
      <trkpt lat="33.57319" lon="-115.627997">
        <ele>518.597656</ele>
        <time>2020-07-03T19:06:55.000Z</time>
      </trkpt>
      <trkpt lat="33.572996" lon="-115.62795">
        <ele>518.500000</ele>
        <time>2020-07-03T19:07:01.000Z</time>
      </trkpt>
      <trkpt lat="33.572908" lon="-115.627913">
        <ele>519.000000</ele>
        <time>2020-07-03T19:07:04.000Z</time>
      </trkpt>
      <trkpt lat="33.572819" lon="-115.627861">
        <ele>519.296875</ele>
        <time>2020-07-03T19:07:08.000Z</time>
      </trkpt>
      <trkpt lat="33.572637" lon="-115.627738">
        <ele>518.199219</ele>
        <time>2020-07-03T19:07:23.000Z</time>
      </trkpt>
      <trkpt lat="33.572625" lon="-115.627732">
        <ele>517.597656</ele>
        <time>2020-07-03T19:07:27.000Z</time>
      </trkpt>
      <trkpt lat="33.572562" lon="-115.627675">
        <ele>516.898438</ele>
        <time>2020-07-03T19:07:28.000Z</time>
      </trkpt>
      <trkpt lat="33.572543" lon="-115.627659">
        <ele>516.296875</ele>
        <time>2020-07-03T19:07:31.000Z</time>
      </trkpt>
      <trkpt lat="33.572497" lon="-115.627591">
        <ele>515.898438</ele>
        <time>2020-07-03T19:07:32.000Z</time>
      </trkpt>
      <trkpt lat="33.572484" lon="-115.627565">
        <ele>515.199219</ele>
        <time>2020-07-03T19:07:35.000Z</time>
      </trkpt>
      <trkpt lat="33.572414" lon="-115.627432">
        <ele>515.296875</ele>
        <time>2020-07-03T19:07:38.000Z</time>
      </trkpt>
      <trkpt lat="33.572355" lon="-115.627302">
        <ele>515.398438</ele>
        <time>2020-07-03T19:07:43.000Z</time>
      </trkpt>
      <trkpt lat="33.572339" lon="-115.627275">
        <ele>515.597656</ele>
        <time>2020-07-03T19:07:46.000Z</time>
      </trkpt>
      <trkpt lat="33.572278" lon="-115.627189">
        <ele>515.796875</ele>
        <time>2020-07-03T19:07:48.000Z</time>
      </trkpt>
      <trkpt lat="33.572261" lon="-115.627169">
        <ele>515.500000</ele>
        <time>2020-07-03T19:07:51.000Z</time>
      </trkpt>
      <trkpt lat="33.572122" lon="-115.627034">
        <ele>514.597656</ele>
        <time>2020-07-03T19:07:55.000Z</time>
      </trkpt>
      <trkpt lat="33.572093" lon="-115.627004">
        <ele>514.000000</ele>
        <time>2020-07-03T19:07:57.000Z</time>
      </trkpt>
      <trkpt lat="33.572022" lon="-115.626943">
        <ele>513.398438</ele>
        <time>2020-07-03T19:07:58.000Z</time>
      </trkpt>
      <trkpt lat="33.571981" lon="-115.626919">
        <ele>512.796875</ele>
        <time>2020-07-03T19:07:59.000Z</time>
      </trkpt>
      <trkpt lat="33.571855" lon="-115.626862">
        <ele>511.500000</ele>
        <time>2020-07-03T19:08:02.000Z</time>
      </trkpt>
      <trkpt lat="33.571672" lon="-115.626779">
        <ele>510.597656</ele>
        <time>2020-07-03T19:08:07.000Z</time>
      </trkpt>
      <trkpt lat="33.57156" lon="-115.62671">
        <ele>510.199219</ele>
        <time>2020-07-03T19:08:10.000Z</time>
      </trkpt>
      <trkpt lat="33.57152" lon="-115.626688">
        <ele>509.898438</ele>
        <time>2020-07-03T19:08:12.000Z</time>
      </trkpt>
      <trkpt lat="33.571442" lon="-115.62665">
        <ele>509.796875</ele>
        <time>2020-07-03T19:08:13.000Z</time>
      </trkpt>
      <trkpt lat="33.571405" lon="-115.626637">
        <ele>509.597656</ele>
        <time>2020-07-03T19:08:15.000Z</time>
      </trkpt>
      <trkpt lat="33.571337" lon="-115.626616">
        <ele>509.699219</ele>
        <time>2020-07-03T19:08:16.000Z</time>
      </trkpt>
      <trkpt lat="33.571246" lon="-115.626595">
        <ele>510.097656</ele>
        <time>2020-07-03T19:08:19.000Z</time>
      </trkpt>
      <trkpt lat="33.571152" lon="-115.626585">
        <ele>510.296875</ele>
        <time>2020-07-03T19:08:22.000Z</time>
      </trkpt>
      <trkpt lat="33.570981" lon="-115.626571">
        <ele>510.296875</ele>
        <time>2020-07-03T19:08:28.000Z</time>
      </trkpt>
      <trkpt lat="33.570953" lon="-115.626561">
        <ele>510.199219</ele>
        <time>2020-07-03T19:08:30.000Z</time>
      </trkpt>
      <trkpt lat="33.570893" lon="-115.626536">
        <ele>509.296875</ele>
        <time>2020-07-03T19:08:31.000Z</time>
      </trkpt>
      <trkpt lat="33.570425" lon="-115.626343">
        <ele>504.796875</ele>
        <time>2020-07-03T19:08:43.000Z</time>
      </trkpt>
      <trkpt lat="33.57039" lon="-115.626323">
        <ele>504.699219</ele>
        <time>2020-07-03T19:08:45.000Z</time>
      </trkpt>
      <trkpt lat="33.570322" lon="-115.626273">
        <ele>504.597656</ele>
        <time>2020-07-03T19:08:46.000Z</time>
      </trkpt>
      <trkpt lat="33.570287" lon="-115.626246">
        <ele>504.796875</ele>
        <time>2020-07-03T19:08:48.000Z</time>
      </trkpt>
      <trkpt lat="33.570224" lon="-115.626179">
        <ele>503.898438</ele>
        <time>2020-07-03T19:08:49.000Z</time>
      </trkpt>
      <trkpt lat="33.569977" lon="-115.625928">
        <ele>500.796875</ele>
        <time>2020-07-03T19:08:56.000Z</time>
      </trkpt>
      <trkpt lat="33.569459" lon="-115.625494">
        <ele>501.199219</ele>
        <time>2020-07-03T19:09:11.000Z</time>
      </trkpt>
      <trkpt lat="33.569301" lon="-115.625345">
        <ele>503.000000</ele>
        <time>2020-07-03T19:09:17.000Z</time>
      </trkpt>
      <trkpt lat="33.569273" lon="-115.625324">
        <ele>503.796875</ele>
        <time>2020-07-03T19:09:19.000Z</time>
      </trkpt>
      <trkpt lat="33.569168" lon="-115.625253">
        <ele>504.398438</ele>
        <time>2020-07-03T19:09:22.000Z</time>
      </trkpt>
      <trkpt lat="33.569143" lon="-115.625239">
        <ele>504.796875</ele>
        <time>2020-07-03T19:09:25.000Z</time>
      </trkpt>
      <trkpt lat="33.569054" lon="-115.625199">
        <ele>504.796875</ele>
        <time>2020-07-03T19:09:26.000Z</time>
      </trkpt>
      <trkpt lat="33.569021" lon="-115.625191">
        <ele>504.296875</ele>
        <time>2020-07-03T19:09:28.000Z</time>
      </trkpt>
      <trkpt lat="33.568929" lon="-115.625174">
        <ele>503.296875</ele>
        <time>2020-07-03T19:09:30.000Z</time>
      </trkpt>
      <trkpt lat="33.568835" lon="-115.625168">
        <ele>502.296875</ele>
        <time>2020-07-03T19:09:33.000Z</time>
      </trkpt>
      <trkpt lat="33.568811" lon="-115.625168">
        <ele>501.398438</ele>
        <time>2020-07-03T19:09:36.000Z</time>
      </trkpt>
      <trkpt lat="33.568744" lon="-115.625177">
        <ele>500.398438</ele>
        <time>2020-07-03T19:09:38.000Z</time>
      </trkpt>
      <trkpt lat="33.568701" lon="-115.625192">
        <ele>498.597656</ele>
        <time>2020-07-03T19:09:41.000Z</time>
      </trkpt>
      <trkpt lat="33.568636" lon="-115.625224">
        <ele>498.000000</ele>
        <time>2020-07-03T19:09:42.000Z</time>
      </trkpt>
      <trkpt lat="33.568552" lon="-115.625279">
        <ele>495.500000</ele>
        <time>2020-07-03T19:09:46.000Z</time>
      </trkpt>
      <trkpt lat="33.568532" lon="-115.625293">
        <ele>493.796875</ele>
        <time>2020-07-03T19:09:49.000Z</time>
      </trkpt>
      <trkpt lat="33.568477" lon="-115.62535">
        <ele>493.296875</ele>
        <time>2020-07-03T19:09:50.000Z</time>
      </trkpt>
      <trkpt lat="33.568461" lon="-115.625376">
        <ele>490.296875</ele>
        <time>2020-07-03T19:09:53.000Z</time>
      </trkpt>
      <trkpt lat="33.568423" lon="-115.625462">
        <ele>489.597656</ele>
        <time>2020-07-03T19:09:54.000Z</time>
      </trkpt>
      <trkpt lat="33.568411" lon="-115.625488">
        <ele>487.398438</ele>
        <time>2020-07-03T19:09:57.000Z</time>
      </trkpt>
      <trkpt lat="33.56837" lon="-115.625553">
        <ele>485.796875</ele>
        <time>2020-07-03T19:09:59.000Z</time>
      </trkpt>
      <trkpt lat="33.56834" lon="-115.625582">
        <ele>485.199219</ele>
        <time>2020-07-03T19:10:02.000Z</time>
      </trkpt>
      <trkpt lat="33.568271" lon="-115.625624">
        <ele>485.000000</ele>
        <time>2020-07-03T19:10:03.000Z</time>
      </trkpt>
      <trkpt lat="33.568048" lon="-115.625749">
        <ele>489.296875</ele>
        <time>2020-07-03T19:10:10.000Z</time>
      </trkpt>
      <trkpt lat="33.568022" lon="-115.625759">
        <ele>490.796875</ele>
        <time>2020-07-03T19:10:12.000Z</time>
      </trkpt>
      <trkpt lat="33.567957" lon="-115.625764">
        <ele>491.097656</ele>
        <time>2020-07-03T19:10:13.000Z</time>
      </trkpt>
      <trkpt lat="33.567923" lon="-115.625757">
        <ele>491.597656</ele>
        <time>2020-07-03T19:10:15.000Z</time>
      </trkpt>
      <trkpt lat="33.567858" lon="-115.625726">
        <ele>491.199219</ele>
        <time>2020-07-03T19:10:16.000Z</time>
      </trkpt>
      <trkpt lat="33.567827" lon="-115.625709">
        <ele>491.597656</ele>
        <time>2020-07-03T19:10:18.000Z</time>
      </trkpt>
      <trkpt lat="33.567769" lon="-115.625667">
        <ele>491.898438</ele>
        <time>2020-07-03T19:10:19.000Z</time>
      </trkpt>
      <trkpt lat="33.567355" lon="-115.62537">
        <ele>490.796875</ele>
        <time>2020-07-03T19:10:34.000Z</time>
      </trkpt>
      <trkpt lat="33.567328" lon="-115.625355">
        <ele>489.500000</ele>
        <time>2020-07-03T19:10:36.000Z</time>
      </trkpt>
      <trkpt lat="33.567269" lon="-115.625334">
        <ele>488.796875</ele>
        <time>2020-07-03T19:10:37.000Z</time>
      </trkpt>
      <trkpt lat="33.567114" lon="-115.625284">
        <ele>487.500000</ele>
        <time>2020-07-03T19:10:42.000Z</time>
      </trkpt>
      <trkpt lat="33.567083" lon="-115.625267">
        <ele>487.597656</ele>
        <time>2020-07-03T19:10:44.000Z</time>
      </trkpt>
      <trkpt lat="33.567025" lon="-115.62523">
        <ele>487.796875</ele>
        <time>2020-07-03T19:10:45.000Z</time>
      </trkpt>
      <trkpt lat="33.566998" lon="-115.625206">
        <ele>487.898438</ele>
        <time>2020-07-03T19:10:47.000Z</time>
      </trkpt>
      <trkpt lat="33.566951" lon="-115.625156">
        <ele>488.199219</ele>
        <time>2020-07-03T19:10:48.000Z</time>
      </trkpt>
      <trkpt lat="33.566838" lon="-115.625042">
        <ele>488.000000</ele>
        <time>2020-07-03T19:10:53.000Z</time>
      </trkpt>
      <trkpt lat="33.56672" lon="-115.624952">
        <ele>487.796875</ele>
        <time>2020-07-03T19:10:58.000Z</time>
      </trkpt>
      <trkpt lat="33.566422" lon="-115.624774">
        <ele>490.000000</ele>
        <time>2020-07-03T19:11:08.000Z</time>
      </trkpt>
      <trkpt lat="33.56639" lon="-115.62476">
        <ele>489.699219</ele>
        <time>2020-07-03T19:11:10.000Z</time>
      </trkpt>
      <trkpt lat="33.566325" lon="-115.624745">
        <ele>489.699219</ele>
        <time>2020-07-03T19:11:11.000Z</time>
      </trkpt>
      <trkpt lat="33.566291" lon="-115.62474">
        <ele>489.199219</ele>
        <time>2020-07-03T19:11:13.000Z</time>
      </trkpt>
      <trkpt lat="33.566228" lon="-115.624736">
        <ele>488.699219</ele>
        <time>2020-07-03T19:11:15.000Z</time>
      </trkpt>
      <trkpt lat="33.566176" lon="-115.624725">
        <ele>489.000000</ele>
        <time>2020-07-03T19:11:17.000Z</time>
      </trkpt>
      <trkpt lat="33.566123" lon="-115.624694">
        <ele>489.199219</ele>
        <time>2020-07-03T19:11:19.000Z</time>
      </trkpt>
      <trkpt lat="33.566077" lon="-115.624651">
        <ele>489.296875</ele>
        <time>2020-07-03T19:11:21.000Z</time>
      </trkpt>
      <trkpt lat="33.565957" lon="-115.624548">
        <ele>489.199219</ele>
        <time>2020-07-03T19:11:26.000Z</time>
      </trkpt>
      <trkpt lat="33.565929" lon="-115.624533">
        <ele>487.597656</ele>
        <time>2020-07-03T19:11:28.000Z</time>
      </trkpt>
      <trkpt lat="33.565791" lon="-115.624473">
        <ele>487.796875</ele>
        <time>2020-07-03T19:11:31.000Z</time>
      </trkpt>
      <trkpt lat="33.565527" lon="-115.624354">
        <ele>488.398438</ele>
        <time>2020-07-03T19:11:41.000Z</time>
      </trkpt>
      <trkpt lat="33.565504" lon="-115.624338">
        <ele>488.398438</ele>
        <time>2020-07-03T19:11:44.000Z</time>
      </trkpt>
      <trkpt lat="33.565444" lon="-115.624309">
        <ele>488.898438</ele>
        <time>2020-07-03T19:11:46.000Z</time>
      </trkpt>
      <trkpt lat="33.565392" lon="-115.624289">
        <ele>488.898438</ele>
        <time>2020-07-03T19:11:48.000Z</time>
      </trkpt>
      <trkpt lat="33.565334" lon="-115.624276">
        <ele>489.097656</ele>
        <time>2020-07-03T19:11:50.000Z</time>
      </trkpt>
      <trkpt lat="33.56508" lon="-115.624223">
        <ele>490.597656</ele>
        <time>2020-07-03T19:11:57.000Z</time>
      </trkpt>
      <trkpt lat="33.565051" lon="-115.624208">
        <ele>490.796875</ele>
        <time>2020-07-03T19:12:00.000Z</time>
      </trkpt>
      <trkpt lat="33.564945" lon="-115.624164">
        <ele>490.296875</ele>
        <time>2020-07-03T19:12:02.000Z</time>
      </trkpt>
      <trkpt lat="33.564813" lon="-115.624123">
        <ele>489.199219</ele>
        <time>2020-07-03T19:12:07.000Z</time>
      </trkpt>
      <trkpt lat="33.564696" lon="-115.624104">
        <ele>489.898438</ele>
        <time>2020-07-03T19:12:11.000Z</time>
      </trkpt>
      <trkpt lat="33.564663" lon="-115.624095">
        <ele>490.398438</ele>
        <time>2020-07-03T19:12:13.000Z</time>
      </trkpt>
      <trkpt lat="33.564606" lon="-115.624073">
        <ele>491.699219</ele>
        <time>2020-07-03T19:12:15.000Z</time>
      </trkpt>
      <trkpt lat="33.564511" lon="-115.624028">
        <ele>492.796875</ele>
        <time>2020-07-03T19:12:18.000Z</time>
      </trkpt>
      <trkpt lat="33.564415" lon="-115.62398">
        <ele>493.000000</ele>
        <time>2020-07-03T19:12:22.000Z</time>
      </trkpt>
      <trkpt lat="33.564383" lon="-115.623968">
        <ele>492.898438</ele>
        <time>2020-07-03T19:12:24.000Z</time>
      </trkpt>
      <trkpt lat="33.564291" lon="-115.623939">
        <ele>493.199219</ele>
        <time>2020-07-03T19:12:26.000Z</time>
      </trkpt>
      <trkpt lat="33.564264" lon="-115.623935">
        <ele>493.097656</ele>
        <time>2020-07-03T19:12:30.000Z</time>
      </trkpt>
      <trkpt lat="33.564195" lon="-115.623935">
        <ele>492.699219</ele>
        <time>2020-07-03T19:12:32.000Z</time>
      </trkpt>
      <trkpt lat="33.564173" lon="-115.623943">
        <ele>489.898438</ele>
        <time>2020-07-03T19:12:36.000Z</time>
      </trkpt>
      <trkpt lat="33.564122" lon="-115.624">
        <ele>489.296875</ele>
        <time>2020-07-03T19:12:37.000Z</time>
      </trkpt>
      <trkpt lat="33.564107" lon="-115.624029">
        <ele>487.500000</ele>
        <time>2020-07-03T19:12:39.000Z</time>
      </trkpt>
      <trkpt lat="33.564078" lon="-115.624097">
        <ele>486.597656</ele>
        <time>2020-07-03T19:12:40.000Z</time>
      </trkpt>
      <trkpt lat="33.564067" lon="-115.624133">
        <ele>485.199219</ele>
        <time>2020-07-03T19:12:42.000Z</time>
      </trkpt>
      <trkpt lat="33.564048" lon="-115.624203">
        <ele>484.199219</ele>
        <time>2020-07-03T19:12:44.000Z</time>
      </trkpt>
      <trkpt lat="33.564024" lon="-115.624265">
        <ele>483.097656</ele>
        <time>2020-07-03T19:12:46.000Z</time>
      </trkpt>
      <trkpt lat="33.563994" lon="-115.624323">
        <ele>482.500000</ele>
        <time>2020-07-03T19:12:48.000Z</time>
      </trkpt>
      <trkpt lat="33.563953" lon="-115.624375">
        <ele>482.097656</ele>
        <time>2020-07-03T19:12:50.000Z</time>
      </trkpt>
      <trkpt lat="33.563908" lon="-115.624414">
        <ele>482.597656</ele>
        <time>2020-07-03T19:12:52.000Z</time>
      </trkpt>
      <trkpt lat="33.56385" lon="-115.624442">
        <ele>482.796875</ele>
        <time>2020-07-03T19:12:53.000Z</time>
      </trkpt>
      <trkpt lat="33.563817" lon="-115.624449">
        <ele>483.000000</ele>
        <time>2020-07-03T19:12:55.000Z</time>
      </trkpt>
      <trkpt lat="33.563754" lon="-115.624455">
        <ele>483.097656</ele>
        <time>2020-07-03T19:12:56.000Z</time>
      </trkpt>
      <trkpt lat="33.563725" lon="-115.624458">
        <ele>482.898438</ele>
        <time>2020-07-03T19:12:58.000Z</time>
      </trkpt>
      <trkpt lat="33.563663" lon="-115.624455">
        <ele>483.000000</ele>
        <time>2020-07-03T19:12:59.000Z</time>
      </trkpt>
      <trkpt lat="33.563633" lon="-115.624448">
        <ele>483.199219</ele>
        <time>2020-07-03T19:13:01.000Z</time>
      </trkpt>
      <trkpt lat="33.563569" lon="-115.624429">
        <ele>483.199219</ele>
        <time>2020-07-03T19:13:02.000Z</time>
      </trkpt>
      <trkpt lat="33.563539" lon="-115.624416">
        <ele>484.296875</ele>
        <time>2020-07-03T19:13:04.000Z</time>
      </trkpt>
      <trkpt lat="33.562895" lon="-115.624146">
        <ele>483.796875</ele>
        <time>2020-07-03T19:13:25.000Z</time>
      </trkpt>
      <trkpt lat="33.562868" lon="-115.624139">
        <ele>484.199219</ele>
        <time>2020-07-03T19:13:28.000Z</time>
      </trkpt>
      <trkpt lat="33.562605" lon="-115.624097">
        <ele>484.898438</ele>
        <time>2020-07-03T19:13:35.000Z</time>
      </trkpt>
      <trkpt lat="33.562579" lon="-115.624087">
        <ele>485.500000</ele>
        <time>2020-07-03T19:13:38.000Z</time>
      </trkpt>
      <trkpt lat="33.562511" lon="-115.624059">
        <ele>485.699219</ele>
        <time>2020-07-03T19:13:39.000Z</time>
      </trkpt>
      <trkpt lat="33.562489" lon="-115.624048">
        <ele>485.898438</ele>
        <time>2020-07-03T19:13:42.000Z</time>
      </trkpt>
      <trkpt lat="33.562412" lon="-115.624022">
        <ele>486.000000</ele>
        <time>2020-07-03T19:13:43.000Z</time>
      </trkpt>
      <trkpt lat="33.562386" lon="-115.624016">
        <ele>486.597656</ele>
        <time>2020-07-03T19:13:46.000Z</time>
      </trkpt>
      <trkpt lat="33.562306" lon="-115.624005">
        <ele>486.597656</ele>
        <time>2020-07-03T19:13:47.000Z</time>
      </trkpt>
      <trkpt lat="33.562278" lon="-115.624004">
        <ele>486.097656</ele>
        <time>2020-07-03T19:13:50.000Z</time>
      </trkpt>
      <trkpt lat="33.562197" lon="-115.623992">
        <ele>485.898438</ele>
        <time>2020-07-03T19:13:51.000Z</time>
      </trkpt>
      <trkpt lat="33.56206" lon="-115.623966">
        <ele>485.000000</ele>
        <time>2020-07-03T19:13:59.000Z</time>
      </trkpt>
      <trkpt lat="33.56206" lon="-115.623967">
        <ele>486.199219</ele>
        <time>2020-07-03T19:14:17.000Z</time>
      </trkpt>
      <trkpt lat="33.561969" lon="-115.623945">
        <ele>486.097656</ele>
        <time>2020-07-03T19:14:18.000Z</time>
      </trkpt>
      <trkpt lat="33.561865" lon="-115.623922">
        <ele>486.097656</ele>
        <time>2020-07-03T19:14:27.000Z</time>
      </trkpt>
      <trkpt lat="33.561853" lon="-115.623916">
        <ele>484.000000</ele>
        <time>2020-07-03T19:14:33.000Z</time>
      </trkpt>
      <trkpt lat="33.561685" lon="-115.623827">
        <ele>483.699219</ele>
        <time>2020-07-03T19:14:41.000Z</time>
      </trkpt>
      <trkpt lat="33.561671" lon="-115.623818">
        <ele>481.597656</ele>
        <time>2020-07-03T19:14:47.000Z</time>
      </trkpt>
      <trkpt lat="33.561495" lon="-115.623724">
        <ele>479.699219</ele>
        <time>2020-07-03T19:14:56.000Z</time>
      </trkpt>
      <trkpt lat="33.560943" lon="-115.62342">
        <ele>474.398438</ele>
        <time>2020-07-03T19:15:25.000Z</time>
      </trkpt>
      <trkpt lat="33.560922" lon="-115.623417">
        <ele>474.000000</ele>
        <time>2020-07-03T19:15:29.000Z</time>
      </trkpt>
      <trkpt lat="33.560577" lon="-115.62333">
        <ele>469.500000</ele>
        <time>2020-07-03T19:15:42.000Z</time>
      </trkpt>
      <trkpt lat="33.560309" lon="-115.623316">
        <ele>469.398438</ele>
        <time>2020-07-03T19:15:54.000Z</time>
      </trkpt>
      <trkpt lat="33.560214" lon="-115.623293">
        <ele>469.597656</ele>
        <time>2020-07-03T19:15:58.000Z</time>
      </trkpt>
      <trkpt lat="33.560194" lon="-115.623284">
        <ele>468.398438</ele>
        <time>2020-07-03T19:16:02.000Z</time>
      </trkpt>
      <trkpt lat="33.560127" lon="-115.623234">
        <ele>468.398438</ele>
        <time>2020-07-03T19:16:03.000Z</time>
      </trkpt>
      <trkpt lat="33.560112" lon="-115.62322">
        <ele>465.699219</ele>
        <time>2020-07-03T19:16:08.000Z</time>
      </trkpt>
      <trkpt lat="33.56002" lon="-115.623117">
        <ele>464.500000</ele>
        <time>2020-07-03T19:16:11.000Z</time>
      </trkpt>
      <trkpt lat="33.559838" lon="-115.622899">
        <ele>459.097656</ele>
        <time>2020-07-03T19:16:24.000Z</time>
      </trkpt>
      <trkpt lat="33.559823" lon="-115.622884">
        <ele>458.097656</ele>
        <time>2020-07-03T19:16:27.000Z</time>
      </trkpt>
      <trkpt lat="33.559757" lon="-115.622846">
        <ele>457.597656</ele>
        <time>2020-07-03T19:16:28.000Z</time>
      </trkpt>
      <trkpt lat="33.559737" lon="-115.62284">
        <ele>455.796875</ele>
        <time>2020-07-03T19:16:32.000Z</time>
      </trkpt>
      <trkpt lat="33.559665" lon="-115.622827">
        <ele>455.199219</ele>
        <time>2020-07-03T19:16:33.000Z</time>
      </trkpt>
      <trkpt lat="33.559644" lon="-115.622826">
        <ele>453.500000</ele>
        <time>2020-07-03T19:16:37.000Z</time>
      </trkpt>
      <trkpt lat="33.559465" lon="-115.622824">
        <ele>454.500000</ele>
        <time>2020-07-03T19:16:43.000Z</time>
      </trkpt>
      <trkpt lat="33.559448" lon="-115.622819">
        <ele>452.898438</ele>
        <time>2020-07-03T19:16:46.000Z</time>
      </trkpt>
      <trkpt lat="33.55938" lon="-115.62278">
        <ele>452.500000</ele>
        <time>2020-07-03T19:16:47.000Z</time>
      </trkpt>
      <trkpt lat="33.559357" lon="-115.622764">
        <ele>452.500000</ele>
        <time>2020-07-03T19:16:50.000Z</time>
      </trkpt>
      <trkpt lat="33.559232" lon="-115.622665">
        <ele>451.796875</ele>
        <time>2020-07-03T19:16:54.000Z</time>
      </trkpt>
      <trkpt lat="33.559158" lon="-115.622601">
        <ele>452.796875</ele>
        <time>2020-07-03T19:16:58.000Z</time>
      </trkpt>
      <trkpt lat="33.559061" lon="-115.622532">
        <ele>454.199219</ele>
        <time>2020-07-03T19:17:03.000Z</time>
      </trkpt>
      <trkpt lat="33.55904" lon="-115.622518">
        <ele>453.500000</ele>
        <time>2020-07-03T19:17:06.000Z</time>
      </trkpt>
      <trkpt lat="33.558968" lon="-115.622484">
        <ele>452.898438</ele>
        <time>2020-07-03T19:17:07.000Z</time>
      </trkpt>
      <trkpt lat="33.558846" lon="-115.622437">
        <ele>452.000000</ele>
        <time>2020-07-03T19:17:12.000Z</time>
      </trkpt>
      <trkpt lat="33.558821" lon="-115.622431">
        <ele>450.398438</ele>
        <time>2020-07-03T19:17:16.000Z</time>
      </trkpt>
      <trkpt lat="33.558735" lon="-115.622438">
        <ele>449.500000</ele>
        <time>2020-07-03T19:17:17.000Z</time>
      </trkpt>
      <trkpt lat="33.55871" lon="-115.622449">
        <ele>448.199219</ele>
        <time>2020-07-03T19:17:20.000Z</time>
      </trkpt>
      <trkpt lat="33.558645" lon="-115.622495">
        <ele>448.000000</ele>
        <time>2020-07-03T19:17:21.000Z</time>
      </trkpt>
      <trkpt lat="33.558632" lon="-115.622511">
        <ele>446.500000</ele>
        <time>2020-07-03T19:17:25.000Z</time>
      </trkpt>
      <trkpt lat="33.558556" lon="-115.622564">
        <ele>446.398438</ele>
        <time>2020-07-03T19:17:26.000Z</time>
      </trkpt>
      <trkpt lat="33.558537" lon="-115.622575">
        <ele>446.199219</ele>
        <time>2020-07-03T19:17:29.000Z</time>
      </trkpt>
      <trkpt lat="33.55847" lon="-115.622608">
        <ele>446.097656</ele>
        <time>2020-07-03T19:17:30.000Z</time>
      </trkpt>
      <trkpt lat="33.558371" lon="-115.622649">
        <ele>446.398438</ele>
        <time>2020-07-03T19:17:35.000Z</time>
      </trkpt>
      <trkpt lat="33.558351" lon="-115.622655">
        <ele>445.796875</ele>
        <time>2020-07-03T19:17:39.000Z</time>
      </trkpt>
      <trkpt lat="33.558261" lon="-115.622676">
        <ele>445.398438</ele>
        <time>2020-07-03T19:17:40.000Z</time>
      </trkpt>
      <trkpt lat="33.55824" lon="-115.622685">
        <ele>443.898438</ele>
        <time>2020-07-03T19:17:45.000Z</time>
      </trkpt>
      <trkpt lat="33.558159" lon="-115.622733">
        <ele>443.500000</ele>
        <time>2020-07-03T19:17:46.000Z</time>
      </trkpt>
      <trkpt lat="33.558137" lon="-115.622748">
        <ele>442.000000</ele>
        <time>2020-07-03T19:17:49.000Z</time>
      </trkpt>
      <trkpt lat="33.558053" lon="-115.622811">
        <ele>441.296875</ele>
        <time>2020-07-03T19:17:51.000Z</time>
      </trkpt>
      <trkpt lat="33.558035" lon="-115.622829">
        <ele>439.796875</ele>
        <time>2020-07-03T19:17:54.000Z</time>
      </trkpt>
      <trkpt lat="33.557842" lon="-115.622999">
        <ele>438.898438</ele>
        <time>2020-07-03T19:18:01.000Z</time>
      </trkpt>
      <trkpt lat="33.557285" lon="-115.62343">
        <ele>431.296875</ele>
        <time>2020-07-03T19:18:21.000Z</time>
      </trkpt>
      <trkpt lat="33.557285" lon="-115.623431">
        <ele>430.000000</ele>
        <time>2020-07-03T19:18:27.000Z</time>
      </trkpt>
      <trkpt lat="33.557192" lon="-115.6235">
        <ele>429.597656</ele>
        <time>2020-07-03T19:18:28.000Z</time>
      </trkpt>
      <trkpt lat="33.557068" lon="-115.623595">
        <ele>428.296875</ele>
        <time>2020-07-03T19:18:33.000Z</time>
      </trkpt>
      <trkpt lat="33.557037" lon="-115.623604">
        <ele>428.398438</ele>
        <time>2020-07-03T19:18:35.000Z</time>
      </trkpt>
      <trkpt lat="33.556966" lon="-115.623611">
        <ele>429.000000</ele>
        <time>2020-07-03T19:18:36.000Z</time>
      </trkpt>
      <trkpt lat="33.556864" lon="-115.623615">
        <ele>427.597656</ele>
        <time>2020-07-03T19:18:39.000Z</time>
      </trkpt>
      <trkpt lat="33.556829" lon="-115.623612">
        <ele>426.000000</ele>
        <time>2020-07-03T19:18:41.000Z</time>
      </trkpt>
      <trkpt lat="33.556755" lon="-115.623596">
        <ele>425.097656</ele>
        <time>2020-07-03T19:18:42.000Z</time>
      </trkpt>
      <trkpt lat="33.556642" lon="-115.623576">
        <ele>425.097656</ele>
        <time>2020-07-03T19:18:45.000Z</time>
      </trkpt>
      <trkpt lat="33.556607" lon="-115.623574">
        <ele>425.199219</ele>
        <time>2020-07-03T19:18:47.000Z</time>
      </trkpt>
      <trkpt lat="33.556534" lon="-115.623573">
        <ele>424.898438</ele>
        <time>2020-07-03T19:18:48.000Z</time>
      </trkpt>
      <trkpt lat="33.556423" lon="-115.623583">
        <ele>424.898438</ele>
        <time>2020-07-03T19:18:51.000Z</time>
      </trkpt>
      <trkpt lat="33.556386" lon="-115.623577">
        <ele>424.796875</ele>
        <time>2020-07-03T19:18:53.000Z</time>
      </trkpt>
      <trkpt lat="33.556315" lon="-115.623552">
        <ele>424.500000</ele>
        <time>2020-07-03T19:18:54.000Z</time>
      </trkpt>
      <trkpt lat="33.556216" lon="-115.623513">
        <ele>424.000000</ele>
        <time>2020-07-03T19:18:57.000Z</time>
      </trkpt>
      <trkpt lat="33.556183" lon="-115.623505">
        <ele>423.000000</ele>
        <time>2020-07-03T19:18:59.000Z</time>
      </trkpt>
      <trkpt lat="33.556084" lon="-115.623482">
        <ele>422.296875</ele>
        <time>2020-07-03T19:19:01.000Z</time>
      </trkpt>
      <trkpt lat="33.556058" lon="-115.623472">
        <ele>420.699219</ele>
        <time>2020-07-03T19:19:04.000Z</time>
      </trkpt>
      <trkpt lat="33.555963" lon="-115.623449">
        <ele>419.597656</ele>
        <time>2020-07-03T19:19:05.000Z</time>
      </trkpt>
      <trkpt lat="33.555922" lon="-115.623445">
        <ele>418.796875</ele>
        <time>2020-07-03T19:19:07.000Z</time>
      </trkpt>
      <trkpt lat="33.555639" lon="-115.623431">
        <ele>417.398438</ele>
        <time>2020-07-03T19:19:13.000Z</time>
      </trkpt>
      <trkpt lat="33.555597" lon="-115.623423">
        <ele>417.097656</ele>
        <time>2020-07-03T19:19:15.000Z</time>
      </trkpt>
      <trkpt lat="33.555514" lon="-115.623388">
        <ele>417.199219</ele>
        <time>2020-07-03T19:19:16.000Z</time>
      </trkpt>
      <trkpt lat="33.555471" lon="-115.623362">
        <ele>417.097656</ele>
        <time>2020-07-03T19:19:17.000Z</time>
      </trkpt>
      <trkpt lat="33.555431" lon="-115.623332">
        <ele>416.898438</ele>
        <time>2020-07-03T19:19:18.000Z</time>
      </trkpt>
      <trkpt lat="33.555393" lon="-115.623297">
        <ele>416.699219</ele>
        <time>2020-07-03T19:19:19.000Z</time>
      </trkpt>
      <trkpt lat="33.555356" lon="-115.623256">
        <ele>416.597656</ele>
        <time>2020-07-03T19:19:20.000Z</time>
      </trkpt>
      <trkpt lat="33.555195" lon="-115.623073">
        <ele>416.199219</ele>
        <time>2020-07-03T19:19:24.000Z</time>
      </trkpt>
      <trkpt lat="33.555146" lon="-115.62303">
        <ele>416.097656</ele>
        <time>2020-07-03T19:19:25.000Z</time>
      </trkpt>
      <trkpt lat="33.555094" lon="-115.622995">
        <ele>415.898438</ele>
        <time>2020-07-03T19:19:26.000Z</time>
      </trkpt>
      <trkpt lat="33.554816" lon="-115.62281">
        <ele>415.097656</ele>
        <time>2020-07-03T19:19:31.000Z</time>
      </trkpt>
      <trkpt lat="33.554773" lon="-115.622763">
        <ele>414.898438</ele>
        <time>2020-07-03T19:19:32.000Z</time>
      </trkpt>
      <trkpt lat="33.554732" lon="-115.622711">
        <ele>414.597656</ele>
        <time>2020-07-03T19:19:33.000Z</time>
      </trkpt>
      <trkpt lat="33.554647" lon="-115.622598">
        <ele>414.296875</ele>
        <time>2020-07-03T19:19:35.000Z</time>
      </trkpt>
      <trkpt lat="33.554598" lon="-115.62255">
        <ele>413.898438</ele>
        <time>2020-07-03T19:19:36.000Z</time>
      </trkpt>
      <trkpt lat="33.554544" lon="-115.62251">
        <ele>413.699219</ele>
        <time>2020-07-03T19:19:37.000Z</time>
      </trkpt>
      <trkpt lat="33.554485" lon="-115.622479">
        <ele>413.597656</ele>
        <time>2020-07-03T19:19:38.000Z</time>
      </trkpt>
      <trkpt lat="33.554422" lon="-115.622455">
        <ele>413.500000</ele>
        <time>2020-07-03T19:19:39.000Z</time>
      </trkpt>
      <trkpt lat="33.554357" lon="-115.622434">
        <ele>413.500000</ele>
        <time>2020-07-03T19:19:40.000Z</time>
      </trkpt>
      <trkpt lat="33.554221" lon="-115.622405">
        <ele>413.199219</ele>
        <time>2020-07-03T19:19:42.000Z</time>
      </trkpt>
      <trkpt lat="33.554044" lon="-115.622372">
        <ele>413.000000</ele>
        <time>2020-07-03T19:19:45.000Z</time>
      </trkpt>
      <trkpt lat="33.553995" lon="-115.622351">
        <ele>412.699219</ele>
        <time>2020-07-03T19:19:46.000Z</time>
      </trkpt>
      <trkpt lat="33.553945" lon="-115.622322">
        <ele>412.398438</ele>
        <time>2020-07-03T19:19:47.000Z</time>
      </trkpt>
      <trkpt lat="33.553897" lon="-115.622289">
        <ele>412.296875</ele>
        <time>2020-07-03T19:19:48.000Z</time>
      </trkpt>
      <trkpt lat="33.553848" lon="-115.622248">
        <ele>412.296875</ele>
        <time>2020-07-03T19:19:49.000Z</time>
      </trkpt>
      <trkpt lat="33.553798" lon="-115.6222">
        <ele>412.097656</ele>
        <time>2020-07-03T19:19:50.000Z</time>
      </trkpt>
      <trkpt lat="33.553534" lon="-115.621921">
        <ele>410.597656</ele>
        <time>2020-07-03T19:19:55.000Z</time>
      </trkpt>
      <trkpt lat="33.553472" lon="-115.621871">
        <ele>410.296875</ele>
        <time>2020-07-03T19:19:56.000Z</time>
      </trkpt>
      <trkpt lat="33.553294" lon="-115.621726">
        <ele>409.796875</ele>
        <time>2020-07-03T19:19:59.000Z</time>
      </trkpt>
      <trkpt lat="33.553247" lon="-115.621671">
        <ele>409.699219</ele>
        <time>2020-07-03T19:20:00.000Z</time>
      </trkpt>
      <trkpt lat="33.553204" lon="-115.621612">
        <ele>409.597656</ele>
        <time>2020-07-03T19:20:01.000Z</time>
      </trkpt>
      <trkpt lat="33.553123" lon="-115.621478">
        <ele>409.000000</ele>
        <time>2020-07-03T19:20:03.000Z</time>
      </trkpt>
      <trkpt lat="33.552953" lon="-115.621199">
        <ele>407.296875</ele>
        <time>2020-07-03T19:20:07.000Z</time>
      </trkpt>
      <trkpt lat="33.552849" lon="-115.621074">
        <ele>406.898438</ele>
        <time>2020-07-03T19:20:09.000Z</time>
      </trkpt>
      <trkpt lat="33.55239" lon="-115.620572">
        <ele>404.796875</ele>
        <time>2020-07-03T19:20:18.000Z</time>
      </trkpt>
      <trkpt lat="33.55235" lon="-115.620539">
        <ele>404.699219</ele>
        <time>2020-07-03T19:20:19.000Z</time>
      </trkpt>
      <trkpt lat="33.552309" lon="-115.620512">
        <ele>404.398438</ele>
        <time>2020-07-03T19:20:20.000Z</time>
      </trkpt>
      <trkpt lat="33.552266" lon="-115.620491">
        <ele>403.898438</ele>
        <time>2020-07-03T19:20:21.000Z</time>
      </trkpt>
      <trkpt lat="33.552221" lon="-115.620478">
        <ele>403.500000</ele>
        <time>2020-07-03T19:20:22.000Z</time>
      </trkpt>
      <trkpt lat="33.552172" lon="-115.620474">
        <ele>403.296875</ele>
        <time>2020-07-03T19:20:23.000Z</time>
      </trkpt>
      <trkpt lat="33.552123" lon="-115.620478">
        <ele>403.000000</ele>
        <time>2020-07-03T19:20:24.000Z</time>
      </trkpt>
      <trkpt lat="33.552072" lon="-115.620491">
        <ele>403.097656</ele>
        <time>2020-07-03T19:20:25.000Z</time>
      </trkpt>
      <trkpt lat="33.551834" lon="-115.620558">
        <ele>402.597656</ele>
        <time>2020-07-03T19:20:30.000Z</time>
      </trkpt>
      <trkpt lat="33.551283" lon="-115.620627">
        <ele>400.398438</ele>
        <time>2020-07-03T19:20:41.000Z</time>
      </trkpt>
      <trkpt lat="33.551234" lon="-115.620625">
        <ele>400.000000</ele>
        <time>2020-07-03T19:20:42.000Z</time>
      </trkpt>
      <trkpt lat="33.551184" lon="-115.620618">
        <ele>399.699219</ele>
        <time>2020-07-03T19:20:43.000Z</time>
      </trkpt>
      <trkpt lat="33.551134" lon="-115.620607">
        <ele>399.296875</ele>
        <time>2020-07-03T19:20:44.000Z</time>
      </trkpt>
      <trkpt lat="33.550982" lon="-115.620568">
        <ele>398.500000</ele>
        <time>2020-07-03T19:20:47.000Z</time>
      </trkpt>
      <trkpt lat="33.550934" lon="-115.620566">
        <ele>398.199219</ele>
        <time>2020-07-03T19:20:48.000Z</time>
      </trkpt>
      <trkpt lat="33.550573" lon="-115.62053">
        <ele>396.699219</ele>
        <time>2020-07-03T19:20:56.000Z</time>
      </trkpt>
      <trkpt lat="33.550538" lon="-115.620523">
        <ele>396.296875</ele>
        <time>2020-07-03T19:20:58.000Z</time>
      </trkpt>
      <trkpt lat="33.550433" lon="-115.620495">
        <ele>395.597656</ele>
        <time>2020-07-03T19:21:00.000Z</time>
      </trkpt>
      <trkpt lat="33.550397" lon="-115.620489">
        <ele>395.296875</ele>
        <time>2020-07-03T19:21:02.000Z</time>
      </trkpt>
      <trkpt lat="33.550323" lon="-115.620487">
        <ele>395.199219</ele>
        <time>2020-07-03T19:21:03.000Z</time>
      </trkpt>
      <trkpt lat="33.550285" lon="-115.620492">
        <ele>394.796875</ele>
        <time>2020-07-03T19:21:05.000Z</time>
      </trkpt>
      <trkpt lat="33.550214" lon="-115.62053">
        <ele>394.796875</ele>
        <time>2020-07-03T19:21:06.000Z</time>
      </trkpt>
      <trkpt lat="33.550182" lon="-115.620552">
        <ele>395.296875</ele>
        <time>2020-07-03T19:21:08.000Z</time>
      </trkpt>
      <trkpt lat="33.550128" lon="-115.62057">
        <ele>395.097656</ele>
        <time>2020-07-03T19:21:10.000Z</time>
      </trkpt>
      <trkpt lat="33.550036" lon="-115.620604">
        <ele>395.000000</ele>
        <time>2020-07-03T19:21:13.000Z</time>
      </trkpt>
      <trkpt lat="33.550008" lon="-115.620611">
        <ele>395.699219</ele>
        <time>2020-07-03T19:21:16.000Z</time>
      </trkpt>
      <trkpt lat="33.549937" lon="-115.620623">
        <ele>395.699219</ele>
        <time>2020-07-03T19:21:17.000Z</time>
      </trkpt>
      <trkpt lat="33.54991" lon="-115.620621">
        <ele>395.500000</ele>
        <time>2020-07-03T19:21:20.000Z</time>
      </trkpt>
      <trkpt lat="33.549652" lon="-115.620582">
        <ele>395.097656</ele>
        <time>2020-07-03T19:21:27.000Z</time>
      </trkpt>
      <trkpt lat="33.549623" lon="-115.620574">
        <ele>394.500000</ele>
        <time>2020-07-03T19:21:30.000Z</time>
      </trkpt>
      <trkpt lat="33.549544" lon="-115.620545">
        <ele>394.500000</ele>
        <time>2020-07-03T19:21:31.000Z</time>
      </trkpt>
      <trkpt lat="33.54952" lon="-115.620536">
        <ele>394.097656</ele>
        <time>2020-07-03T19:21:35.000Z</time>
      </trkpt>
      <trkpt lat="33.549414" lon="-115.620479">
        <ele>393.796875</ele>
        <time>2020-07-03T19:21:37.000Z</time>
      </trkpt>
      <trkpt lat="33.549391" lon="-115.620464">
        <ele>393.597656</ele>
        <time>2020-07-03T19:21:40.000Z</time>
      </trkpt>
      <trkpt lat="33.549322" lon="-115.620432">
        <ele>393.296875</ele>
        <time>2020-07-03T19:21:41.000Z</time>
      </trkpt>
      <trkpt lat="33.5493" lon="-115.620426">
        <ele>393.796875</ele>
        <time>2020-07-03T19:21:44.000Z</time>
      </trkpt>
      <trkpt lat="33.549002" lon="-115.620343">
        <ele>393.699219</ele>
        <time>2020-07-03T19:21:53.000Z</time>
      </trkpt>
      <trkpt lat="33.548978" lon="-115.620332">
        <ele>393.500000</ele>
        <time>2020-07-03T19:21:56.000Z</time>
      </trkpt>
      <trkpt lat="33.548892" lon="-115.620317">
        <ele>393.296875</ele>
        <time>2020-07-03T19:21:57.000Z</time>
      </trkpt>
      <trkpt lat="33.548792" lon="-115.620301">
        <ele>393.097656</ele>
        <time>2020-07-03T19:22:00.000Z</time>
      </trkpt>
      <trkpt lat="33.548757" lon="-115.620306">
        <ele>393.199219</ele>
        <time>2020-07-03T19:22:02.000Z</time>
      </trkpt>
      <trkpt lat="33.548581" lon="-115.620328">
        <ele>393.597656</ele>
        <time>2020-07-03T19:22:06.000Z</time>
      </trkpt>
      <trkpt lat="33.548546" lon="-115.620328">
        <ele>393.296875</ele>
        <time>2020-07-03T19:22:08.000Z</time>
      </trkpt>
      <trkpt lat="33.548477" lon="-115.62034">
        <ele>393.398438</ele>
        <time>2020-07-03T19:22:09.000Z</time>
      </trkpt>
      <trkpt lat="33.548446" lon="-115.620358">
        <ele>393.199219</ele>
        <time>2020-07-03T19:22:11.000Z</time>
      </trkpt>
      <trkpt lat="33.548392" lon="-115.620405">
        <ele>393.097656</ele>
        <time>2020-07-03T19:22:12.000Z</time>
      </trkpt>
      <trkpt lat="33.548369" lon="-115.620437">
        <ele>392.500000</ele>
        <time>2020-07-03T19:22:14.000Z</time>
      </trkpt>
      <trkpt lat="33.548331" lon="-115.620517">
        <ele>392.699219</ele>
        <time>2020-07-03T19:22:15.000Z</time>
      </trkpt>
      <trkpt lat="33.548315" lon="-115.620559">
        <ele>392.500000</ele>
        <time>2020-07-03T19:22:17.000Z</time>
      </trkpt>
      <trkpt lat="33.548268" lon="-115.620633">
        <ele>392.296875</ele>
        <time>2020-07-03T19:22:18.000Z</time>
      </trkpt>
      <trkpt lat="33.54824" lon="-115.620674">
        <ele>391.898438</ele>
        <time>2020-07-03T19:22:20.000Z</time>
      </trkpt>
      <trkpt lat="33.54819" lon="-115.620771">
        <ele>391.500000</ele>
        <time>2020-07-03T19:22:21.000Z</time>
      </trkpt>
      <trkpt lat="33.548169" lon="-115.620827">
        <ele>390.597656</ele>
        <time>2020-07-03T19:22:22.000Z</time>
      </trkpt>
      <trkpt lat="33.548077" lon="-115.621059">
        <ele>390.199219</ele>
        <time>2020-07-03T19:22:26.000Z</time>
      </trkpt>
      <trkpt lat="33.54768" lon="-115.621835">
        <ele>385.500000</ele>
        <time>2020-07-03T19:22:40.000Z</time>
      </trkpt>
      <trkpt lat="33.547441" lon="-115.622203">
        <ele>384.898438</ele>
        <time>2020-07-03T19:22:47.000Z</time>
      </trkpt>
      <trkpt lat="33.547293" lon="-115.622396">
        <ele>383.000000</ele>
        <time>2020-07-03T19:22:53.000Z</time>
      </trkpt>
      <trkpt lat="33.54728" lon="-115.622419">
        <ele>382.699219</ele>
        <time>2020-07-03T19:22:56.000Z</time>
      </trkpt>
      <trkpt lat="33.547256" lon="-115.622497">
        <ele>382.796875</ele>
        <time>2020-07-03T19:22:57.000Z</time>
      </trkpt>
      <trkpt lat="33.547252" lon="-115.622538">
        <ele>383.199219</ele>
        <time>2020-07-03T19:22:59.000Z</time>
      </trkpt>
      <trkpt lat="33.547242" lon="-115.622691">
        <ele>383.699219</ele>
        <time>2020-07-03T19:23:02.000Z</time>
      </trkpt>
      <trkpt lat="33.547234" lon="-115.62272">
        <ele>383.597656</ele>
        <time>2020-07-03T19:23:05.000Z</time>
      </trkpt>
      <trkpt lat="33.547185" lon="-115.622792">
        <ele>383.296875</ele>
        <time>2020-07-03T19:23:06.000Z</time>
      </trkpt>
      <trkpt lat="33.547163" lon="-115.622822">
        <ele>383.398438</ele>
        <time>2020-07-03T19:23:08.000Z</time>
      </trkpt>
      <trkpt lat="33.547121" lon="-115.622888">
        <ele>383.000000</ele>
        <time>2020-07-03T19:23:09.000Z</time>
      </trkpt>
      <trkpt lat="33.547099" lon="-115.622915">
        <ele>383.597656</ele>
        <time>2020-07-03T19:23:12.000Z</time>
      </trkpt>
      <trkpt lat="33.547013" lon="-115.622936">
        <ele>383.699219</ele>
        <time>2020-07-03T19:23:13.000Z</time>
      </trkpt>
      <trkpt lat="33.546988" lon="-115.622932">
        <ele>385.199219</ele>
        <time>2020-07-03T19:23:16.000Z</time>
      </trkpt>
      <trkpt lat="33.546863" lon="-115.6229">
        <ele>385.500000</ele>
        <time>2020-07-03T19:23:20.000Z</time>
      </trkpt>
      <trkpt lat="33.546842" lon="-115.622891">
        <ele>385.898438</ele>
        <time>2020-07-03T19:23:24.000Z</time>
      </trkpt>
      <trkpt lat="33.546771" lon="-115.622834">
        <ele>386.398438</ele>
        <time>2020-07-03T19:23:25.000Z</time>
      </trkpt>
      <trkpt lat="33.546759" lon="-115.622831">
        <ele>386.898438</ele>
        <time>2020-07-03T19:23:29.000Z</time>
      </trkpt>
      <trkpt lat="33.546697" lon="-115.622897">
        <ele>386.699219</ele>
        <time>2020-07-03T19:23:30.000Z</time>
      </trkpt>
      <trkpt lat="33.546685" lon="-115.622936">
        <ele>386.796875</ele>
        <time>2020-07-03T19:23:32.000Z</time>
      </trkpt>
      <trkpt lat="33.546177" lon="-115.624242">
        <ele>381.597656</ele>
        <time>2020-07-03T19:23:56.000Z</time>
      </trkpt>
      <trkpt lat="33.545752" lon="-115.625145">
        <ele>377.898438</ele>
        <time>2020-07-03T19:24:13.000Z</time>
      </trkpt>
      <trkpt lat="33.5445" lon="-115.627553">
        <ele>371.898438</ele>
        <time>2020-07-03T19:24:49.000Z</time>
      </trkpt>
      <trkpt lat="33.544437" lon="-115.627715">
        <ele>372.097656</ele>
        <time>2020-07-03T19:24:52.000Z</time>
      </trkpt>
      <trkpt lat="33.544194" lon="-115.628511">
        <ele>371.699219</ele>
        <time>2020-07-03T19:25:05.000Z</time>
      </trkpt>
      <trkpt lat="33.544167" lon="-115.628572">
        <ele>371.500000</ele>
        <time>2020-07-03T19:25:06.000Z</time>
      </trkpt>
      <trkpt lat="33.544104" lon="-115.62869">
        <ele>371.097656</ele>
        <time>2020-07-03T19:25:08.000Z</time>
      </trkpt>
      <trkpt lat="33.543849" lon="-115.629119">
        <ele>369.097656</ele>
        <time>2020-07-03T19:25:15.000Z</time>
      </trkpt>
      <trkpt lat="33.542926" lon="-115.63055">
        <ele>366.097656</ele>
        <time>2020-07-03T19:25:37.000Z</time>
      </trkpt>
      <trkpt lat="33.542645" lon="-115.631038">
        <ele>365.000000</ele>
        <time>2020-07-03T19:25:44.000Z</time>
      </trkpt>
      <trkpt lat="33.542503" lon="-115.631231">
        <ele>364.500000</ele>
        <time>2020-07-03T19:25:47.000Z</time>
      </trkpt>
      <trkpt lat="33.541958" lon="-115.631936">
        <ele>360.796875</ele>
        <time>2020-07-03T19:25:57.000Z</time>
      </trkpt>
      <trkpt lat="33.541864" lon="-115.632097">
        <ele>360.398438</ele>
        <time>2020-07-03T19:25:59.000Z</time>
      </trkpt>
      <trkpt lat="33.540351" lon="-115.634702">
        <ele>355.796875</ele>
        <time>2020-07-03T19:26:31.000Z</time>
      </trkpt>
      <trkpt lat="33.539266" lon="-115.636322">
        <ele>353.097656</ele>
        <time>2020-07-03T19:26:53.000Z</time>
      </trkpt>
      <trkpt lat="33.538354" lon="-115.637527">
        <ele>347.500000</ele>
        <time>2020-07-03T19:27:11.000Z</time>
      </trkpt>
      <trkpt lat="33.538304" lon="-115.63761">
        <ele>347.097656</ele>
        <time>2020-07-03T19:27:12.000Z</time>
      </trkpt>
      <trkpt lat="33.538258" lon="-115.637694">
        <ele>346.699219</ele>
        <time>2020-07-03T19:27:13.000Z</time>
      </trkpt>
      <trkpt lat="33.538214" lon="-115.637781">
        <ele>346.296875</ele>
        <time>2020-07-03T19:27:14.000Z</time>
      </trkpt>
      <trkpt lat="33.538174" lon="-115.63787">
        <ele>346.199219</ele>
        <time>2020-07-03T19:27:15.000Z</time>
      </trkpt>
      <trkpt lat="33.538103" lon="-115.638052">
        <ele>345.898438</ele>
        <time>2020-07-03T19:27:17.000Z</time>
      </trkpt>
      <trkpt lat="33.53804" lon="-115.638243">
        <ele>346.000000</ele>
        <time>2020-07-03T19:27:19.000Z</time>
      </trkpt>
      <trkpt lat="33.537735" lon="-115.639203">
        <ele>345.199219</ele>
        <time>2020-07-03T19:27:29.000Z</time>
      </trkpt>
      <trkpt lat="33.537519" lon="-115.640024">
        <ele>344.796875</ele>
        <time>2020-07-03T19:27:37.000Z</time>
      </trkpt>
      <trkpt lat="33.537114" lon="-115.641191">
        <ele>343.796875</ele>
        <time>2020-07-03T19:27:48.000Z</time>
      </trkpt>
      <trkpt lat="33.537069" lon="-115.641393">
        <ele>343.699219</ele>
        <time>2020-07-03T19:27:50.000Z</time>
      </trkpt>
      <trkpt lat="33.537038" lon="-115.641576">
        <ele>343.597656</ele>
        <time>2020-07-03T19:27:52.000Z</time>
      </trkpt>
      <trkpt lat="33.537029" lon="-115.641668">
        <ele>343.398438</ele>
        <time>2020-07-03T19:27:53.000Z</time>
      </trkpt>
      <trkpt lat="33.537025" lon="-115.641761">
        <ele>343.398438</ele>
        <time>2020-07-03T19:27:54.000Z</time>
      </trkpt>
      <trkpt lat="33.537025" lon="-115.641951">
        <ele>343.296875</ele>
        <time>2020-07-03T19:27:56.000Z</time>
      </trkpt>
      <trkpt lat="33.537037" lon="-115.642146">
        <ele>343.199219</ele>
        <time>2020-07-03T19:27:58.000Z</time>
      </trkpt>
      <trkpt lat="33.537088" lon="-115.642615">
        <ele>343.796875</ele>
        <time>2020-07-03T19:28:03.000Z</time>
      </trkpt>
      <trkpt lat="33.537121" lon="-115.642895">
        <ele>344.500000</ele>
        <time>2020-07-03T19:28:07.000Z</time>
      </trkpt>
      <trkpt lat="33.537119" lon="-115.642943">
        <ele>344.597656</ele>
        <time>2020-07-03T19:28:09.000Z</time>
      </trkpt>
      <trkpt lat="33.537098" lon="-115.643111">
        <ele>344.500000</ele>
        <time>2020-07-03T19:28:13.000Z</time>
      </trkpt>
      <trkpt lat="33.537094" lon="-115.643156">
        <ele>344.398438</ele>
        <time>2020-07-03T19:28:15.000Z</time>
      </trkpt>
      <trkpt lat="33.537092" lon="-115.643249">
        <ele>344.699219</ele>
        <time>2020-07-03T19:28:16.000Z</time>
      </trkpt>
      <trkpt lat="33.537088" lon="-115.643483">
        <ele>344.296875</ele>
        <time>2020-07-03T19:28:21.000Z</time>
      </trkpt>
      <trkpt lat="33.537077" lon="-115.643771">
        <ele>343.597656</ele>
        <time>2020-07-03T19:28:27.000Z</time>
      </trkpt>
      <trkpt lat="33.537014" lon="-115.644428">
        <ele>341.597656</ele>
        <time>2020-07-03T19:28:39.000Z</time>
      </trkpt>
      <trkpt lat="33.536927" lon="-115.644969">
        <ele>338.699219</ele>
        <time>2020-07-03T19:28:47.000Z</time>
      </trkpt>
      <trkpt lat="33.536895" lon="-115.645108">
        <ele>337.898438</ele>
        <time>2020-07-03T19:28:49.000Z</time>
      </trkpt>
      <trkpt lat="33.536852" lon="-115.645245">
        <ele>337.199219</ele>
        <time>2020-07-03T19:28:51.000Z</time>
      </trkpt>
      <trkpt lat="33.536613" lon="-115.645871">
        <ele>334.296875</ele>
        <time>2020-07-03T19:29:00.000Z</time>
      </trkpt>
      <trkpt lat="33.536491" lon="-115.646124">
        <ele>333.097656</ele>
        <time>2020-07-03T19:29:03.000Z</time>
      </trkpt>
      <trkpt lat="33.536073" lon="-115.646819">
        <ele>330.898438</ele>
        <time>2020-07-03T19:29:11.000Z</time>
      </trkpt>
      <trkpt lat="33.534996" lon="-115.648461">
        <ele>326.500000</ele>
        <time>2020-07-03T19:29:34.000Z</time>
      </trkpt>
      <trkpt lat="33.534939" lon="-115.648582">
        <ele>326.296875</ele>
        <time>2020-07-03T19:29:37.000Z</time>
      </trkpt>
      <trkpt lat="33.534916" lon="-115.648612">
        <ele>326.097656</ele>
        <time>2020-07-03T19:29:40.000Z</time>
      </trkpt>
      <trkpt lat="33.534863" lon="-115.648663">
        <ele>326.199219</ele>
        <time>2020-07-03T19:29:42.000Z</time>
      </trkpt>
      <trkpt lat="33.534729" lon="-115.648783">
        <ele>325.796875</ele>
        <time>2020-07-03T19:29:50.000Z</time>
      </trkpt>
      <trkpt lat="33.534709" lon="-115.648798">
        <ele>325.500000</ele>
        <time>2020-07-03T19:29:53.000Z</time>
      </trkpt>
      <trkpt lat="33.534644" lon="-115.648858">
        <ele>325.296875</ele>
        <time>2020-07-03T19:29:54.000Z</time>
      </trkpt>
      <trkpt lat="33.534177" lon="-115.649329">
        <ele>322.898438</ele>
        <time>2020-07-03T19:30:06.000Z</time>
      </trkpt>
      <trkpt lat="33.53385" lon="-115.649691">
        <ele>321.796875</ele>
        <time>2020-07-03T19:30:14.000Z</time>
      </trkpt>
      <trkpt lat="33.533454" lon="-115.650073">
        <ele>322.000000</ele>
        <time>2020-07-03T19:30:23.000Z</time>
      </trkpt>
      <trkpt lat="33.533201" lon="-115.650329">
        <ele>321.398438</ele>
        <time>2020-07-03T19:30:28.000Z</time>
      </trkpt>
      <trkpt lat="33.53309" lon="-115.650414">
        <ele>321.796875</ele>
        <time>2020-07-03T19:30:30.000Z</time>
      </trkpt>
      <trkpt lat="33.533031" lon="-115.650448">
        <ele>321.699219</ele>
        <time>2020-07-03T19:30:31.000Z</time>
      </trkpt>
      <trkpt lat="33.53297" lon="-115.650475">
        <ele>321.597656</ele>
        <time>2020-07-03T19:30:32.000Z</time>
      </trkpt>
      <trkpt lat="33.532908" lon="-115.650498">
        <ele>322.097656</ele>
        <time>2020-07-03T19:30:33.000Z</time>
      </trkpt>
      <trkpt lat="33.532783" lon="-115.650528">
        <ele>322.398438</ele>
        <time>2020-07-03T19:30:35.000Z</time>
      </trkpt>
      <trkpt lat="33.532609" lon="-115.650575">
        <ele>322.796875</ele>
        <time>2020-07-03T19:30:38.000Z</time>
      </trkpt>
      <trkpt lat="33.532559" lon="-115.650599">
        <ele>322.796875</ele>
        <time>2020-07-03T19:30:39.000Z</time>
      </trkpt>
      <trkpt lat="33.532513" lon="-115.650626">
        <ele>322.699219</ele>
        <time>2020-07-03T19:30:40.000Z</time>
      </trkpt>
      <trkpt lat="33.532468" lon="-115.650656">
        <ele>322.597656</ele>
        <time>2020-07-03T19:30:41.000Z</time>
      </trkpt>
      <trkpt lat="33.532425" lon="-115.650689">
        <ele>322.398438</ele>
        <time>2020-07-03T19:30:42.000Z</time>
      </trkpt>
      <trkpt lat="33.532384" lon="-115.650725">
        <ele>322.199219</ele>
        <time>2020-07-03T19:30:43.000Z</time>
      </trkpt>
      <trkpt lat="33.532306" lon="-115.650803">
        <ele>321.898438</ele>
        <time>2020-07-03T19:30:45.000Z</time>
      </trkpt>
      <trkpt lat="33.531863" lon="-115.651259">
        <ele>319.296875</ele>
        <time>2020-07-03T19:30:56.000Z</time>
      </trkpt>
      <trkpt lat="33.531832" lon="-115.651312">
        <ele>319.000000</ele>
        <time>2020-07-03T19:30:57.000Z</time>
      </trkpt>
      <trkpt lat="33.531806" lon="-115.65137">
        <ele>319.000000</ele>
        <time>2020-07-03T19:30:58.000Z</time>
      </trkpt>
      <trkpt lat="33.531497" lon="-115.652068">
        <ele>316.597656</ele>
        <time>2020-07-03T19:31:10.000Z</time>
      </trkpt>
      <trkpt lat="33.531467" lon="-115.652113">
        <ele>316.796875</ele>
        <time>2020-07-03T19:31:11.000Z</time>
      </trkpt>
      <trkpt lat="33.531436" lon="-115.652156">
        <ele>316.796875</ele>
        <time>2020-07-03T19:31:12.000Z</time>
      </trkpt>
      <trkpt lat="33.531403" lon="-115.652195">
        <ele>316.796875</ele>
        <time>2020-07-03T19:31:13.000Z</time>
      </trkpt>
      <trkpt lat="33.531077" lon="-115.652587">
        <ele>317.000000</ele>
        <time>2020-07-03T19:31:24.000Z</time>
      </trkpt>
      <trkpt lat="33.53074" lon="-115.653117">
        <ele>315.199219</ele>
        <time>2020-07-03T19:31:35.000Z</time>
      </trkpt>
      <trkpt lat="33.529974" lon="-115.654332">
        <ele>310.898438</ele>
        <time>2020-07-03T19:31:57.000Z</time>
      </trkpt>
      <trkpt lat="33.529853" lon="-115.654568">
        <ele>310.199219</ele>
        <time>2020-07-03T19:32:01.000Z</time>
      </trkpt>
      <trkpt lat="33.52981" lon="-115.65462">
        <ele>310.296875</ele>
        <time>2020-07-03T19:32:02.000Z</time>
      </trkpt>
      <trkpt lat="33.529721" lon="-115.654717">
        <ele>309.898438</ele>
        <time>2020-07-03T19:32:04.000Z</time>
      </trkpt>
      <trkpt lat="33.529622" lon="-115.654803">
        <ele>310.097656</ele>
        <time>2020-07-03T19:32:06.000Z</time>
      </trkpt>
      <trkpt lat="33.529428" lon="-115.654951">
        <ele>310.398438</ele>
        <time>2020-07-03T19:32:10.000Z</time>
      </trkpt>
      <trkpt lat="33.529082" lon="-115.655191">
        <ele>309.597656</ele>
        <time>2020-07-03T19:32:17.000Z</time>
      </trkpt>
      <trkpt lat="33.528701" lon="-115.655505">
        <ele>308.199219</ele>
        <time>2020-07-03T19:32:25.000Z</time>
      </trkpt>
      <trkpt lat="33.526945" lon="-115.657136">
        <ele>303.398438</ele>
        <time>2020-07-03T19:32:58.000Z</time>
      </trkpt>
      <trkpt lat="33.526282" lon="-115.657906">
        <ele>300.398438</ele>
        <time>2020-07-03T19:33:11.000Z</time>
      </trkpt>
      <trkpt lat="33.525394" lon="-115.658672">
        <ele>298.199219</ele>
        <time>2020-07-03T19:33:26.000Z</time>
      </trkpt>
      <trkpt lat="33.525343" lon="-115.658732">
        <ele>298.097656</ele>
        <time>2020-07-03T19:33:27.000Z</time>
      </trkpt>
      <trkpt lat="33.525294" lon="-115.658796">
        <ele>297.699219</ele>
        <time>2020-07-03T19:33:28.000Z</time>
      </trkpt>
      <trkpt lat="33.525012" lon="-115.659225">
        <ele>295.898438</ele>
        <time>2020-07-03T19:33:34.000Z</time>
      </trkpt>
      <trkpt lat="33.521864" lon="-115.664064">
        <ele>280.699219</ele>
        <time>2020-07-03T19:34:41.000Z</time>
      </trkpt>
      <trkpt lat="33.521669" lon="-115.664468">
        <ele>280.796875</ele>
        <time>2020-07-03T19:34:46.000Z</time>
      </trkpt>
      <trkpt lat="33.521032" lon="-115.665749">
        <ele>279.398438</ele>
        <time>2020-07-03T19:35:00.000Z</time>
      </trkpt>
      <trkpt lat="33.520977" lon="-115.665833">
        <ele>279.097656</ele>
        <time>2020-07-03T19:35:01.000Z</time>
      </trkpt>
      <trkpt lat="33.520867" lon="-115.665981">
        <ele>278.296875</ele>
        <time>2020-07-03T19:35:03.000Z</time>
      </trkpt>
      <trkpt lat="33.520411" lon="-115.666567">
        <ele>278.199219</ele>
        <time>2020-07-03T19:35:18.000Z</time>
      </trkpt>
      <trkpt lat="33.52041" lon="-115.666566">
        <ele>278.097656</ele>
        <time>2020-07-03T19:36:33.000Z</time>
      </trkpt>
      <trkpt lat="33.520328" lon="-115.666661">
        <ele>277.597656</ele>
        <time>2020-07-03T19:36:34.000Z</time>
      </trkpt>
      <trkpt lat="33.520243" lon="-115.666791">
        <ele>276.796875</ele>
        <time>2020-07-03T19:36:37.000Z</time>
      </trkpt>
      <trkpt lat="33.519961" lon="-115.667261">
        <ele>274.500000</ele>
        <time>2020-07-03T19:36:45.000Z</time>
      </trkpt>
      <trkpt lat="33.519387" lon="-115.668345">
        <ele>271.597656</ele>
        <time>2020-07-03T19:37:00.000Z</time>
      </trkpt>
      <trkpt lat="33.519225" lon="-115.668702">
        <ele>270.796875</ele>
        <time>2020-07-03T19:37:05.000Z</time>
      </trkpt>
      <trkpt lat="33.519143" lon="-115.668925">
        <ele>270.398438</ele>
        <time>2020-07-03T19:37:08.000Z</time>
      </trkpt>
      <trkpt lat="33.519079" lon="-115.669146">
        <ele>269.796875</ele>
        <time>2020-07-03T19:37:11.000Z</time>
      </trkpt>
      <trkpt lat="33.518977" lon="-115.669656">
        <ele>270.296875</ele>
        <time>2020-07-03T19:37:18.000Z</time>
      </trkpt>
      <trkpt lat="33.518954" lon="-115.66988">
        <ele>270.097656</ele>
        <time>2020-07-03T19:37:22.000Z</time>
      </trkpt>
      <trkpt lat="33.518956" lon="-115.670628">
        <ele>270.699219</ele>
        <time>2020-07-03T19:37:33.000Z</time>
      </trkpt>
      <trkpt lat="33.51896" lon="-115.67092">
        <ele>271.296875</ele>
        <time>2020-07-03T19:37:37.000Z</time>
      </trkpt>
      <trkpt lat="33.518951" lon="-115.670995">
        <ele>271.500000</ele>
        <time>2020-07-03T19:37:38.000Z</time>
      </trkpt>
      <trkpt lat="33.518715" lon="-115.673379">
        <ele>266.000000</ele>
        <time>2020-07-03T19:38:07.000Z</time>
      </trkpt>
      <trkpt lat="33.518693" lon="-115.67346">
        <ele>265.000000</ele>
        <time>2020-07-03T19:38:08.000Z</time>
      </trkpt>
      <trkpt lat="33.518668" lon="-115.673538">
        <ele>264.597656</ele>
        <time>2020-07-03T19:38:09.000Z</time>
      </trkpt>
      <trkpt lat="33.518545" lon="-115.673844">
        <ele>263.500000</ele>
        <time>2020-07-03T19:38:13.000Z</time>
      </trkpt>
      <trkpt lat="33.518178" lon="-115.67475">
        <ele>260.500000</ele>
        <time>2020-07-03T19:38:25.000Z</time>
      </trkpt>
      <trkpt lat="33.518157" lon="-115.674828">
        <ele>260.398438</ele>
        <time>2020-07-03T19:38:26.000Z</time>
      </trkpt>
      <trkpt lat="33.518142" lon="-115.674909">
        <ele>260.097656</ele>
        <time>2020-07-03T19:38:27.000Z</time>
      </trkpt>
      <trkpt lat="33.518131" lon="-115.674994">
        <ele>259.898438</ele>
        <time>2020-07-03T19:38:28.000Z</time>
      </trkpt>
      <trkpt lat="33.518124" lon="-115.67508">
        <ele>259.699219</ele>
        <time>2020-07-03T19:38:29.000Z</time>
      </trkpt>
      <trkpt lat="33.518123" lon="-115.67517">
        <ele>259.398438</ele>
        <time>2020-07-03T19:38:30.000Z</time>
      </trkpt>
      <trkpt lat="33.518129" lon="-115.67544">
        <ele>258.796875</ele>
        <time>2020-07-03T19:38:33.000Z</time>
      </trkpt>
      <trkpt lat="33.518153" lon="-115.675975">
        <ele>257.597656</ele>
        <time>2020-07-03T19:38:39.000Z</time>
      </trkpt>
      <trkpt lat="33.518141" lon="-115.676153">
        <ele>257.796875</ele>
        <time>2020-07-03T19:38:41.000Z</time>
      </trkpt>
      <trkpt lat="33.518117" lon="-115.676327">
        <ele>258.000000</ele>
        <time>2020-07-03T19:38:43.000Z</time>
      </trkpt>
      <trkpt lat="33.518031" lon="-115.676755">
        <ele>256.500000</ele>
        <time>2020-07-03T19:38:48.000Z</time>
      </trkpt>
      <trkpt lat="33.517985" lon="-115.676923">
        <ele>255.597656</ele>
        <time>2020-07-03T19:38:50.000Z</time>
      </trkpt>
      <trkpt lat="33.517829" lon="-115.677421">
        <ele>254.000000</ele>
        <time>2020-07-03T19:38:59.000Z</time>
      </trkpt>
      <trkpt lat="33.517788" lon="-115.677531">
        <ele>253.898438</ele>
        <time>2020-07-03T19:39:03.000Z</time>
      </trkpt>
      <trkpt lat="33.517783" lon="-115.677534">
        <ele>258.398438</ele>
        <time>2020-07-03T19:39:29.000Z</time>
      </trkpt>
      <trkpt lat="33.517783" lon="-115.677534">
        <ele>258.398438</ele>
        <time>2020-07-03T19:39:29.000Z</time>
      </trkpt>
    </trkseg>
</trk>

  <wpt lat="33.611575" lon="-115.652157">
    <time>2020-07-03T18:25:49Z</time>
    <name>hills</name>
    <ele>601</ele>
    <sym>CAUTION</sym>
    <cmt>
hills
hills
</cmt>
    <desc></desc>
    <type>Waypoint</type>
    <extensions>
      <mgn:extensions xmlns:mgn="http://www.magellangps.com/mgnext/0/2">
        <mgn:trkptid>33.611528,-115.652047,11</mgn:trkptid>
        <mgn:uuid>55929d55-7347-4003-98a8-4611c34bb304</mgn:uuid>
        <mgn:trkuuid>a2e35a2d-8b75-4ea0-b7b4-582d5cb8f1d5</mgn:trkuuid>
      </mgn:extensions>
    </extensions>
  </wpt>
</gpx>